[[{"header":{"parameterUnit":"m.s-1","parameterCategory":1,"la1":30.6,"la2":28.766,"lo1":-90.7593,"lo2":-88.6598,"dy":0.0162,"dx":0.0183,"nx":116,"ny":114,"refTime":"2023-06-20T12:00:00:Z","depth":0,"parameterNumber":2,"parameterNumberName":"U-component_of_WINDS"},"data":[0.0,0.0,0.0,0.0,0.0,0.0,0.0,0.0,0.0,0.0,0.0,0.0,0.0,0.0,0.0,0.0,0.0,0.0,0.0,0.0,0.0,0.0,0.0,0.0,0.0,0.0,0.0,0.0,0.0,0.0,0.0,0.0,0.0,0.0,0.0,0.0,0.0,0.0,0.0,0.0,0.0,0.0,0.0,0.0,0.0,0.0,0.0,0.0,0.0,0.0,0.0,0.0,0.0,0.0,0.0,0.0,0.0,0.0,0.0,0.0,0.0,0.0,0.0,0.0,0.0,0.0,0.0,0.0,0.0,0.0,0.0,0.0,0.0,0.0,0.0,0.0,0.0,0.0,0.0,0.0,0.0,0.0,0.0,0.0,0.0,0.0,0.0,0.0,0.0,0.0,0.0,0.0,0.0,0.0,0.0,0.0,0.0,0.0,0.0,0.0,0.0,0.0,0.0,0.0,0.0,0.0,0.0,0.0,0.0,0.0,0.0,0.0,0.0,0.0,0.0,0.0,0.0,0.0,0.0,0.0,0.0,0.0,0.0,0.0,0.0,0.0,0.0,0.0,0.0,0.0,0.0,0.0,0.0,0.0,0.0,0.0,0.0,0.0,0.0,0.0,0.0,0.0,0.0,0.0,0.0,0.0,0.0,0.0,0.0,0.0,0.0,0.0,0.0,0.0,0.0,0.0,0.0,0.0,0.0,0.0,0.0,0.0,0.0,0.0,0.0,0.0,0.0,0.0,0.0,0.0,0.0,0.0,0.0,0.0,0.0,0.0,0.0,0.0,0.0,0.0,0.0,0.0,0.0,0.0,0.0,0.0,0.0,0.0,0.0,0.0,0.0,0.0,0.0,0.0,0.0,0.0,0.0,0.0,0.0,0.0,0.0,0.0,0.0,0.0,0.0,0.0,0.0,0.0,0.0,0.0,0.0,0.0,0.0,0.0,0.0,0.0,0.0,0.0,0.0,0.0,0.0,0.0,0.0,0.0,0.0,0.0,0.0,0.0,0.0,0.0,0.0,0.0,0.0,0.0,0.0,0.0,0.0,0.0,0.0,0.0,0.0,0.0,0.0,0.0,0.0,0.0,0.0,0.0,0.0,0.0,0.0,0.0,0.0,0.0,0.0,0.0,0.0,0.0,0.0,0.0,0.0,0.0,0.0,0.0,0.0,0.0,0.0,0.0,0.0,0.0,0.0,0.0,0.0,0.0,0.0,0.0,0.0,0.0,0.0,0.0,0.0,0.0,0.0,0.0,0.0,0.0,0.0,0.0,0.0,0.0,0.0,0.0,0.0,0.0,0.0,0.0,0.0,0.0,0.0,0.0,0.0,0.0,0.0,0.0,0.0,0.0,0.0,0.0,0.0,0.0,0.0,0.0,0.0,0.0,0.0,0.0,0.0,0.0,0.0,0.0,0.0,0.0,0.0,0.0,0.0,0.0,0.0,0.0,0.0,0.0,0.0,0.0,0.0,0.0,0.0,0.0,0.0,0.0,0.0,0.0,0.0,0.0,0.0,0.0,0.0,0.0,0.0,0.0,0.0,0.0,0.0,0.0,0.0,0.0,0.0,0.0,0.0,0.0,0.0,0.0,0.0,0.0,0.0,0.0,0.0,0.0,0.0,0.0,0.0,0.0,0.0,0.0,0.0,0.0,0.0,0.0,0.0,0.0,0.0,0.0,0.0,0.0,0.0,0.0,0.0,0.0,0.0,0.0,0.0,0.0,0.0,0.0,0.0,0.0,0.0,0.0,0.0,0.0,0.0,0.0,0.0,0.0,0.0,0.0,0.0,0.0,0.0,0.0,0.0,0.0,0.0,0.0,0.0,0.0,0.0,0.0,0.0,0.0,0.0,0.0,0.0,0.0,0.0,0.0,0.0,0.0,0.0,0.0,0.0,0.0,0.0,0.0,0.0,0.0,0.0,0.0,0.0,0.0,0.0,0.0,0.0,0.0,0.0,0.0,0.0,0.0,0.0,0.0,0.0,0.0,0.0,0.0,0.0,0.0,0.0,0.0,0.0,0.0,0.0,0.0,0.0,0.0,0.0,0.0,0.0,0.0,0.0,0.0,0.0,0.0,0.0,0.0,0.0,0.0,0.0,0.0,0.0,0.0,0.0,0.0,0.0,0.0,0.0,0.0,0.0,0.0,0.0,0.0,0.0,0.0,0.0,0.0,0.0,0.0,0.0,0.0,0.0,0.0,0.0,0.0,0.0,0.0,0.0,0.0,0.0,0.0,0.0,0.0,0.0,0.0,0.0,0.0,0.0,0.0,0.0,0.0,0.0,0.0,0.0,0.0,0.0,0.0,0.0,0.0,0.0,0.0,0.0,0.0,0.0,0.0,0.0,0.0,0.0,0.0,0.0,0.0,0.0,0.0,0.0,0.0,0.0,0.0,0.0,0.0,0.0,0.0,0.0,0.0,0.0,0.0,0.0,0.0,0.0,0.0,0.0,0.0,0.0,0.0,0.0,0.0,0.0,0.0,0.0,0.0,0.0,0.0,0.0,0.0,0.0,0.0,0.0,0.0,0.0,0.0,0.0,0.0,0.0,0.0,0.0,0.0,0.0,0.0,0.0,0.0,0.0,0.0,0.0,0.0,0.0,0.0,0.0,0.0,0.0,0.0,0.0,0.0,0.0,0.0,0.0,0.0,0.0,0.0,0.0,0.0,0.0,0.0,0.0,0.0,0.0,0.0,0.0,0.0,0.0,0.0,0.0,0.0,0.0,0.0,0.0,0.0,0.0,0.0,0.0,0.0,0.0,0.0,0.0,0.0,0.0,0.0,0.0,0.0,0.0,0.0,0.0,0.0,0.0,0.0,0.0,0.0,0.0,0.0,0.0,0.0,0.0,0.0,0.0,0.0,0.0,0.0,0.0,0.0,0.0,0.0,0.0,0.0,0.0,0.0,0.0,0.0,0.0,0.0,0.0,0.0,0.0,0.0,0.0,0.0,0.0,0.0,0.0,0.0,0.0,0.0,0.0,0.0,0.0,0.0,0.0,0.0,0.0,0.0,0.0,0.0,0.0,0.0,0.0,0.0,0.0,0.0,0.0,0.0,0.0,0.0,0.0,0.0,0.0,0.0,0.0,0.0,0.0,0.0,0.0,0.0,0.0,0.0,0.0,0.0,0.0,0.0,0.0,0.0,0.0,0.0,0.0,0.0,0.0,0.0,0.0,0.0,0.0,0.0,0.0,0.0,0.0,0.0,0.0,0.0,0.0,0.0,0.0,0.0,0.0,0.0,0.0,0.0,0.0,0.0,0.0,0.0,0.0,0.0,0.0,0.0,0.0,0.0,0.0,0.0,0.0,0.0,0.0,0.0,0.0,0.0,0.0,0.0,0.0,0.0,0.0,0.0,0.0,0.0,0.0,0.0,0.0,0.0,0.0,0.0,0.0,0.0,0.0,0.0,0.0,0.0,0.0,0.0,0.0,0.0,0.0,0.0,0.0,0.0,0.0,0.0,0.0,0.0,0.0,0.0,0.0,0.0,0.0,0.0,0.0,0.0,0.0,0.0,0.0,0.0,0.0,0.0,0.0,0.0,0.0,0.0,0.0,0.0,0.0,0.0,0.0,0.0,0.0,0.0,0.0,0.0,0.0,0.0,0.0,0.0,0.0,0.0,0.0,0.0,0.0,0.0,0.0,0.0,0.0,0.0,0.0,0.0,0.0,0.0,0.0,0.0,0.0,0.0,0.0,0.0,0.0,0.0,0.0,0.0,0.0,0.0,0.0,0.0,0.0,0.0,0.0,0.0,0.0,0.0,0.0,0.0,0.0,0.0,0.0,0.0,0.0,0.0,0.0,0.0,0.0,0.0,0.0,0.0,0.0,0.0,0.0,0.0,0.0,0.0,0.0,0.0,0.0,0.0,0.0,0.0,0.0,0.0,0.0,0.0,0.0,0.0,0.0,0.0,0.0,0.0,0.0,0.0,0.0,0.0,0.0,0.0,0.0,0.0,0.0,0.0,0.0,0.0,0.0,0.0,0.0,0.0,0.0,0.0,0.0,0.0,0.0,0.0,0.0,0.0,0.0,0.0,0.0,0.0,0.0,0.0,0.0,0.0,0.0,0.0,0.0,0.0,0.0,0.0,0.0,0.0,0.0,0.0,0.0,0.0,0.0,0.0,0.0,0.0,0.0,0.0,0.0,0.0,0.0,0.0,0.0,0.0,0.0,0.0,0.0,0.0,0.0,0.0,0.0,0.0,0.0,0.0,0.0,0.0,0.0,0.0,0.0,0.0,0.0,0.0,0.0,0.0,0.0,0.0,0.0,0.0,0.0,0.0,0.0,0.0,0.0,0.0,0.0,0.0,0.0,0.0,0.0,0.0,0.0,0.0,0.0,0.0,0.0,0.0,0.0,0.0,0.0,0.0,0.0,0.0,0.0,0.0,0.0,0.0,0.0,0.0,0.0,0.0,0.0,0.0,0.0,0.0,0.0,0.0,0.0,0.0,0.0,0.0,0.0,0.0,0.0,0.0,0.0,0.0,0.0,0.0,0.0,0.0,0.0,0.0,0.0,0.0,0.0,0.0,0.0,0.0,0.0,0.0,0.0,0.0,0.0,0.0,0.0,0.0,0.0,0.0,0.0,0.0,0.0,0.0,0.0,0.0,0.0,0.0,0.0,0.0,0.0,0.0,0.0,0.0,0.0,0.0,0.0,0.0,0.0,0.0,0.0,0.0,0.0,0.0,0.0,0.0,0.0,0.0,0.0,0.0,0.0,0.0,0.0,0.0,0.0,0.0,0.0,0.0,0.0,0.0,0.0,0.0,0.0,0.0,0.0,0.0,0.0,0.0,0.0,0.0,0.0,0.0,0.0,0.0,0.0,0.0,0.0,0.0,0.0,0.0,0.0,0.0,0.0,0.0,0.0,0.0,0.0,0.0,0.0,0.0,0.0,0.0,0.0,0.0,0.0,0.0,0.0,0.0,0.0,0.0,0.0,0.0,0.0,0.0,0.0,0.0,0.0,0.0,0.0,0.0,0.0,0.0,0.0,0.0,0.0,0.0,0.0,0.0,0.0,0.0,0.0,0.0,0.0,0.0,0.0,0.0,0.0,0.0,0.0,0.0,0.0,0.0,0.0,0.0,0.0,0.0,0.0,0.0,0.0,0.0,0.0,0.0,0.0,0.0,0.0,0.0,0.0,0.0,0.0,0.0,0.0,0.0,0.0,0.0,0.0,0.0,0.0,0.0,0.0,0.0,0.0,0.0,0.0,0.0,0.0,0.0,0.0,0.0,0.0,0.0,0.0,0.0,0.0,0.0,0.0,0.0,0.0,0.0,0.0,0.0,0.0,0.0,0.0,0.0,0.0,0.0,0.0,0.0,0.0,0.0,0.0,0.0,0.0,0.0,0.0,0.0,0.0,0.0,0.0,0.0,0.0,0.0,0.0,0.0,0.0,0.0,0.0,0.0,0.0,0.0,0.0,0.0,0.0,0.0,0.0,0.0,0.0,0.0,0.0,0.0,0.0,0.0,0.0,0.0,0.0,0.0,0.0,0.0,0.0,0.0,0.0,0.0,0.0,0.0,0.0,0.0,0.0,0.0,0.0,0.0,0.0,0.0,0.0,0.0,0.0,0.0,0.0,0.0,0.0,0.0,0.0,0.0,0.0,0.0,0.0,0.0,0.0,0.0,0.0,0.0,0.0,0.0,0.0,0.0,0.0,0.0,0.0,0.0,0.0,0.0,0.0,0.0,0.0,0.0,0.0,0.0,0.0,0.0,0.0,0.0,0.0,0.0,0.0,0.0,0.0,0.0,0.0,0.0,0.0,0.0,0.0,0.0,0.0,0.0,0.0,0.0,0.0,0.0,0.0,0.0,0.0,0.0,0.0,0.0,0.0,0.0,0.0,0.0,0.0,0.0,0.0,0.0,0.0,0.0,0.0,0.0,0.0,0.0,0.0,0.0,0.0,0.0,0.0,0.0,0.0,0.0,0.0,0.0,0.0,0.0,0.0,0.0,0.0,0.0,0.0,0.0,0.0,0.0,0.0,0.0,0.0,0.0,0.0,0.0,0.0,0.0,0.0,0.0,0.0,0.0,0.0,0.0,0.0,0.0,0.0,0.0,0.0,0.0,0.0,0.0,0.0,0.0,-3.6779,0.0,0.0,0.0,0.0,0.0,0.0,0.0,0.0,0.0,0.0,0.0,0.0,0.0,0.0,0.0,0.0,0.0,0.0,0.0,0.0,0.0,0.0,0.0,0.0,0.0,0.0,0.0,0.0,0.0,0.0,0.0,0.0,0.0,0.0,0.0,0.0,0.0,0.0,0.0,0.0,0.0,0.0,0.0,0.0,0.0,0.0,0.0,0.0,0.0,0.0,0.0,0.0,0.0,0.0,0.0,0.0,0.0,0.0,0.0,0.0,0.0,0.0,0.0,0.0,0.0,0.0,0.0,0.0,0.0,0.0,0.0,0.0,0.0,0.0,0.0,0.0,0.0,0.0,0.0,0.0,0.0,0.0,0.0,0.0,0.0,0.0,0.0,0.0,0.0,0.0,0.0,0.0,0.0,0.0,0.0,0.0,0.0,0.0,0.0,0.0,0.0,0.0,0.0,0.0,0.0,0.0,0.0,0.0,0.0,0.0,0.0,0.0,0.0,0.0,0.0,0.0,-3.8818,0.0,0.0,0.0,0.0,0.0,0.0,0.0,0.0,0.0,0.0,0.0,0.0,0.0,0.0,0.0,0.0,0.0,0.0,0.0,0.0,0.0,0.0,0.0,0.0,0.0,0.0,0.0,0.0,0.0,0.0,0.0,0.0,0.0,0.0,0.0,0.0,0.0,0.0,0.0,0.0,0.0,0.0,0.0,0.0,0.0,0.0,0.0,0.0,0.0,0.0,0.0,0.0,0.0,0.0,0.0,0.0,0.0,0.0,0.0,0.0,0.0,0.0,0.0,0.0,0.0,0.0,0.0,0.0,0.0,0.0,0.0,0.0,0.0,0.0,0.0,0.0,0.0,0.0,0.0,0.0,0.0,0.0,0.0,0.0,0.0,0.0,0.0,0.0,0.0,0.0,0.0,0.0,0.0,0.0,0.0,0.0,0.0,0.0,0.0,0.0,0.0,0.0,0.0,0.0,0.0,0.0,0.0,0.0,-4.5943,-4.6155,-4.5648,-4.5748,-4.5849,-4.5849,-4.4593,-4.3489,-4.2459,-4.1003,0.0,0.0,0.0,0.0,0.0,0.0,0.0,0.0,0.0,0.0,0.0,0.0,0.0,0.0,0.0,0.0,0.0,0.0,0.0,0.0,0.0,0.0,0.0,0.0,0.0,0.0,0.0,0.0,0.0,0.0,0.0,0.0,0.0,0.0,0.0,0.0,0.0,0.0,-4.0394,-4.1737,-4.195,-4.0942,-3.4706,0.0,0.0,0.0,0.0,0.0,0.0,0.0,0.0,0.0,0.0,0.0,0.0,0.0,0.0,0.0,0.0,0.0,0.0,0.0,0.0,0.0,0.0,0.0,0.0,0.0,0.0,0.0,0.0,0.0,0.0,0.0,0.0,0.0,0.0,0.0,0.0,0.0,0.0,0.0,0.0,0.0,0.0,0.0,-3.8432,-4.0701,0.0,0.0,0.0,0.0,0.0,0.0,0.0,0.0,0.0,0.0,0.0,0.0,0.0,-4.5888,-4.4256,-4.7381,-4.8314,-4.6844,-4.9343,-5.0197,-4.9665,-5.0167,-5.067,-5.1122,-5.1398,0.0,-4.4242,-4.3539,0.0,0.0,0.0,0.0,0.0,0.0,0.0,0.0,0.0,0.0,0.0,0.0,0.0,0.0,0.0,0.0,0.0,0.0,0.0,0.0,0.0,0.0,0.0,0.0,0.0,0.0,0.0,0.0,0.0,0.0,0.0,0.0,0.0,0.0,0.0,0.0,-4.1172,-4.3799,-4.5636,-4.6271,-4.6508,-4.638,-4.2153,-3.8631,-3.5774,-3.2958,0.0,0.0,0.0,0.0,0.0,0.0,0.0,0.0,0.0,0.0,0.0,0.0,0.0,0.0,0.0,0.0,0.0,0.0,0.0,0.0,0.0,0.0,0.0,0.0,0.0,0.0,0.0,0.0,0.0,0.0,0.0,0.0,0.0,0.0,0.0,0.0,0.0,0.0,0.0,-3.7505,-4.0701,-3.9575,-4.0461,-4.0454,0.0,0.0,0.0,0.0,0.0,0.0,0.0,0.0,0.0,-4.7458,-4.8722,-4.9169,-4.8837,-5.1966,-5.2773,-5.1322,-5.3181,-5.3909,-5.3683,-5.3934,-5.4185,-5.4436,-5.4662,-5.3206,-5.0494,-4.8058,-4.6125,-4.4443,0.0,0.0,0.0,0.0,-4.1854,-4.2319,0.0,0.0,0.0,0.0,0.0,0.0,0.0,0.0,0.0,0.0,0.0,0.0,0.0,0.0,0.0,0.0,0.0,0.0,0.0,0.0,0.0,0.0,0.0,0.0,0.0,0.0,0.0,0.0,-4.6532,-4.8517,-4.9873,-5.0073,-5.0168,-5.0071,-4.8144,-4.505,-4.11,-3.815,-3.435,0.0,0.0,0.0,0.0,0.0,0.0,0.0,0.0,0.0,0.0,0.0,0.0,0.0,0.0,0.0,0.0,0.0,0.0,0.0,0.0,0.0,0.0,0.0,0.0,0.0,0.0,0.0,0.0,0.0,0.0,0.0,0.0,0.0,0.0,0.0,0.0,0.0,0.0,-3.9999,-4.2918,-3.9841,-4.2942,-4.3809,0.0,0.0,0.0,0.0,0.0,0.0,-4.7554,-4.7961,-4.9229,-5.1571,-5.2353,-5.2952,-5.3472,-5.5727,-5.6329,-5.544,-5.6244,-5.6646,-5.6646,-5.6796,-5.6771,-5.6646,-5.6646,-5.642,-5.5742,-5.2,-4.9791,-4.851,-4.5874,-4.4759,-4.4662,-4.5047,-4.538,-4.5686,0.0,0.0,0.0,0.0,0.0,0.0,0.0,0.0,0.0,0.0,0.0,0.0,0.0,0.0,0.0,0.0,0.0,0.0,0.0,0.0,0.0,0.0,0.0,0.0,0.0,0.0,0.0,-4.7529,-4.9884,-5.1443,-5.2162,-5.2909,-5.3281,-5.3213,-5.1108,-4.9222,-4.7331,-4.2037,-3.8496,-3.6156,0.0,0.0,0.0,0.0,0.0,0.0,0.0,0.0,0.0,0.0,0.0,0.0,0.0,0.0,0.0,0.0,0.0,0.0,0.0,0.0,0.0,0.0,0.0,0.0,0.0,0.0,0.0,0.0,0.0,0.0,0.0,0.0,0.0,0.0,0.0,0.0,0.0,0.0,0.0,-4.4814,-4.8278,0.0,0.0,0.0,0.0,-4.7968,-4.9382,-5.0425,-5.1156,-5.3509,-5.4741,-5.4813,-5.6967,-5.7669,-5.6843,-5.6969,-5.7173,-5.7725,-5.7801,-5.7801,-5.7826,-5.8353,-5.8303,-5.7801,-5.7801,-5.7801,-5.7499,-5.4135,-5.2101,-5.0896,-4.8586,-4.7319,-4.6964,-4.6938,-4.7336,-4.7812,0.0,0.0,0.0,0.0,0.0,0.0,0.0,0.0,0.0,0.0,0.0,0.0,0.0,0.0,0.0,0.0,0.0,0.0,0.0,0.0,0.0,0.0,0.0,0.0,0.0,0.0,-4.8068,-5.001,-5.2222,-5.3509,-5.3788,-5.3581,-5.311,-5.2383,-5.1005,-4.9723,-4.8372,-4.5363,-4.1872,-3.8141,-3.5435,-3.1122,0.0,0.0,0.0,0.0,0.0,0.0,0.0,0.0,0.0,0.0,0.0,0.0,0.0,0.0,0.0,0.0,0.0,0.0,0.0,0.0,0.0,0.0,0.0,0.0,0.0,0.0,0.0,0.0,0.0,0.0,0.0,0.0,0.0,0.0,0.0,0.0,0.0,-4.6857,-5.1234,0.0,-4.8883,-4.9732,-5.097,-5.2057,-5.3485,-5.506,-5.6995,-5.6624,-5.6873,-5.7913,-5.8053,-5.7943,-5.76,-5.8629,-5.9081,-5.893,-5.9659,-6.001,-6.001,-6.0211,-6.0186,-5.9985,-5.9608,-5.9257,-5.8805,-5.7273,-5.5792,-5.431,-5.2779,-5.1607,-5.0811,-5.0896,-5.0675,-5.0669,0.0,0.0,0.0,0.0,0.0,0.0,0.0,0.0,0.0,0.0,0.0,0.0,0.0,0.0,0.0,0.0,0.0,0.0,0.0,0.0,0.0,0.0,0.0,0.0,0.0,-4.8155,-5.0641,-5.2307,-5.3782,-5.4451,-5.42,-5.3315,-5.2557,-5.1849,-5.0474,-4.9456,-4.8728,-4.728,-4.3976,-3.9615,-3.7783,-3.4084,-2.9324,0.0,0.0,0.0,0.0,0.0,0.0,0.0,0.0,0.0,0.0,0.0,0.0,0.0,0.0,0.0,0.0,0.0,0.0,0.0,0.0,0.0,0.0,0.0,0.0,0.0,0.0,0.0,0.0,0.0,0.0,0.0,0.0,0.0,0.0,-4.4228,-5.0044,-4.8696,-5.4173,-5.6577,-5.2582,-5.4042,-5.5632,-5.6485,-5.7712,-5.8774,-5.993,-5.8912,-5.8679,-5.948,-5.9161,-5.9006,-5.9006,-6.006,-6.0437,-6.0085,-6.1014,-6.1366,-6.119,-6.1366,-6.1366,-6.1165,-6.0788,-6.0286,-5.9759,-5.9408,-5.8378,-5.6922,-5.5641,-5.4687,-5.3909,-5.3351,-5.2966,-5.2715,0.0,0.0,0.0,0.0,0.0,0.0,0.0,0.0,0.0,0.0,0.0,0.0,0.0,0.0,0.0,0.0,0.0,0.0,0.0,0.0,0.0,0.0,0.0,0.0,-4.8699,-5.0875,-5.2824,-5.4479,-5.459,-5.4269,-5.3585,-5.2553,-5.1987,-5.1842,-4.9805,-4.8872,-4.8708,-4.7679,-4.488,-4.1007,-3.9756,-3.6753,-3.2671,0.0,0.0,0.0,0.0,0.0,0.0,0.0,0.0,0.0,0.0,0.0,0.0,0.0,0.0,0.0,0.0,0.0,0.0,0.0,0.0,0.0,0.0,0.0,0.0,0.0,0.0,0.0,0.0,0.0,0.0,0.0,0.0,0.0,-3.587,-4.5022,-5.1092,-5.0682,-5.7254,-6.042,-5.6675,-5.9259,-6.1084,-6.1184,-6.1747,-6.1473,-5.9774,-6.0644,-6.0671,-5.9533,-6.0613,-6.119,-6.119,-6.119,-6.1215,-6.1215,-6.1768,-6.1743,-6.1215,-6.1793,-6.1743,-6.1215,-6.119,-6.0864,-6.0337,-6.0311,-5.9684,-5.8579,-5.6922,-5.6269,-5.5968,-5.4315,-5.3695,-5.3619,0.0,0.0,0.0,0.0,0.0,0.0,0.0,0.0,0.0,0.0,0.0,0.0,0.0,0.0,0.0,0.0,0.0,0.0,0.0,0.0,0.0,0.0,0.0,0.0,-5.019,-5.1993,-5.344,-5.4504,-5.5119,-5.53,-5.5108,-5.4794,-5.3831,-5.2262,-5.1199,-4.9883,-4.8373,-4.7662,-4.5578,-4.2685,-4.1113,-3.7727,-3.3385,0.0,0.0,0.0,0.0,0.0,0.0,0.0,0.0,0.0,0.0,0.0,0.0,0.0,0.0,0.0,0.0,0.0,0.0,0.0,0.0,0.0,0.0,0.0,0.0,0.0,0.0,0.0,0.0,0.0,0.0,0.0,-2.6044,-3.3052,-3.7461,-4.4927,-5.0735,-5.2792,-5.6475,-5.8831,-5.8654,-5.9865,-6.1088,-6.1936,-6.1002,-6.0649,-6.1395,-6.0526,-6.0148,-6.0688,-6.1014,-6.119,-6.119,-6.1592,-6.1793,-6.1793,-6.2345,-6.232,-6.1793,-6.2345,-6.2295,-6.1768,-6.1366,-6.109,-6.0889,-6.006,-5.9558,-5.9207,-5.8353,-5.7273,-5.6093,-5.5207,-5.4124,-5.3142,0.0,0.0,0.0,0.0,0.0,0.0,0.0,0.0,0.0,0.0,0.0,0.0,0.0,0.0,0.0,0.0,0.0,0.0,0.0,0.0,0.0,0.0,0.0,-4.9064,-5.1766,-5.3084,-5.4183,-5.4994,-5.5813,-5.6167,-5.619,-5.6068,-5.5322,-5.4064,-5.2763,-5.1287,-4.9782,-4.8922,-4.6916,-4.4139,-4.2906,-4.0012,-3.5966,-3.2471,-3.0285,-2.8718,-2.6068,-2.4536,-2.3444,-2.1762,0.0,0.0,0.0,0.0,0.0,0.0,0.0,0.0,0.0,0.0,0.0,0.0,0.0,0.0,0.0,0.0,0.0,0.0,0.0,0.0,0.0,0.0,0.0,0.0,-2.9621,-3.6806,-4.19,-4.7147,-5.1719,-5.4825,-5.6926,-5.8705,-5.9918,-6.0579,-6.1056,-6.1566,-6.0997,-6.0823,-6.1347,-6.086,-6.0839,-6.1492,-6.1743,-6.1868,-6.1868,-6.2195,-6.2345,-6.2345,-6.2672,-6.2546,-6.2019,-6.2571,-6.1883,0.0,-6.0179,-5.9374,-5.8055,-5.8277,-5.8384,0.0,0.0,0.0,0.0,0.0,-5.3934,-5.2929,0.0,0.0,0.0,0.0,0.0,0.0,0.0,0.0,0.0,0.0,0.0,0.0,0.0,0.0,0.0,0.0,0.0,0.0,0.0,0.0,0.0,-4.6789,-4.9136,-5.1311,-5.3288,-5.4186,-5.5035,-5.5835,-5.6541,-5.7002,-5.7205,-5.693,-5.6735,-5.6579,-5.4295,-5.2916,-5.2182,-5.088,-4.8457,-4.5354,-4.4899,-4.2751,-3.934,-3.4824,-3.3198,-3.2945,-2.9065,-2.6806,-2.5651,-2.5153,0.0,0.0,0.0,0.0,0.0,0.0,0.0,0.0,0.0,0.0,0.0,0.0,0.0,0.0,0.0,0.0,0.0,0.0,0.0,0.0,0.0,0.0,0.0,0.0,-3.4592,-4.1315,-4.7734,-5.089,-5.3508,-5.6197,-5.7622,-5.8898,-6.0018,-6.0593,-6.0827,-6.0513,-6.1415,-6.1577,-6.0619,0.0,0.0,0.0,0.0,-6.2822,-6.2822,-6.2822,-6.2822,-6.2822,-6.2822,-6.2546,-6.2019,-6.217,-6.0769,-5.7973,-5.8023,-5.6485,-5.3949,-5.6069,-5.6709,-5.6454,-5.7467,-5.7474,-5.662,-5.452,-5.3368,-5.2929,0.0,0.0,0.0,0.0,0.0,0.0,0.0,0.0,0.0,0.0,0.0,0.0,0.0,0.0,0.0,0.0,0.0,0.0,0.0,0.0,-4.7125,-5.0712,-5.2019,-5.3103,-5.4224,-5.5034,-5.5847,-5.6607,-5.7311,-5.8287,-5.9471,-5.9422,-5.892,-5.7983,-5.6015,-5.4585,-5.3458,-5.1757,-4.9126,-4.6117,-4.6007,-4.3712,-4.004,-3.7637,-3.57,-3.4106,-3.2253,-3.053,-2.9061,-2.796,-2.5865,-2.3546,-2.2102,0.0,0.0,0.0,0.0,0.0,0.0,0.0,0.0,0.0,0.0,0.0,0.0,0.0,0.0,0.0,0.0,0.0,0.0,0.0,0.0,-2.9979,-3.7582,-4.4598,-4.9818,-5.3353,-5.5228,-5.5062,-5.5574,-5.6264,-5.6929,-5.7925,-5.885,-5.9668,-6.0378,-6.0902,-6.1617,-6.1893,-6.222,-6.2647,-6.2772,-6.2822,-6.2822,-6.2822,-6.2822,-6.2822,0.0,0.0,-6.1994,-6.0203,-5.8876,-5.7761,-5.5592,-5.4319,-5.3904,-5.5694,-5.6807,-5.7545,-5.7825,-5.6997,-5.5591,-5.4703,-5.3797,-5.2929,0.0,0.0,0.0,0.0,0.0,0.0,0.0,0.0,0.0,0.0,0.0,0.0,0.0,0.0,0.0,0.0,0.0,0.0,0.0,-4.8272,-5.0153,-5.2784,-5.3664,-5.4599,-5.5688,-5.5715,-5.603,-5.6799,-5.8287,-5.937,-6.0114,-6.0892,-6.1166,-6.0912,-5.8345,-5.6949,-5.6262,-5.3766,-5.0551,-4.7169,-4.6892,-4.4781,-4.1547,-3.9225,-3.7146,-3.5178,-3.3733,-3.2044,-3.0295,-2.8615,-2.6608,-2.4597,-2.2688,-2.0325,-1.7939,0.0,0.0,0.0,0.0,0.0,0.0,0.0,0.0,0.0,0.0,0.0,0.0,0.0,0.0,-1.7103,-2.0263,0.0,-3.039,-3.6621,-4.3392,-4.9357,-5.3449,-5.5879,-5.6646,-5.5516,-5.5641,-5.6018,-5.657,-5.7399,-5.8353,-5.9408,-6.0286,-6.1115,-6.1969,-6.227,-6.2546,-6.2822,-6.2822,-6.2822,-6.2822,-6.2822,-6.2822,-6.2822,-6.2822,-6.2546,-6.1994,-5.9854,-5.7833,-5.5666,-5.3344,-5.1423,-4.9892,-5.2709,-5.4665,-5.5996,-5.6701,-5.6194,-5.4863,-5.4074,-5.3445,-5.2929,0.0,0.0,0.0,0.0,0.0,0.0,0.0,0.0,0.0,0.0,0.0,0.0,0.0,0.0,0.0,0.0,0.0,0.0,0.0,-5.0226,-5.2492,-5.4056,-5.4747,-5.5582,-5.648,-5.5988,-5.6156,-5.7002,-5.9099,-6.0173,-6.0213,-6.1458,-6.232,-6.2665,-5.9758,-5.8514,-5.8487,-5.5664,-5.2006,-4.8249,-4.7778,-4.5715,-4.2599,-4.055,-3.8278,-3.6027,-3.4696,-3.2445,-2.9872,-2.8278,-2.6226,-2.4153,-2.236,-2.0558,-1.8704,-1.6832,-1.6478,0.0,0.0,0.0,0.0,0.0,0.0,0.0,0.0,-1.3586,-1.511,-1.7912,-1.9035,-2.0989,-2.5471,-3.1025,-3.7015,-4.3039,-4.8837,-5.369,-5.68,-5.7826,-5.7801,-5.6721,-5.657,-5.6671,-5.6997,-5.775,-5.8604,-5.9583,-6.0713,-6.1592,-6.2144,-6.2596,-6.2822,-6.2822,-6.2822,-6.2822,-6.2822,-6.2822,-6.2822,-6.2822,-6.2822,-6.2596,-6.2008,-5.9618,-5.6682,-5.3806,-5.1121,-4.8637,-4.6615,-4.9849,-5.2189,-5.3823,-5.5237,-5.5189,-5.4285,-5.3406,-5.3005,-5.2929,0.0,0.0,0.0,0.0,0.0,0.0,0.0,0.0,0.0,0.0,0.0,0.0,0.0,0.0,0.0,0.0,0.0,0.0,-4.906,-5.1208,-5.3312,-5.5321,-5.5541,-5.549,-5.5221,-5.551,-5.6393,-5.778,-5.9336,-6.0259,-6.0522,-6.0687,-6.0607,-6.0109,-5.8122,-5.7523,-5.7987,-5.5901,-5.2675,-4.8941,-4.8886,-4.6196,-4.2233,-4.1998,-3.9738,-3.6634,-3.5669,-3.1927,-2.7474,-2.7428,-2.5087,-2.2238,-2.2553,-2.1213,-1.9626,-1.915,-1.8585,-1.7508,-1.4072,-1.1018,-0.9261,-1.1131,-1.1492,-1.2506,0.0,-1.7937,-1.89,-2.1752,-2.4224,-2.6553,-2.8112,-3.4716,-4.1117,-4.4972,-5.062,-5.5476,-5.8101,-5.8905,-5.8981,-5.7774,-5.7675,-5.7524,-5.7072,-5.8428,-5.9558,-6.0186,-6.1266,-6.2144,-6.2697,-6.2797,-6.2822,-6.2822,-6.2822,-6.2822,-6.2822,-6.2822,-6.2822,-6.2822,-6.2822,-6.2797,-6.2534,-5.7475,-5.4974,-5.4148,-4.8617,-4.7118,-4.8693,-4.9613,-5.1208,-5.3203,-5.3824,-5.3909,-5.3783,-5.3658,-5.3331,-5.2929,0.0,0.0,0.0,0.0,0.0,0.0,0.0,0.0,0.0,0.0,0.0,0.0,0.0,0.0,0.0,0.0,0.0,0.0,-4.9992,-5.0967,-5.281,-5.5992,-5.5414,-5.5009,-5.4979,-5.551,-5.6427,-5.7881,-5.8696,-5.9344,-5.996,-6.0098,-6.0225,-6.032,-5.8435,-5.7983,-5.8443,-5.6204,-5.2791,-4.9052,-4.9052,-4.6276,-4.2082,-4.1455,-3.8755,-3.517,-3.4051,-3.0683,0.0,0.0,-2.2561,-2.1203,-2.0687,-2.0075,-1.9362,-1.8121,-1.7749,-1.711,-1.3621,-1.1699,-1.0876,-1.1966,-1.3596,-1.5708,-1.8333,-1.9586,-2.1146,-2.473,-2.6609,-2.9423,-3.4936,-4.0151,-4.5358,-5.0743,-5.4741,-5.7764,-5.9353,-5.9303,-5.8573,-5.7449,-5.765,-5.78,-5.7549,-5.873,-5.9859,-6.0763,-6.1542,-6.2245,-6.2797,-6.2822,-6.2822,-6.2822,-6.2822,-6.2822,-6.2822,-6.2822,-6.2822,-6.2822,-6.2822,-6.2822,-6.2634,-5.8736,-5.5156,-5.1786,-4.7299,-4.5786,-4.6643,-4.7496,-4.8919,-5.0802,-5.1681,-5.2675,-5.3658,-5.3356,-5.3105,-5.2929,0.0,0.0,0.0,0.0,0.0,0.0,0.0,0.0,0.0,0.0,0.0,0.0,0.0,0.0,0.0,0.0,0.0,0.0,0.0,-5.0418,-5.234,-5.5792,-5.4916,-5.4378,-5.457,-5.5101,-5.598,-5.7177,-5.8053,-5.8494,-5.8572,-5.9377,-5.9755,-5.9537,-5.8164,-5.7832,-5.8101,-5.6033,-5.2791,-4.9052,-4.8992,-4.6062,-4.1555,-4.03,-3.7163,-3.3389,-3.2115,-2.8846,0.0,0.0,-2.021,-1.9633,-1.885,-1.8891,-1.8863,-1.7551,-1.7193,-1.6724,-1.4252,-1.3386,-1.3333,-1.4217,-1.6295,-1.8572,-2.0173,-2.1292,-2.3078,-2.687,-2.9112,-3.2639,-3.9503,-4.4647,-4.949,-5.449,-5.7499,-5.9328,-6.0186,-5.9533,-5.8504,-5.7173,-5.747,-5.7621,-5.7424,-5.883,-6.0136,-6.1115,-6.1843,-6.2395,-6.2797,-6.2822,-6.2822,-6.2822,-6.2822,-6.2822,-6.2822,-6.2822,-6.2747,-6.2571,-6.2596,-6.2458,-6.227,-5.8747,-5.4274,-4.9045,-4.6233,-4.4961,-4.4946,-4.5731,-4.6663,-4.8122,-4.9847,-5.1414,-5.2709,-5.2917,-5.2929,-5.2929,0.0,0.0,0.0,0.0,0.0,0.0,0.0,0.0,0.0,0.0,0.0,0.0,0.0,0.0,0.0,0.0,0.0,0.0,0.0,-4.9872,-5.2172,-5.4462,-5.4164,-5.3794,-5.352,-5.4274,-5.4783,-5.5183,-5.7733,-5.8001,-5.6186,-5.8649,-5.8592,-5.6299,-5.6269,-5.6269,-5.6239,-5.5478,-5.2791,-4.8996,-4.852,-4.5206,-4.0375,-3.8718,-3.5499,-3.1833,-3.0535,0.0,0.0,-2.0256,-1.8527,-1.7015,-1.7796,-1.8277,-1.8571,-1.8725,-1.7869,-1.6819,-1.7327,-1.6473,-1.6017,-1.8888,-1.9941,-2.0773,-2.3192,-2.4128,-2.5281,-2.8134,-3.2675,-3.6941,-3.9868,-4.7396,-5.3243,-5.3966,-5.7545,-6.0313,-6.0271,-5.9871,-5.8828,-5.7162,-5.701,-5.6788,-5.6294,-5.8704,-6.0537,-6.114,-6.2195,-6.2822,-6.2822,-6.2822,-6.2822,-6.2822,-6.2822,-6.2822,-6.2822,-6.2822,-6.2521,-6.2054,-6.1994,-6.1771,-6.1095,-5.6166,-5.1131,-4.6464,-4.5433,-4.4785,-4.4489,-4.5195,-4.523,-4.5206,-4.8714,-4.9985,-5.0293,-5.2189,-5.2929,-5.2929,0.0,0.0,0.0,0.0,0.0,0.0,0.0,0.0,0.0,0.0,0.0,0.0,0.0,0.0,0.0,0.0,0.0,0.0,0.0,-4.7639,-4.9638,-5.347,-5.2125,-5.1326,-5.1459,-5.2404,-5.3049,-5.3466,-5.5132,-5.5729,-5.5318,-5.633,-5.6594,-5.6166,-5.6166,-5.5456,-5.4124,-5.3451,-5.0824,-4.6975,-4.6085,-4.3073,-3.8907,-3.6673,-3.2748,-2.8167,0.0,0.0,0.0,-1.8057,-1.6662,-1.6246,-1.6941,-1.7368,-1.7556,-1.7391,-1.6588,-1.5872,-1.636,-1.7345,-1.8722,-2.0227,-2.1657,-2.3197,-2.4329,-2.5792,-2.7718,-3.0442,-3.3423,-3.7086,-4.1883,-4.6462,-5.077,-5.4795,-5.7597,-5.9823,-6.1196,-6.0555,-5.9511,-5.7747,-5.7623,-5.7273,-5.6294,-5.8052,0.0,-6.0537,-6.1642,-6.2446,-6.2822,-6.2822,-6.2822,-6.2822,-6.2822,-6.2584,-6.2295,-6.2295,-6.1932,-6.1421,-6.1482,-6.0353,-5.8374,-5.5088,-5.1662,-4.8021,-4.5836,-4.4568,-4.3981,-4.3619,-4.399,-4.4795,-4.5793,-4.6849,-4.8044,-4.8779,-4.8989,-4.9115,0.0,0.0,0.0,0.0,0.0,0.0,0.0,0.0,0.0,0.0,0.0,0.0,0.0,0.0,0.0,0.0,0.0,0.0,0.0,0.0,-4.7217,-4.979,-4.8444,-4.6952,-4.5499,-4.7626,-4.8689,-4.8448,-5.0335,-5.1398,-5.179,-5.317,-5.4021,-5.4401,-5.464,-5.3609,-5.1655,-5.0628,-4.7806,-4.4042,-4.2346,-3.9465,-3.5897,-3.3573,-3.0175,0.0,0.0,0.0,0.0,-1.6795,-1.5899,-1.6169,-1.7133,-1.8223,-1.9055,-1.8612,-1.8775,-1.9195,-1.9456,-2.145,-2.3721,-2.4759,-2.5923,-2.7129,-2.7653,-2.8716,-3.0039,-3.2436,-3.4611,-3.7604,-4.2345,-4.5622,-4.9011,-5.3493,-5.546,-5.7586,-6.0089,-5.9573,-5.8777,-5.8479,-5.8152,-5.7675,-5.7173,-5.8077,-5.9056,-5.996,-6.1065,-6.1943,-6.2446,-6.2395,-6.2308,-6.2534,-6.232,-6.2032,-6.1744,-6.1746,-6.1446,-6.085,-5.9675,-5.7777,-5.5169,-5.2899,-5.0188,-4.7392,-4.5385,-4.4145,-4.3342,-4.2592,-4.2645,-4.3533,-4.3896,-4.4848,-4.6058,-4.6693,-4.6973,-4.7141,0.0,0.0,0.0,0.0,0.0,0.0,0.0,0.0,0.0,0.0,0.0,0.0,0.0,0.0,0.0,0.0,0.0,0.0,0.0,0.0,0.0,-4.358,-4.3186,-4.0976,-3.6529,-4.0572,-4.2107,-4.08,-4.3758,-4.5304,-4.5605,-4.9131,-5.0753,-5.0743,-5.1464,-5.0552,-4.8534,-4.6855,-4.3875,-4.0261,-3.7442,-3.4596,-3.1734,-2.9625,0.0,0.0,0.0,0.0,-1.918,-1.6777,-1.6278,-1.6924,-1.8503,-2.0822,-2.2787,-2.236,-2.4325,-2.657,-2.6176,-2.8253,-3.0667,-3.1959,-3.2176,-3.2276,-3.2574,-3.2359,-3.2423,-3.4054,-3.6172,-3.8502,-4.1084,-4.4936,-4.8335,-5.0117,-5.1975,-5.4336,-5.7675,-5.7223,-5.7298,-5.9332,-5.8679,-5.8252,-5.8704,-5.8755,-5.8956,-5.9458,0.0,-6.1341,-6.2004,-6.1507,-6.131,-6.1858,-6.1358,-6.1071,-6.1021,-6.1006,-6.0745,-6.0079,-5.7083,-5.4334,-5.2,-4.9533,-4.7026,-4.4913,-4.4,-4.3429,-4.3051,-4.2075,-4.15,-4.1366,-4.3265,-4.3915,-4.4143,-4.609,-4.6698,-4.675,0.0,0.0,0.0,0.0,0.0,0.0,0.0,0.0,0.0,0.0,0.0,0.0,0.0,0.0,0.0,0.0,0.0,0.0,0.0,0.0,0.0,0.0,0.0,0.0,0.0,0.0,0.0,0.0,0.0,-4.0884,-4.0631,-4.2959,-4.426,-4.4686,-4.4948,-4.3361,-4.0733,-4.0261,-3.8155,-3.497,0.0,-3.1637,-2.9884,0.0,0.0,0.0,0.0,0.0,-2.0161,-1.8308,-1.9292,-2.1547,-2.2585,-2.4228,-2.5696,-2.6272,-2.761,-2.9144,-2.9501,-3.0899,-3.2408,-3.2909,-3.3122,-3.3205,-3.2604,-3.3409,-3.3833,-3.2999,-3.4843,-3.6784,-3.7177,-4.1779,-4.6552,-4.9891,-5.3909,-5.7801,-6.1115,-6.1316,-6.104,-6.0788,-6.0512,-6.006,-5.9357,-5.9307,-5.9357,-5.9483,-6.0136,-6.0964,-6.1918,-6.1509,-6.0576,-5.8949,-6.048,-6.0129,-5.8031,-5.9373,-5.8904,-5.6741,-5.5974,-5.3435,-4.9285,-4.8605,-4.68,-4.409,-4.3867,-4.317,-4.2033,-4.1817,-4.1563,-4.1191,-4.1776,-4.1991,-4.1971,-4.2564,-4.2759,-4.2645,0.0,0.0,0.0,0.0,0.0,0.0,0.0,0.0,0.0,0.0,0.0,0.0,0.0,0.0,0.0,0.0,0.0,0.0,0.0,0.0,0.0,0.0,0.0,0.0,0.0,0.0,0.0,0.0,0.0,0.0,0.0,-3.6841,-3.8175,-3.9271,-3.9271,-3.7986,-3.578,0.0,0.0,0.0,0.0,0.0,0.0,0.0,0.0,0.0,0.0,-2.1682,-2.1429,-2.1812,-2.3218,-2.5103,-2.6496,-2.8086,-2.9689,-3.0178,-3.163,-3.3188,-3.3107,-3.451,-3.6013,-3.639,-3.639,-3.5879,-3.4783,-3.4883,-3.4557,-3.2598,-3.386,-3.5357,-3.5179,-3.9746,-4.4568,-4.7732,-5.2051,-5.6319,-6.0136,-6.0663,-6.0964,-6.1793,-6.1692,-6.1391,-6.0989,-6.0738,-6.0588,-6.0588,-6.0211,-6.0286,-6.1173,-6.0697,-5.9955,-5.8615,-5.9859,-5.9638,-5.7728,-5.8694,-5.7794,-5.5178,-5.4065,-5.1628,-4.8042,-4.6606,-4.5108,-4.3448,0.0,-4.2466,-4.1796,-4.1581,-4.1386,-4.1172,-4.0958,-4.0977,-4.1172,-4.0958,-4.0977,-4.1366,0.0,0.0,0.0,0.0,0.0,0.0,0.0,0.0,0.0,0.0,0.0,0.0,0.0,0.0,0.0,0.0,0.0,0.0,0.0,0.0,0.0,0.0,0.0,0.0,0.0,0.0,0.0,0.0,0.0,0.0,0.0,0.0,0.0,0.0,0.0,0.0,0.0,0.0,0.0,0.0,0.0,0.0,0.0,0.0,0.0,0.0,-2.2811,-2.2374,-2.2507,-2.536,-2.6827,-2.7856,-3.0119,-3.2264,-3.3999,-3.4102,-3.583,-3.7507,-3.6793,-3.8198,-4.0156,-4.0527,-3.998,-3.9004,-3.7539,-3.6269,-3.4726,-3.2627,-3.3296,-3.4285,-3.4364,-3.8647,-4.2911,-4.5497,-4.9113,-5.3206,-5.7801,-5.8453,-5.9533,-6.2471,-6.2395,-6.2295,-6.2772,-6.237,-6.2044,-6.1943,-6.0437,-5.9788,-6.035,-5.9788,-5.9408,-5.936,-5.9092,-5.8855,-5.8539,-5.8648,-5.7032,-5.4075,-5.1846,-4.9589,-4.7147,-4.4299,-4.3128,-4.304,-4.2211,0.0,-4.1756,-4.1366,-4.1172,-4.1172,-4.0744,-4.0822,-4.1072,-4.0686,-4.0783,-4.1561,0.0,0.0,0.0,0.0,0.0,0.0,0.0,0.0,0.0,0.0,-3.4697,-3.5272,0.0,0.0,0.0,0.0,0.0,0.0,0.0,0.0,0.0,0.0,0.0,0.0,0.0,0.0,0.0,0.0,0.0,0.0,0.0,0.0,0.0,0.0,0.0,0.0,0.0,0.0,0.0,0.0,0.0,0.0,0.0,0.0,0.0,0.0,-2.2124,-2.1995,-2.2363,-2.449,-2.6981,-2.9806,-3.3325,-3.551,-3.6894,-3.7953,-3.8728,-3.9551,-3.9736,-4.024,-4.0976,-4.1035,-4.0664,-3.9687,-3.7305,-3.6055,-3.4843,-3.267,-3.2985,-3.3885,-3.4333,-3.8289,-4.2961,-4.7481,-5.1046,-5.5164,-6.0537,-6.1291,-6.1667,-6.2697,-6.2747,-6.2722,-6.2822,-6.2245,-6.1871,-6.1321,-6.0619,-6.0221,-6.0367,-5.9759,-5.9236,-5.8866,-5.7074,-5.6734,-5.7981,-5.8001,-5.5806,-5.1497,-5.0992,-4.8519,-4.4335,-4.3555,-4.293,-4.2447,-4.1934,0.0,-4.1347,-4.1172,-4.1172,-4.1172,-4.1152,-4.1118,-4.1198,-4.1069,-4.1152,-4.1561,0.0,0.0,0.0,0.0,0.0,0.0,0.0,-3.216,-3.2262,-3.2479,-3.3621,-3.4657,-3.5246,-3.5367,-3.5125,0.0,0.0,0.0,0.0,0.0,0.0,0.0,0.0,0.0,0.0,-2.1015,-2.065,-2.0171,0.0,-2.0425,-2.1854,-2.2802,-2.3887,-2.51,0.0,0.0,0.0,0.0,0.0,0.0,0.0,0.0,0.0,0.0,0.0,0.0,0.0,-2.149,-2.1648,-2.4022,-2.6304,-2.8957,-3.31,-3.6023,-3.8184,-3.9258,-3.9883,-4.0312,-4.0742,-4.1016,-4.1172,-4.1172,-4.0508,-3.9101,-3.6289,-3.4805,-3.348,-3.1588,-3.2162,-3.3198,-3.4261,-3.7363,-4.1164,-4.5103,-4.8476,-5.256,-5.8126,-5.9985,-6.124,-6.2672,-6.3149,-6.3224,-6.2873,-6.2559,-6.212,-6.1247,-6.0914,-6.0524,-5.991,-5.9378,-5.9056,-5.9034,-5.7575,-5.7049,-5.7826,-5.7542,-5.5151,-5.0755,-5.0447,-4.821,-4.4119,-4.3468,-4.2793,-4.2401,-4.1991,0.0,-4.1172,-4.1172,-4.1172,-4.1172,-4.0958,-4.105,-4.1223,-4.0879,-4.0958,-4.1581,0.0,0.0,0.0,0.0,0.0,0.0,0.0,-3.2023,-3.201,-3.2318,-3.363,-3.4426,-3.4361,-3.4198,-3.3578,0.0,0.0,0.0,0.0,0.0,0.0,0.0,0.0,0.0,0.0,0.0,0.0,-1.8505,-1.7498,0.0,0.0,0.0,0.0,0.0,-2.4258,-2.5168,-2.6319,0.0,0.0,0.0,0.0,-2.4473,0.0,0.0,0.0,0.0,0.0,-2.0529,-2.0435,-2.2796,-2.4874,-2.7199,-3.0831,-3.4687,-3.8223,-3.9199,-3.9844,-4.0351,-4.0898,-4.1094,-4.1172,-4.1172,-4.0176,-3.8418,-3.5391,-3.3965,-3.2734,-3.1085,-3.1825,-3.3155,-3.4581,-3.6681,-3.8897,-4.0881,-4.4402,-4.9057,-5.5321,-5.7801,-5.996,-6.2484,-6.3185,-6.326,-6.2873,-6.2822,-6.2433,-6.1347,-6.0931,-6.0393,-5.9533,-5.9178,-5.8973,-5.9278,-5.8353,-5.7913,-5.7728,-5.7182,-5.4847,-5.1183,-5.0417,-4.8358,-4.4833,-4.3711,-4.2871,-4.2385,-4.203,0.0,0.0,-4.1172,-4.1172,-4.1172,-4.0763,-4.0938,-4.1172,-4.0763,-4.0938,-4.1717,0.0,0.0,0.0,0.0,0.0,0.0,0.0,-3.3583,-3.3724,-3.4969,-3.5259,-3.4501,-3.2277,-3.3208,-3.3309,0.0,0.0,0.0,0.0,0.0,0.0,0.0,0.0,0.0,0.0,0.0,0.0,-1.1482,-1.22,0.0,0.0,0.0,0.0,0.0,0.0,-2.5349,-2.671,-2.5125,0.0,0.0,0.0,0.0,0.0,0.0,0.0,0.0,0.0,-1.8537,-1.8793,-1.9644,-2.2357,-2.5612,-2.6867,-3.1371,-3.6504,-3.7734,-3.8691,-3.9512,-4.0351,-4.0879,-4.1172,-4.1172,-4.0176,-3.8418,-3.543,-3.4705,-3.4114,-3.2427,-3.3254,-3.4581,-3.5953,-3.6768,-3.6917,-3.5711,-4.0798,-4.7558,-5.5164,-5.6821,-5.8627,-6.2431,-6.2795,-6.2898,-6.2847,-6.2822,-6.2395,-6.1341,-6.0236,-5.9583,-5.9508,-5.9483,-5.9228,-5.8744,-5.8241,-5.7699,-5.7036,-5.6491,-5.509,-5.2875,-5.131,-4.9188,-4.6578,-4.4568,-4.3268,-4.2348,-4.2013,0.0,0.0,-4.1172,-4.1172,-4.1172,-4.1152,-4.1172,-4.1172,-4.1152,-4.1172,-4.1788,0.0,0.0,0.0,0.0,0.0,0.0,-3.3697,-3.4311,-3.4901,-3.54,-3.5477,-3.4522,-3.1968,-3.2569,-3.2379,-3.0495,0.0,0.0,0.0,0.0,0.0,0.0,0.0,0.0,0.0,0.0,-1.2114,-1.1424,-1.117,0.0,0.0,0.0,0.0,0.0,0.0,-2.7487,-2.9376,-2.7189,0.0,0.0,0.0,0.0,0.0,0.0,0.0,0.0,0.0,0.0,-1.8557,-1.8958,-2.0931,-2.3336,-2.385,-2.7331,-3.1822,-3.5026,-3.7148,-3.8613,-3.9492,-4.043,-4.1172,-4.1172,-3.9414,-3.7148,-3.5176,-3.3962,-3.3092,-3.2391,-3.3453,-3.4775,-3.6168,-3.5936,-3.5818,-3.6613,-3.8814,-4.2577,-4.886,-5.1096,-5.3868,-5.8669,-5.9874,-6.0899,-6.2634,-6.2822,-6.2496,-6.1802,-6.0881,-6.0355,-6.001,-5.9684,-5.9458,-5.9203,-5.8694,-5.8151,-5.7531,-5.7369,-5.5904,-5.3457,-5.2855,-5.0622,-4.7223,-4.6168,-4.4382,-4.2427,-4.219,0.0,0.0,-4.1172,-4.1172,-4.1172,-4.1172,-4.1172,-4.1172,-4.1172,-4.1172,-4.1693,0.0,0.0,0.0,0.0,0.0,-3.3116,-3.3433,-3.4678,-3.5484,-3.5492,-3.554,-3.4684,-3.2598,-3.2553,-3.1974,-3.0343,-2.9934,0.0,0.0,0.0,0.0,0.0,0.0,0.0,0.0,0.0,-1.2512,-1.1473,-1.0852,-1.1974,0.0,0.0,-2.0557,-2.6255,0.0,0.0,0.0,0.0,0.0,0.0,0.0,0.0,0.0,0.0,0.0,0.0,0.0,0.0,0.0,0.0,0.0,-2.227,-2.2611,-2.4614,-2.7723,-3.1929,-3.4873,-3.7207,-3.834,-3.9687,-4.0859,-4.1113,-3.8906,-3.6328,-3.5,-3.3758,-3.2728,-3.2339,-3.3749,-3.5332,-3.6513,-3.5914,-3.5991,-3.8165,-3.8354,-4.0133,-4.5254,-4.7305,-5.0157,-5.5395,-5.6697,-5.8362,-6.1081,-6.2033,-6.2408,-6.2169,-6.1607,-6.0996,-6.0839,-6.0136,-5.9659,-5.9508,-5.8973,-5.8376,-5.7964,-5.7697,-5.66,-5.4487,-5.4086,-5.2215,-4.9043,-4.7701,-4.6191,-4.4386,-4.3042,0.0,0.0,-4.1522,-4.1172,-4.1172,-4.1172,-4.1172,-4.1172,-4.1172,-4.1172,-4.1598,0.0,0.0,0.0,0.0,0.0,0.0,-3.3362,-3.4713,-3.5492,-3.5518,-3.5503,-3.5133,-3.4081,-3.3157,-3.2236,-3.1241,-3.0343,0.0,0.0,0.0,0.0,0.0,0.0,0.0,0.0,0.0,-1.4028,-1.0618,-1.038,-1.106,-1.2812,-1.3779,-1.761,-2.3637,0.0,0.0,0.0,0.0,0.0,0.0,0.0,0.0,0.0,0.0,0.0,0.0,0.0,0.0,0.0,0.0,0.0,0.0,0.0,-2.4086,-2.5124,-2.8451,-3.1879,-3.5117,-3.6855,-3.8594,-4.0117,-4.0957,-3.8906,-3.6328,-3.5,-3.4456,-3.391,-3.2543,-3.4435,-3.6653,-3.7379,-3.7333,-3.7711,-3.9373,-3.9676,-4.143,-4.6426,-4.7129,-4.8786,-5.3231,-5.3783,-5.4888,-5.7675,-6.0397,-6.227,-6.2797,-6.1857,0.0,-6.1969,-6.0914,-6.006,-5.9508,-5.8973,-5.8449,-5.7901,-5.7293,-5.6738,-5.6072,-5.4558,-5.3447,-5.2996,-4.9235,-4.8135,0.0,0.0,0.0,0.0,-4.2242,-4.1172,-4.1172,-4.1172,-4.1172,-4.1172,-4.1172,-4.1172,-4.1443,0.0,0.0,0.0,0.0,0.0,0.0,0.0,-3.6166,-3.7867,-3.5752,-3.61,-3.5876,-3.4148,-3.3157,-3.229,-3.1622,-3.047,0.0,0.0,0.0,0.0,0.0,0.0,0.0,0.0,0.0,-1.771,-1.632,-1.5856,-1.4936,-1.3881,-1.9155,-2.3669,-2.7655,-2.9902,-3.0079,0.0,0.0,0.0,0.0,0.0,0.0,0.0,0.0,0.0,0.0,0.0,0.0,0.0,0.0,0.0,0.0,0.0,0.0,0.0,-2.4072,-2.6929,-3.0656,-3.2673,-3.4359,-3.5972,-3.7294,-3.582,-3.3906,-3.3496,-3.3424,-3.3302,-3.2833,-3.4698,-3.6502,-3.6729,-3.7056,-3.7713,-3.9372,-4.0052,-4.1204,-4.3915,-4.6225,-4.9495,-5.46,-5.9215,-6.2478,-6.3779,-6.3101,-6.2759,-6.3375,-6.2797,-6.1983,-6.1466,-6.109,-6.0695,-6.0069,-5.9508,-5.8752,-5.7901,-5.8065,-5.748,-5.6219,-5.598,-5.5009,-5.2949,-5.0117,-4.7965,0.0,0.0,0.0,0.0,-4.1522,-4.1172,-4.1172,-4.1172,-4.1172,-4.1172,-4.1172,-4.1172,-4.1463,0.0,0.0,0.0,0.0,0.0,0.0,0.0,-3.632,-3.7686,-3.5752,-3.5721,-3.5429,-3.4177,-3.2932,-3.2063,-3.1713,-3.0496,0.0,0.0,0.0,0.0,0.0,0.0,0.0,0.0,-2.1826,-2.0709,-1.9714,-2.0046,-1.9494,-1.818,-2.2487,-2.6159,-2.9278,-3.0993,-3.0789,0.0,0.0,0.0,0.0,0.0,0.0,-2.7221,0.0,0.0,0.0,0.0,0.0,0.0,0.0,0.0,0.0,0.0,0.0,0.0,0.0,-2.3066,-2.5929,-2.9015,-3.1379,-3.3495,-3.4789,-3.3985,-3.2917,-3.3514,-3.348,-3.3465,-3.3982,-3.527,-3.6235,-3.6432,-3.6329,-3.6734,-3.8595,-3.9364,-4.0557,-4.3175,-4.656,-5.0943,-5.6963,-6.2479,-6.5806,-6.5498,-6.4816,-6.4205,-6.3651,-6.3149,-6.2446,-6.1542,-6.1291,-6.0839,-6.0085,-5.9458,-5.873,-5.7901,-5.7785,-5.7201,-5.6219,-5.5361,-5.4178,-5.2791,-4.9355,-4.7421,0.0,0.0,0.0,0.0,-4.1542,-4.1172,-4.1172,-4.1172,-4.1172,-4.1172,-4.1172,-4.1172,-4.1308,0.0,0.0,0.0,0.0,0.0,0.0,0.0,-3.54,-3.5499,-3.5356,-3.4633,-3.4013,-3.3876,-3.2616,-3.1686,-3.1675,0.0,0.0,0.0,0.0,0.0,0.0,0.0,0.0,-2.3318,-2.39,-2.3319,-2.1515,-2.337,-2.4621,-2.5194,-2.4824,-2.6251,-2.9364,-3.066,-3.086,0.0,0.0,0.0,0.0,0.0,0.0,0.0,0.0,0.0,0.0,0.0,0.0,0.0,0.0,0.0,0.0,0.0,0.0,0.0,0.0,0.0,0.0,0.0,-2.9414,-3.2041,-3.3057,-3.3047,-3.3129,-3.4548,-3.4419,0.0,-3.5624,-3.5829,-3.5971,-3.6597,-3.5488,-3.5267,-3.737,-3.8263,-3.9999,-4.4111,-4.8393,-5.3615,-6.0482,-6.4243,-6.565,-6.3831,-6.5524,-6.5808,-6.3841,-6.3149,-6.2571,-6.1969,-6.1466,-6.0622,-5.9464,-5.8902,-5.8328,-5.7801,-5.6757,-5.62,-5.6143,-5.3084,-5.1939,-5.222,-4.7619,-4.6634,0.0,0.0,0.0,0.0,-4.2222,-4.1172,-4.1172,-4.1172,-4.1172,-4.1172,-4.1172,-4.1172,-4.1172,0.0,0.0,0.0,0.0,0.0,0.0,0.0,0.0,0.0,0.0,-3.4662,-3.4434,-3.3087,-3.2182,-3.1729,0.0,0.0,0.0,0.0,0.0,0.0,0.0,0.0,0.0,-2.5693,-2.5823,-2.6844,-2.8835,-3.0238,-3.0913,-3.0878,-3.2653,-3.2875,-3.1938,-3.3575,-3.3696,0.0,0.0,0.0,0.0,0.0,0.0,0.0,0.0,0.0,0.0,-2.9297,-2.9414,0.0,0.0,0.0,0.0,0.0,0.0,0.0,0.0,-2.0441,-2.097,-2.2018,0.0,-2.7792,-2.9243,-3.1343,-3.312,0.0,-3.4845,-3.5748,-3.5009,-3.5341,-3.5971,-3.6597,-3.6355,-3.712,-3.9931,-4.1295,-4.2849,-4.5454,-5.4172,-6.1789,-6.6372,-6.8501,-6.8599,-6.6126,-6.5031,-6.431,-6.3701,-6.3149,-6.2395,-6.1441,-6.0761,-6.0005,-5.8887,-5.755,-5.6944,-5.7167,-5.6573,-5.5998,-5.5566,-5.289,-5.1749,-5.1697,-4.7115,-4.5396,0.0,0.0,0.0,-4.2047,-4.1522,-4.1172,-4.1172,-4.1172,-4.1172,-4.1172,-4.1172,-4.1172,-4.1172,0.0,0.0,0.0,0.0,0.0,0.0,0.0,0.0,0.0,0.0,0.0,0.0,0.0,0.0,0.0,0.0,0.0,0.0,0.0,0.0,0.0,0.0,0.0,-2.6064,-2.7173,-2.8226,-2.998,-3.2512,-3.4821,-3.5765,-3.5672,-3.6962,-3.657,-3.4823,-3.4868,-3.4414,0.0,0.0,0.0,0.0,-2.9778,0.0,0.0,0.0,0.0,0.0,-2.8729,-2.9278,0.0,-2.9629,-2.957,-2.9254,0.0,0.0,0.0,0.0,-2.1355,-2.0994,-2.1852,-2.4024,-2.6227,-2.7073,-2.971,-3.2322,-3.2964,-3.4074,-3.4971,-3.4885,-3.5222,-3.5663,-3.6024,-3.665,-3.7872,-3.9965,-4.2159,-4.5404,-5.1101,-5.8099,-6.4251,-6.8857,-6.9445,-6.8983,-6.7338,-6.5923,-6.4768,-6.3686,-6.2984,-6.2045,-6.1185,-6.0082,-5.9078,-5.8027,-5.5731,-5.5189,-5.6666,-5.4633,-5.3735,-5.3618,-4.9956,-4.8246,-4.8449,-4.4837,-4.3136,0.0,0.0,0.0,-4.1172,-4.1172,-4.1172,-4.1172,-4.1172,-4.1172,-4.1172,-4.1172,-4.1172,-4.1172,0.0,0.0,0.0,0.0,0.0,0.0,0.0,0.0,0.0,0.0,0.0,0.0,0.0,0.0,0.0,0.0,0.0,0.0,0.0,0.0,0.0,0.0,0.0,-2.5393,-2.7919,-3.0509,-3.2871,-3.5063,-3.831,-3.9895,-3.986,-3.9677,-3.8658,-3.7014,-3.5503,-3.4559,0.0,0.0,-3.245,-3.1296,-3.119,0.0,0.0,0.0,0.0,0.0,0.0,0.0,0.0,-2.9883,-2.9766,-2.9485,-2.8028,0.0,0.0,0.0,0.0,0.0,-2.3186,-2.5397,-2.7105,-2.6587,-2.9057,-3.1903,-3.2934,-3.3508,-3.3982,-3.4825,-3.5134,-3.5421,-3.558,-3.6974,-3.8597,-4.0178,-4.3451,-4.8862,-5.8126,-6.1135,-6.406,-6.8736,-6.8706,-6.7943,-6.7094,-6.6628,-6.5528,-6.3585,-6.2545,-6.1633,-6.0862,-5.9085,-5.7548,-5.6273,-5.3408,-5.2828,-5.4963,-5.1898,-5.0524,-5.0948,-4.6286,-4.4285,-4.4663,-4.2222,-4.1172,-4.1172,0.0,0.0,-4.1172,-4.1172,-4.1172,-4.1172,-4.1172,-4.1211,-4.125,-4.1191,-4.1211,-4.125,0.0,0.0,0.0,0.0,0.0,0.0,0.0,0.0,0.0,0.0,0.0,0.0,0.0,0.0,0.0,0.0,0.0,0.0,0.0,0.0,0.0,-2.5487,-2.4068,-2.4605,-2.7368,-3.2047,-3.6225,-3.9682,-4.2466,-4.3892,-4.4133,-4.3056,-4.0423,-3.6525,-3.6868,-3.6593,-3.5974,-3.6505,-3.5152,-3.2597,-3.1955,0.0,0.0,0.0,0.0,0.0,0.0,0.0,0.0,-3.0703,-3.0684,-3.018,-2.7155,0.0,0.0,0.0,0.0,0.0,-2.3578,-2.8095,-3.2027,-2.9252,-3.1676,-3.4401,-3.379,-3.5244,-3.6191,-3.3871,-3.4406,-3.5772,-3.72,-3.8619,-4.1153,-4.5875,-5.0211,-5.5471,-6.2782,-6.3816,-6.4526,-6.6254,-6.7307,-6.6658,-6.398,-6.3955,-6.3577,-6.2395,-6.1743,-6.0605,-5.9178,-5.6384,-5.4324,-5.312,-5.0215,-4.8815,-4.9171,-4.8646,-4.843,-4.8498,-4.5535,-4.4117,-4.4201,-4.2082,-4.1172,-4.1172,0.0,-4.1172,-4.1172,-4.1172,-4.1172,-4.1172,-4.1172,-4.1387,-4.166,-4.1308,-4.1406,-4.166,0.0,0.0,0.0,0.0,0.0,0.0,0.0,0.0,0.0,0.0,0.0,0.0,0.0,0.0,0.0,0.0,0.0,0.0,0.0,0.0,0.0,-2.7742,-2.8228,-2.9103,-3.0399,-3.3746,-3.8263,-4.3914,-4.5746,-4.6789,-4.692,-4.4773,-4.2111,-3.9295,-3.9614,-3.907,-3.7732,-3.7733,-3.6141,-3.3665,0.0,0.0,0.0,0.0,0.0,0.0,0.0,0.0,0.0,0.0,-3.0276,-2.9287,-2.7723,0.0,0.0,0.0,0.0,0.0,-2.4715,-2.8692,-3.269,-3.2934,-3.5746,-3.815,-3.7,-3.7725,-3.8055,-3.6362,-3.704,-3.8096,-3.9184,-4.184,-4.5655,-5.1126,-5.4787,-5.8149,-6.1878,-6.2248,-6.2687,-6.4055,-6.387,-6.3359,-6.2483,-6.2567,-6.2255,-6.123,-6.0629,0.0,-5.682,-5.4551,-5.2387,-5.0457,-4.7506,-4.5879,-4.5814,-4.4757,-4.4888,-4.575,-4.3615,-4.2483,-4.2483,-4.1618,-4.1308,-4.1504,0.0,-4.1308,-4.1484,-4.1269,-4.1172,-4.1172,-4.1172,-4.1426,-4.1777,-4.1582,-4.1484,-4.1426,0.0,0.0,0.0,0.0,0.0,0.0,0.0,0.0,0.0,0.0,0.0,0.0,0.0,0.0,0.0,0.0,0.0,0.0,0.0,0.0,-2.9327,-2.9581,-3.1609,-3.2838,-3.3132,-3.6089,-4.0169,-4.5366,-4.8431,-4.9692,-4.9167,-4.6507,-4.4094,-4.2071,-4.2161,-4.1424,-3.996,-3.9251,-3.7565,-3.523,0.0,0.0,0.0,0.0,0.0,0.0,0.0,0.0,0.0,0.0,0.0,0.0,0.0,0.0,0.0,-2.3544,-2.3885,-2.447,-2.6127,-2.9517,-3.3276,-3.5972,-3.8649,-4.0571,-4.0144,-4.0135,-3.9979,-3.9633,-4.0434,-4.1277,-4.1558,-4.5448,-5.0351,-5.5235,-5.8052,-6.0117,-6.1477,-6.1318,-6.1248,-6.2017,-6.0811,-6.0105,-6.04,-6.0267,-5.9786,-5.9142,-5.8171,0.0,-5.4171,-5.2024,-4.9743,-4.7648,-4.4852,-4.3392,-4.3359,-4.1907,-4.1907,-4.3359,-4.1907,-4.1172,-4.1172,-4.1172,-4.1348,-4.1641,-4.1308,-4.1348,-4.1621,-4.1308,-4.1172,-4.1172,-4.1172,-4.1367,-4.166,-4.1758,-4.1543,-4.1172,0.0,0.0,0.0,0.0,0.0,0.0,0.0,0.0,0.0,0.0,0.0,0.0,0.0,0.0,0.0,0.0,0.0,0.0,0.0,0.0,-2.9996,-3.009,-3.1173,-3.2254,-3.3081,-3.943,-4.2333,-4.1413,-5.0198,-5.3307,-5.0994,-4.9048,-4.6341,-4.3107,-4.3281,-4.3361,-4.3336,-4.2317,-4.0468,-3.8088,-3.5972,0.0,0.0,0.0,0.0,0.0,0.0,0.0,0.0,0.0,0.0,0.0,0.0,0.0,-2.3606,-2.3668,-2.4711,-2.6201,-2.7776,-3.2058,-3.6346,-3.7361,-3.8501,-3.9813,-4.1786,-4.2169,-4.2189,-4.2372,-4.3578,-4.4389,-4.3983,-4.9014,-5.4348,-5.7661,-6.028,-6.263,-6.5098,-6.3804,-6.1828,-5.9749,-5.9059,-5.791,-5.5978,-5.4941,-5.4806,-5.5621,0.0,0.0,-5.1768,-4.7826,-4.5078,-4.4482,-4.241,-4.1366,-4.1463,-4.1327,-4.1327,-4.1463,-4.1327,-4.1172,-4.1172,-4.1172,-4.1191,-4.1211,-4.1191,-4.1191,-4.1211,-4.1191,-4.1172,-4.1172,-4.1172,-4.1191,-4.1269,-4.166,-4.1543,-4.1172,0.0,0.0,0.0,0.0,0.0,0.0,0.0,0.0,0.0,0.0,0.0,0.0,0.0,0.0,0.0,0.0,0.0,0.0,0.0,-3.146,-3.1716,-3.1716,-3.2526,-3.3853,-3.5894,-4.1962,-4.7308,-5.1592,-5.45,-5.4968,-5.3034,-5.1211,-4.9138,-4.7004,-4.623,-4.5108,-4.382,-4.3211,-4.1031,-3.7855,-3.7038,-3.5353,0.0,0.0,0.0,0.0,0.0,0.0,0.0,0.0,-2.9148,-2.6927,0.0,0.0,-2.3867,-2.4747,-2.6265,-2.7568,-2.8246,-3.2129,-3.6347,-3.7898,-3.9636,-4.1883,-4.6021,-4.69,-4.7133,-4.787,-4.8499,-4.8313,-4.6797,-4.8988,-5.1629,-5.349,-5.7106,-6.0055,-6.1584,-6.1169,-6.0243,-5.9087,-5.7214,-5.553,-5.4042,-5.3153,-5.242,0.0,0.0,0.0,-4.7503,-4.5642,-4.3705,-4.1947,-4.0946,-4.0371,-4.0371,-4.0371,-4.0371,-4.0391,-4.0918,-4.1172,-4.1172,-4.1172,-4.1308,-4.1543,-4.1289,-4.1328,-4.1543,-4.1289,-4.1172,-4.1191,-4.1465,-4.1406,-4.123,-4.1641,-4.1543,-4.1172,0.0,0.0,0.0,0.0,0.0,0.0,0.0,0.0,0.0,0.0,0.0,0.0,0.0,0.0,0.0,0.0,0.0,0.0,-3.1746,-3.2153,-3.2462,-3.2554,-3.3267,-3.473,-3.7169,-4.2009,-4.8459,-5.6586,-5.5889,-5.5249,-5.4668,-5.3213,-5.1888,-5.0584,-4.9237,-4.7205,-4.4792,-4.3882,-4.1709,-3.8718,-3.7878,-3.6918,0.0,0.0,0.0,0.0,0.0,0.0,0.0,0.0,0.0,0.0,0.0,0.0,0.0,0.0,-2.7572,-2.8545,-2.9039,-3.1653,-3.4819,-3.6942,-3.8912,-4.1548,-4.692,-4.9035,-5.0469,-5.2466,-5.2216,-5.0996,-4.89,-4.9067,-4.9629,-5.0494,-5.4742,-5.8047,-5.8236,-5.8888,-5.8507,-5.6542,-5.4439,-5.2555,-5.0768,-4.9773,0.0,0.0,0.0,0.0,0.0,-4.4268,-4.3009,-4.0527,-3.998,-3.9668,-3.9668,-3.9668,-3.9668,-3.9687,-4.041,-4.084,-4.0976,-4.0976,-4.1211,-4.1582,-4.1308,-4.0996,-4.0578,-4.0957,-4.1172,-4.1211,-4.1484,-4.1426,-4.1211,-4.1504,-4.1426,-4.1172,0.0,0.0,0.0,0.0,0.0,0.0,0.0,0.0,0.0,0.0,0.0,0.0,0.0,0.0,0.0,0.0,0.0,0.0,-3.1311,-3.1632,-3.2031,-3.2122,-3.303,-3.4405,-3.6341,-3.9183,-4.4841,-5.3471,-5.3479,-5.4233,-5.5723,-5.5142,-5.4424,-5.3479,-5.2118,-4.9765,-4.6718,-4.4422,-4.2738,-4.1392,-3.8613,-3.7477,-3.7346,0.0,0.0,0.0,0.0,0.0,0.0,0.0,-2.8683,0.0,0.0,0.0,0.0,0.0,-2.8408,-2.8783,-3.0392,-3.0898,-3.1544,-3.4461,-3.5869,-3.804,-4.3685,-4.7766,-5.1523,-5.5415,-5.4034,-5.1706,-5.0338,-4.9842,-4.96,-4.9874,-5.4395,-5.7467,-5.6159,-5.7778,-5.7228,-5.1799,-5.0722,-4.8929,-4.5307,0.0,0.0,0.0,0.0,0.0,0.0,-4.3635,-4.2529,-4.0508,-3.9648,-3.9199,-3.9199,-3.918,-3.918,-3.9199,-3.9648,-4.0098,-4.0527,-4.0508,-4.0762,-4.1172,-4.1172,-3.9864,-3.8054,-4.0197,-4.1172,-4.1172,-4.1172,-4.1172,-4.1172,-4.1172,-4.1172,-4.1172,0.0,0.0,0.0,0.0,0.0,0.0,0.0,0.0,0.0,0.0,0.0,0.0,0.0,0.0,0.0,0.0,0.0,0.0,-3.2525,-3.3019,-3.3341,-3.3341,-3.4237,-3.5429,-3.697,-4.1029,-4.5727,-5.1262,-5.1124,-5.2688,-5.5719,-5.5166,-5.4941,-5.4937,-5.2202,-5.0182,-4.8569,-4.5024,-4.2738,-4.1392,-3.9725,-3.9025,-3.8792,0.0,0.0,0.0,0.0,0.0,0.0,0.0,0.0,0.0,0.0,0.0,0.0,-2.7811,-2.7572,-2.7073,-2.8664,-2.9786,-3.1323,-3.4799,-3.6687,-3.9163,-4.4051,-4.7028,-5.0239,-5.5176,-5.4499,-5.2792,-5.2113,-5.1478,-5.1171,-5.1131,-5.5323,-5.7991,-5.6107,-5.6722,-5.5727,-5.1099,-4.8586,-4.6365,0.0,0.0,0.0,0.0,0.0,0.0,0.0,-4.2926,-4.2385,-4.0098,-3.9219,-3.8613,-3.8301,-3.8008,-3.7871,-3.7871,-3.6788,-3.7821,-4.0508,-3.8611,-3.8217,-3.8864,-3.6958,-3.604,-3.5621,-3.6281,-3.6602,-3.6602,-3.6602,-3.7578,-3.8845,-3.8568,-3.9618,-4.1133,0.0,0.0,0.0,0.0,0.0,0.0,0.0,0.0,0.0,0.0,-3.0022,0.0,0.0,0.0,0.0,0.0,0.0,0.0,0.0,-3.3395,-3.3533,-3.3595,-3.4445,-3.5612,-3.7364,-4.043,-4.3787,-4.7458,-5.0523,-5.3587,-5.6631,-5.6275,-5.6024,-5.5891,-5.3155,-5.0785,-4.8625,-4.5273,-4.2873,-4.1105,-4.0082,-3.9486,-3.8876,0.0,0.0,0.0,0.0,0.0,0.0,0.0,0.0,0.0,0.0,0.0,0.0,-2.7955,-2.7228,-2.6349,-2.7931,-2.9288,-3.0914,-3.4498,-3.6628,-3.9254,-4.3859,-4.8383,-5.2373,-5.5795,-5.5746,-5.4956,-5.4207,-5.3186,-5.2444,-5.2397,-5.5952,-5.7822,-5.4982,-5.5601,-5.4456,-4.9384,-4.6888,0.0,0.0,0.0,0.0,0.0,0.0,0.0,0.0,-4.3189,-4.3005,-4.0053,-3.8711,-3.7949,-3.7676,-3.7266,-3.7051,-3.7051,-3.555,-3.6036,-3.8235,-3.6282,-3.5729,-3.6131,-3.3832,-3.3548,-3.4635,-3.3532,-3.3742,-3.4635,-3.4503,-3.5737,-3.7643,-3.7409,-3.8812,-4.0644,0.0,0.0,0.0,0.0,0.0,0.0,0.0,0.0,0.0,0.0,-3.0498,0.0,0.0,0.0,0.0,0.0,0.0,0.0,0.0,0.0,-3.2959,-3.3157,-3.3941,-3.5411,-3.7526,-3.8477,-4.0419,-4.3416,-5.0851,-5.5575,-5.7751,-5.773,-5.7248,-5.6288,-5.4456,-5.1424,-4.7681,-4.5488,-4.309,-4.0601,-4.0074,-3.9259,-3.8262,-3.7678,0.0,0.0,0.0,0.0,0.0,0.0,0.0,0.0,0.0,0.0,-2.6248,-2.7572,-2.6823,-2.5879,-2.7521,-2.8605,-3.0212,-3.3762,-3.6191,-3.8912,-4.3413,-5.0411,-5.6174,-5.6667,-5.7589,-5.7847,-5.6541,-5.5243,-5.4273,-5.4023,-5.6677,-5.7461,-5.3373,-5.4301,-5.3256,0.0,0.0,0.0,0.0,0.0,0.0,0.0,0.0,0.0,0.0,-4.3888,-4.3687,-3.9975,-3.8223,-3.7344,-3.7305,-3.6836,-3.6621,0.0,-3.4981,-3.4324,-3.4683,-3.3331,-3.2789,-3.3009,-3.1029,-3.1718,-3.3856,-3.1304,-3.1734,-3.405,-3.3741,-3.4885,-3.6621,-3.6952,-3.8149,-3.962,0.0,0.0,0.0,0.0,0.0,0.0,0.0,0.0,0.0,0.0,0.0,0.0,0.0,0.0,0.0,0.0,0.0,0.0,0.0,0.0,-3.2259,-3.362,-3.5111,-3.6496,-3.7851,-3.996,-4.244,-4.5138,-4.842,-5.1894,-5.5645,-5.599,-5.5926,-5.5434,-5.4174,-5.1808,-4.8531,-4.6109,-4.3931,-4.1956,-4.1216,-4.0049,-3.8611,-3.7379,-3.5747,0.0,0.0,0.0,0.0,0.0,0.0,0.0,-2.9212,-2.7586,-2.5782,-2.4841,-2.345,-2.2566,-2.468,-2.5696,-2.7531,-3.2744,-3.772,-4.1817,-4.3455,-4.9303,-5.4508,-5.5067,-5.8031,-6.0355,-6.0114,-6.0129,-6.0193,-6.0031,-5.9905,-5.8812,-5.5552,-5.3948,-5.1517,0.0,0.0,0.0,0.0,0.0,0.0,0.0,0.0,0.0,-4.0327,-4.2269,-4.2126,-3.9504,-3.834,-3.7637,-3.7305,-3.6543,-3.6152,0.0,-3.3109,-3.1599,-3.1683,-3.0229,-2.8951,-2.7988,-2.8011,-2.8288,-2.8874,-2.8274,-2.8288,-2.8903,-2.9086,-3.0277,-3.211,-3.3694,-3.5539,-3.7644,0.0,0.0,0.0,0.0,0.0,0.0,0.0,0.0,0.0,0.0,0.0,0.0,0.0,0.0,0.0,0.0,0.0,0.0,0.0,0.0,-3.2512,-3.4463,-3.6084,-3.7343,-3.8252,-4.0319,-4.2694,-4.5216,-4.8426,-5.1702,-5.4988,-5.5315,-5.5396,-5.5132,-5.386,-5.1536,-4.8351,-4.6554,-4.4388,-4.2204,-4.1569,-4.0062,-3.8152,-3.7058,-3.5264,-3.3295,-3.2514,0.0,0.0,0.0,0.0,0.0,0.0,0.0,-2.5708,-2.4275,-2.2624,-2.1815,-2.372,-2.4996,-2.7416,-3.3423,-3.8896,-4.3214,-4.4967,-4.9575,-5.4038,-5.5895,-5.906,-6.1567,-6.1567,-6.1818,-6.1994,-6.1994,-6.0788,-5.8765,-5.6249,-5.3753,-5.0756,0.0,0.0,0.0,0.0,0.0,0.0,0.0,0.0,-4.2266,-4.0053,-4.1334,-4.111,-3.9053,-3.7871,-3.7226,-3.6992,-3.6348,-3.6016,-3.6016,-3.2368,-2.9601,-2.7744,-2.7372,-2.6892,-2.64,-2.6573,-2.6881,-2.7241,-2.6961,-2.7014,-2.7268,-2.7281,-2.8445,-3.0499,-3.2376,-3.4436,-3.6449,0.0,0.0,0.0,0.0,0.0,0.0,0.0,0.0,0.0,0.0,0.0,0.0,0.0,0.0,0.0,0.0,0.0,0.0,0.0,0.0,0.0,-3.5451,-3.6854,-3.7927,-3.8743,-4.0305,-4.2356,-4.4813,-4.9066,-5.2294,-5.47,-5.4869,-5.4981,-5.4857,-5.3245,-5.0773,-4.7586,-4.6439,-4.444,-4.2152,-4.1663,-3.9928,-3.7542,-3.7088,-3.4966,-3.2207,-3.2211,-3.193,-3.1469,-3.1466,0.0,0.0,0.0,0.0,-2.5274,-2.391,-2.2641,-2.1916,-2.3335,-2.5368,-2.8315,-3.4284,-3.9187,-4.3458,-4.6253,-5.0161,-5.4278,-5.7054,-6.0016,-6.2044,-6.2119,-6.2144,-6.2144,-6.2144,-6.0165,-5.7956,-5.6091,-5.2992,0.0,0.0,0.0,0.0,0.0,0.0,0.0,0.0,0.0,-4.1392,-3.97,-4.0248,-3.9902,-3.8387,-3.707,-3.6445,-3.6445,-3.6094,-3.5879,-3.5801,-3.2018,-2.8264,-2.4649,-2.5144,-2.5651,-2.6159,-2.5959,-2.6319,-2.7001,-2.652,-2.6627,-2.7094,-2.6894,-2.8039,-3.0009,-3.2087,-3.4008,-3.5849,0.0,0.0,0.0,0.0,0.0,0.0,0.0,0.0,0.0,0.0,-2.8518,-2.8358,0.0,0.0,0.0,0.0,0.0,0.0,-2.93,0.0,0.0,-3.6157,-3.7333,-3.8414,-3.9473,-4.0823,-4.2625,-4.4938,-4.8255,-5.1051,-5.3305,-5.3874,-5.4059,-5.3679,-5.1911,-4.9347,-4.6473,-4.5098,-4.3598,-4.2208,-4.2066,-4.0314,-3.7533,-3.7506,-3.5227,-3.2235,-3.221,-3.1913,-3.1455,-3.1479,-3.0263,0.0,0.0,0.0,-2.3589,-2.1977,-2.1531,-2.18,-2.243,0.0,-2.9374,0.0,-3.7477,-4.2226,0.0,0.0,-5.4949,0.0,-5.9722,-6.2144,-6.2621,-6.2722,-6.2722,-6.2722,-5.8735,-5.5699,-5.5378,0.0,0.0,0.0,0.0,0.0,0.0,0.0,0.0,0.0,-3.983,-3.9239,-3.8223,-3.7665,-3.7193,-3.6934,-3.6035,-3.5566,-3.5566,-3.5508,-3.5273,-3.4883,-3.1356,-2.7906,-2.4636,-2.4716,-2.4943,-2.5264,-2.5478,-2.5785,-2.6119,-2.6052,-2.6213,-2.6533,-2.6734,-2.7899,-2.9694,-3.1991,-3.4008,-3.5812,0.0,0.0,0.0,0.0,0.0,0.0,0.0,0.0,0.0,0.0,0.0,-2.7252,0.0,0.0,0.0,-2.6729,-2.5624,-2.6326,-2.9547,-3.2211,-3.463,-3.6943,-3.7668,-3.798,-3.8032,-4.0338,-4.1736,-4.1869,-4.6403,-4.9396,-5.0809,-5.2163,-5.2994,-5.3461,-5.1789,-4.9831,-4.7815,-4.644,-4.5048,-4.363,-4.1941,-3.9646,-3.7133,-3.6469,-3.3841,-3.0475,-3.0705,-2.9952,-2.89,-2.9792,-2.8737,-2.6883,-2.6282,0.0,0.0,0.0,-2.1474,-2.1777,-2.2472,-2.5082,-2.8408,0.0,-3.6326,-4.1534,-4.616,-5.0636,-5.4549,-5.7409,-5.9359,-6.1065,-6.2546,-6.2822,-6.237,-6.0685,-5.749,-5.455,0.0,0.0,0.0,0.0,0.0,0.0,0.0,0.0,0.0,0.0,-3.981,-3.8476,-3.7617,-3.6777,-3.6074,-3.5586,-3.498,-3.4648,-3.4648,-3.4648,-3.3709,-3.1559,-3.029,-2.7768,-2.4396,-2.4556,-2.4796,-2.509,-2.5211,-2.5438,-2.5705,-2.5705,-2.5785,-2.6061,-2.7255,-2.8125,-2.9245,-3.2743,-3.4574,-3.5521,0.0,0.0,0.0,0.0,0.0,0.0,0.0,0.0,0.0,0.0,0.0,0.0,0.0,0.0,0.0,0.0,-2.4519,-2.5964,-2.9787,-3.1309,-3.3545,-3.644,-3.686,-3.6814,-3.6333,-3.8728,-3.9601,-3.8832,-4.4121,-4.704,-4.7995,-5.0186,-5.172,-5.248,-5.1389,-5.0145,-4.8539,-4.7197,-4.5767,-4.4266,-4.1217,-3.8704,-3.6564,-3.4728,-3.1871,-2.881,-2.88,-2.771,-2.6709,-2.83,-2.7347,-2.5456,-2.5875,-2.4623,0.0,0.0,0.0,-2.1737,-2.2619,0.0,-2.6601,-3.0222,-3.4939,-4.0137,0.0,0.0,-5.3606,0.0,-5.8704,-5.9734,-6.1843,-6.232,-6.157,-5.8924,-5.6405,0.0,0.0,0.0,0.0,0.0,0.0,0.0,0.0,0.0,0.0,0.0,-4.0177,-3.8144,-3.7187,-3.5684,-3.449,-3.3723,-3.3187,-3.3046,-3.3046,-3.3014,-3.1724,-2.9104,-2.8818,-2.707,-2.4102,-2.4315,-2.4823,-2.5469,-2.5634,-2.5868,-2.6143,-2.657,-2.6914,-2.7136,-2.8627,-2.9359,-3.0283,-3.3587,-3.523,-3.5887,0.0,0.0,0.0,0.0,0.0,0.0,0.0,0.0,0.0,0.0,0.0,-2.3166,-2.3148,-2.2326,-2.1893,-2.2258,-2.3545,-2.5843,-2.9497,-3.1084,-3.249,-3.3943,-3.4419,0.0,-3.5398,-3.5485,-3.6179,-3.7321,-4.126,-4.3751,-4.5107,-4.8281,-4.975,-4.9849,-5.0167,-4.9108,-4.7094,-4.5872,-4.4427,-4.2836,-3.9795,-3.7652,-3.5916,-3.2436,-2.9672,-2.7712,-2.6553,-2.6113,-2.6265,-2.7867,-2.6311,-2.3946,-2.5529,-2.3822,-2.1262,0.0,0.0,0.0,-2.2687,-2.3225,0.0,-2.8551,-3.2544,-3.7115,0.0,0.0,-5.2236,-5.6202,-5.7575,-5.8504,-6.0104,-6.0964,-6.0576,-5.8324,0.0,0.0,0.0,0.0,0.0,0.0,0.0,0.0,0.0,0.0,0.0,0.0,-4.0177,-3.8027,-3.6777,-3.3573,-3.1556,-3.1156,-3.0356,-2.9937,-2.9937,-3.0194,-2.9854,-2.859,-2.6997,-2.5418,-2.3794,-2.3808,-2.479,-2.6328,-2.7108,-2.7569,-2.7866,-2.9727,-3.0649,-3.0941,-3.0941,-3.2278,-3.3928,-3.463,-3.6122,-3.7845,0.0,0.0,0.0,0.0,0.0,0.0,0.0,0.0,0.0,0.0,0.0,0.0,0.0,-2.1577,-2.0877,-2.2185,-2.393,-2.625,-2.9194,-3.057,-3.1997,-3.3703,-3.4206,-3.4229,-3.3957,-3.4847,-3.5046,-3.4538,-3.8359,-4.0514,-4.1043,-4.3623,-4.4891,-4.505,-4.757,-4.8311,-4.7543,-4.5822,-4.4516,-4.3347,-3.9157,-3.6071,-3.359,-3.0293,-2.7696,-2.5949,-2.5803,-2.5306,-2.4922,-2.6377,-2.4828,-2.261,-2.3991,-2.2952,-2.1109,-2.1389,-2.2373,-2.3273,-2.2576,0.0,0.0,-2.6725,-2.9693,-3.3357,-3.9044,-4.336,-4.7394,-5.2236,-5.4229,-5.5224,-5.6148,-5.7301,-5.7411,0.0,0.0,0.0,0.0,0.0,0.0,0.0,0.0,0.0,0.0,0.0,0.0,0.0,0.0,-3.8786,-3.5107,-3.2808,-3.071,-2.8545,-2.7997,-2.7723,-2.7723,-2.834,-2.7881,-2.6315,-2.6073,-2.5135,-2.3487,-2.4904,-2.5819,-2.6504,-2.9241,-2.9715,-2.871,-2.9395,-2.9757,-2.9872,-3.1131,-3.2279,-3.3242,-3.4957,-3.647,-3.7617,0.0,0.0,0.0,0.0,0.0,0.0,0.0,0.0,-2.5625,-2.5332,0.0,0.0,0.0,0.0,-1.9983,-2.1913,-2.3353,-2.5133,-2.738,-2.8901,-3.0319,-3.1789,-3.2706,-3.2987,-3.2416,-3.2809,-3.2447,-3.1552,-3.4247,-3.5527,-3.5703,-3.816,-3.9382,-3.9545,-4.2037,-4.3943,-4.5283,-4.4255,-4.3026,-4.1529,-3.6793,-3.3721,-3.1625,-2.7822,-2.5965,-2.5205,-2.5214,-2.4999,-2.5125,-2.6361,-2.4796,-2.2624,-2.461,-2.3758,-2.2201,-2.2619,-2.3153,-2.3365,-2.2525,-2.2391,-2.2795,-2.4581,-2.6997,-2.9867,-3.4001,0.0,-4.315,-4.8472,-5.0425,-5.1718,-5.3219,-5.2488,0.0,0.0,0.0,0.0,0.0,0.0,0.0,0.0,0.0,0.0,0.0,0.0,0.0,0.0,0.0,0.0,-3.4244,-3.1962,-2.9535,-2.676,-2.648,-2.6979,-2.8096,-2.8209,-2.7694,-2.6535,-2.6722,-2.6118,-2.4933,-2.6345,-2.718,-2.7749,-3.0432,-3.0927,-3.0055,-3.0597,-3.0798,-3.0828,-3.2326,-3.2892,-3.3211,-3.5317,-3.6484,-3.7226,0.0,0.0,0.0,0.0,0.0,0.0,0.0,0.0,-2.5645,-2.5664,0.0,0.0,0.0,0.0,0.0,-2.084,-2.1391,-2.2291,-2.4138,-2.6092,-2.7416,-2.7714,-2.9695,-3.0762,-3.0762,-2.9157,-2.8289,-2.8289,-2.8679,-2.9125,-2.9542,-3.1941,-3.325,-3.3535,-3.3535,-3.5886,-3.9915,-4.0642,-3.9546,-3.6933,-3.2513,-3.0701,-2.9987,-2.5051,-2.4394,-2.5823,-2.4772,-2.5454,-2.6884,-2.8091,-2.6399,-2.4224,-2.7331,-2.6355,-2.4149,-2.4829,-2.3639,-2.2232,0.0,0.0,0.0,-2.2387,0.0,0.0,-2.927,0.0,-3.9475,-4.4923,-4.6585,-4.8214,0.0,0.0,0.0,0.0,0.0,0.0,0.0,0.0,0.0,0.0,0.0,0.0,0.0,0.0,0.0,0.0,0.0,-3.9779,-3.4244,-3.0976,-2.824,-2.605,-2.6001,-2.7589,-3.0762,-2.9831,-2.9457,-2.9457,-2.8578,-2.8163,-2.8163,-2.8279,-2.9008,-3.0212,-3.0701,-3.1186,-3.2059,-3.3822,-3.4394,-3.4062,-3.4473,-3.4394,-3.4219,-3.5508,-3.6269,-3.6855,0.0,0.0,0.0,0.0,0.0,-2.6723,-2.6231,-2.5937,-2.5544,0.0,0.0,0.0,-2.293,-2.1566,-2.0387,-1.9583,-2.0841,-2.2055,-2.3114,-2.4629,-2.588,-2.6525,-2.7022,-2.7331,-2.7331,-2.6953,-2.6712,-2.6712,-2.7051,-2.7424,-2.7798,-2.8731,-2.8682,-2.7522,-2.7522,-2.8341,-2.9978,-3.2118,-3.1556,-2.9012,-2.6389,-2.5152,-2.4633,-2.1925,-2.3051,-2.6122,-2.5831,-2.7226,-2.9136,-2.8954,-2.7865,-2.6501,-2.5839,-2.4844,-2.3941,-2.3364,-2.3625,-2.3941,-2.316,0.0,0.0,0.0,0.0,0.0,0.0,0.0,0.0,-3.9983,0.0,0.0,0.0,0.0,0.0,0.0,0.0,0.0,0.0,0.0,0.0,0.0,0.0,0.0,0.0,0.0,0.0,0.0,-4.3716,-3.9435,-3.4244,-3.0204,-2.7582,-2.643,-2.6381,-2.6756,-2.7331,-2.7293,-2.7283,-2.73,-2.7549,-2.7637,-2.7767,-2.906,-2.9903,-3.032,-3.1302,-3.1875,-3.2123,-3.2932,-3.3066,-3.2734,-3.3164,-3.3437,-3.3711,-3.4707,-3.5742,-3.6816,0.0,0.0,0.0,0.0,0.0,-2.7689,-2.7198,-2.6606,-2.6145,0.0,0.0,0.0,-2.2879,-2.1442,-2.0399,-1.9466,-2.0294,-2.116,-2.1804,-2.3261,-2.4436,-2.4992,-2.5619,-2.5708,-2.4928,-2.4992,-2.4624,-2.3963,-2.4222,-2.4512,-2.4863,-2.5184,-2.4451,-2.2791,-2.291,-2.2164,-2.1066,-2.2563,-2.3621,-2.4147,-2.2029,-2.1519,-2.1817,-2.0862,-2.3039,-2.671,-2.748,-2.9458,-3.1369,-3.0672,-2.9581,-2.8035,-2.5454,-2.4487,-2.4276,-2.3868,-2.3804,-2.3941,-2.316,-2.2953,-2.2948,-2.2205,0.0,0.0,-2.4578,-2.771,0.0,0.0,0.0,0.0,0.0,0.0,0.0,0.0,0.0,0.0,0.0,0.0,0.0,0.0,0.0,0.0,0.0,-5.4794,-5.0699,-4.4629,-4.2364,-3.8786,-3.3258,-2.9671,-2.8103,-2.8834,-2.8236,-2.8289,-2.9305,-2.9022,-2.8676,-2.8516,-2.9155,-2.9527,-2.9687,-3.0678,-3.0978,-3.1102,-3.188,-3.1973,-3.166,-3.209,-3.2109,-3.1934,-3.2363,-3.2676,-3.3027,-3.4062,-3.5273,-3.6543,0.0,0.0,-2.9928,-3.0414,-2.9324,-2.8368,-2.8334,-2.7542,-2.6948,0.0,-2.5959,-2.436,-2.2221,-2.0582,-1.9861,-2.0187,-2.0,-1.996,-2.0381,-2.1737,-2.2602,-2.2783,-2.4117,-2.4193,-2.2624,-2.2879,-2.2284,-2.0724,-2.0943,-2.1256,-2.1563,-2.1817,-2.113,-1.9581,0.0,0.0,-1.4078,-1.3906,-1.6976,-2.1659,-1.8908,-1.9066,-2.0916,-2.137,-2.4097,-2.7706,-2.96,-3.157,-3.332,-3.2351,-3.0736,-2.8494,-2.5603,-2.4595,-2.4583,-2.511,-2.4078,-2.2819,-2.2859,-2.3086,-2.2946,-2.1591,-2.2716,0.0,-2.3552,-2.7031,-3.1098,0.0,0.0,0.0,0.0,0.0,0.0,0.0,0.0,0.0,0.0,0.0,0.0,0.0,0.0,0.0,-5.425,-5.103,-4.6478,-4.0008,-3.976,-3.7541,-3.2169,-2.963,-2.9509,-3.2031,-3.0691,-3.1111,-3.3654,-3.2535,-3.1836,-3.1445,-3.1894,-3.2285,-3.2637,-3.2266,-3.209,-3.209,-3.2051,-3.1601,-3.0918,-3.1289,-3.1445,-3.1484,-3.1934,-3.2129,-3.2324,-3.3594,-3.4902,-3.6211,0.0,-3.1447,-3.0999,-3.1089,-3.0285,-2.9415,-2.8733,-2.7723,-2.6833,-2.6295,-2.4994,-2.3536,-2.2135,-2.1671,-2.1099,-2.0322,-2.0187,-1.9672,-1.8613,-1.8875,-1.8596,-1.744,-1.7686,-1.7674,-1.7418,-1.8732,-1.9394,-1.9,-2.0449,-2.1256,-2.155,-2.1617,-2.0733,-1.9184,-1.9172,-1.7292,-1.4164,-1.4128,-1.6774,-2.067,-1.6084,-1.7022,-2.1101,-2.2391,-2.5258,-2.9044,-3.0841,-3.2285,-3.3184,-3.1912,-2.8837,-2.5381,-2.5348,-2.3854,-2.2353,-2.3215,-2.2998,-2.2565,-2.2792,-2.3086,-2.3606,-2.4844,-2.579,0.0,-2.7799,-3.0496,-3.2959,0.0,0.0,0.0,0.0,0.0,0.0,0.0,0.0,0.0,0.0,0.0,0.0,0.0,0.0,0.0,-5.2872,-4.6491,-4.0878,-3.6727,-3.489,-3.3709,-3.3585,-3.2791,-3.244,-3.2637,-3.206,-3.1813,-3.1979,-3.1368,-3.1094,-3.1016,-3.1445,-3.168,-3.1758,-3.168,-3.1641,-3.1621,-3.1289,-3.1055,-3.0898,-3.0976,-3.1016,-3.1055,-3.1484,-3.1855,-3.2324,-3.3594,-3.4902,-3.6211,-3.1989,-3.1989,-3.1704,-3.1256,-3.0744,-3.0009,-2.9,-2.7511,-2.6467,-2.61,-2.4156,-2.2565,-2.2273,-2.1495,-2.0837,-2.0615,-1.9769,-1.8926,-1.8301,-1.7551,-1.6701,-1.5913,-1.5913,-1.5524,-1.4614,-1.7205,-1.8116,-1.7216,-1.9801,-2.1189,-2.1336,-2.1483,-2.0541,-1.8712,-1.8841,-1.7922,-1.6208,-1.6208,-1.8557,-2.1839,-1.8407,-2.0576,-2.5782,-2.5633,-2.7519,-3.0414,-3.2177,-3.2505,-3.1579,-2.9213,-2.6994,-2.4997,-2.4166,-2.3181,-2.2325,-2.2926,-2.2873,-2.2712,-2.3006,-2.3983,-2.524,-2.6668,-2.8098,0.0,0.0,-3.2169,-3.3477,-3.3909,-3.2881,-3.1034,-2.8228,0.0,0.0,0.0,0.0,0.0,0.0,0.0,0.0,0.0,0.0,0.0,-4.4589,-3.9662,-3.581,-3.3431,-3.1354,-3.1091,-3.333,-3.3418,-3.3579,-3.3984,-3.3049,-3.2512,-3.2646,-3.0895,-2.9855,-2.9648,-2.9855,-3.0062,-3.037,-3.0934,-3.1328,-3.1504,-3.1074,-3.0898,-3.0898,-3.0898,-3.1016,-3.123,-3.1445,-3.1777,-3.2324,-3.3594,-3.4902,-3.6172,-3.2374,-3.2432,-3.2256,-3.1392,-3.095,-3.0295,-2.9021,-2.7218,-2.5936,-2.5261,-2.3151,-2.1903,-2.2154,-2.0616,-1.9924,-2.0708,-1.8903,-1.7655,-1.7651,-1.6203,-1.5206,-1.4818,-1.4855,-1.4344,-1.3265,-1.641,-1.7474,-1.6431,-1.9546,-2.0982,-2.0589,-2.0824,-2.0027,-1.8396,-1.8923,-1.9237,-1.9132,-1.9588,-2.1686,-2.4711,-2.3325,-2.597,-3.0558,-2.9657,-3.0335,-3.1819,-3.2707,-3.1712,-2.9683,-2.6377,-2.5338,-2.5013,-2.2984,-2.2539,-2.2766,-2.3126,-2.302,-2.2859,-2.322,-2.4666,-2.632,-2.7356,-2.9407,-3.1464,0.0,0.0,0.0,-3.4089,0.0,0.0,0.0,0.0,0.0,0.0,0.0,0.0,0.0,0.0,0.0,0.0,0.0,0.0,0.0,-3.1628,-3.0468,-3.0236,-2.8946,-2.9508,-3.2688,-3.3105,-3.3729,-3.4672,-3.3414,-3.2873,-3.3443,-3.0477,-2.8733,-2.8426,-2.8426,-2.8589,-2.9016,-3.031,-3.1074,-3.1367,-3.1035,-3.0898,-3.0898,-3.0976,-3.1211,-3.1523,-3.1523,-3.1836,-3.2441,-3.3633,-3.4902,-3.6152,-3.3369,-3.3354,-3.3122,-3.1456,-3.095,-3.0295,-2.9021,-2.7237,-2.5186,-2.2476,-2.2342,-2.2035,-2.0958,-1.9537,-1.8912,-1.9644,-1.7478,-1.5534,-1.456,-1.3831,-1.2685,-1.1156,-1.1162,-1.1826,-1.3071,-1.5168,-1.6818,-1.8244,-2.0195,-2.0322,-1.8768,-1.8792,-1.8664,-1.85,-1.9638,-2.1162,-2.3018,-2.4037,-2.6542,-2.9792,-2.9578,-2.9985,-3.0839,-3.3253,-3.3695,-3.2715,-3.1134,-2.959,-2.8032,-2.626,-2.4573,-2.3119,-2.2525,-2.2258,-2.2191,-2.2752,-2.2699,-2.2592,-2.3166,-2.387,-2.4933,-2.6982,-2.9786,-3.2305,-3.3641,0.0,-3.6808,-3.4678,0.0,-3.0,-2.601,0.0,0.0,0.0,0.0,0.0,0.0,0.0,0.0,0.0,0.0,0.0,0.0,0.0,-2.362,-2.7322,-2.7503,-2.9084,-3.2669,-3.2832,-3.2956,-3.3021,-3.2544,-3.2133,-3.1742,-2.9636,-2.8462,-2.8426,-2.8426,-2.8444,-2.848,-3.0157,-3.0918,-3.0957,-3.0918,-3.0898,-3.0918,-3.1289,-3.1465,-3.1523,-3.1523,-3.2012,-3.2832,-3.375,-3.4902,-3.6191,-3.4594,-3.4219,-3.3674,-3.1616,-3.0721,-2.9877,-2.8642,-2.6312,-2.368,-2.0945,-2.09,-2.1202,-2.1235,-1.9579,-1.8823,-1.9692,-1.6702,-1.4441,-1.3976,-1.2538,-1.1497,-1.0629,-1.1593,-1.2505,-1.3206,-1.5992,-1.7731,-1.8512,-2.0195,-2.0195,-1.8512,-1.8512,-1.843,-1.8277,-1.9747,-2.1868,-2.442,-2.6016,-2.8681,0.0,0.0,-3.3329,0.0,-3.5825,-3.555,-3.3818,-2.9532,-2.7865,-2.7164,-2.4496,-2.3364,-2.3046,-2.2565,-2.2458,-2.2539,-2.2792,-2.2779,-2.2766,-2.3207,-2.4579,-2.6128,-2.7509,-3.0713,-3.3596,-3.322,-3.4859,-3.5668,-3.342,0.0,0.0,0.0,0.0,0.0,0.0,-3.4284,0.0,0.0,0.0,0.0,0.0,0.0,0.0,0.0,0.0,0.0,0.0,-2.8799,-3.1143,-3.3679,-3.3819,-3.3699,-3.3799,-3.2474,-3.1582,-3.1152,-2.9368,-2.8426,-2.8426,-2.8426,-2.7931,-2.7073,-2.9648,-3.0392,-2.953,-3.0528,-3.0898,-3.0918,-3.1348,-3.166,-3.1934,-3.2441,-3.2832,-3.3301,-3.4414,-3.5508,-3.6543,-3.5465,-3.5003,-3.4184,-3.1199,-3.0354,-2.9489,-2.7842,-2.5344,-2.2875,-2.0906,-2.0551,-2.0645,-2.0902,-1.9287,-1.8375,-1.8742,-1.5381,-1.3436,-1.3356,-1.2201,-1.1502,-1.125,-1.3004,-1.4178,-1.4585,-1.7139,-1.8768,-1.9164,-2.0462,-2.0195,-1.8512,-1.8512,-1.8649,-1.8961,-2.0315,-2.2706,-2.5761,-2.7597,-2.9906,-3.2475,-3.3443,-3.4832,-3.6379,-3.6614,-3.574,-3.3806,-2.8853,-2.711,-2.6649,-2.3595,-2.2794,0.0,-2.2458,-2.2498,-2.2752,-2.2846,-2.2859,-2.2953,-2.334,-2.4832,-2.6576,-2.7216,-3.0299,-3.2957,-3.1928,-3.3247,-3.4022,-3.2001,-3.0483,0.0,0.0,0.0,-3.0469,-3.226,0.0,-3.6774,0.0,-3.5859,0.0,0.0,0.0,0.0,0.0,0.0,0.0,-2.7135,-3.0063,-3.2675,-3.4421,-3.4442,-3.4442,-3.4538,-3.2654,-3.1445,-3.0898,-2.9275,-2.8426,-2.8408,-2.7931,-2.7073,-2.6106,-2.892,-2.953,-2.8545,-3.0157,-3.0898,-3.0937,-3.1465,-3.2295,-3.3134,-3.4113,-3.4652,-3.4863,-3.5328,-3.6035,-3.6816,-3.5663,-3.5818,-3.4764,-3.0258,-2.9799,-2.9116,-2.6547,-2.4693,-2.3408,-2.2719,-2.195,-2.0928,-1.9446,-1.8322,-1.7178,-1.5979,-1.3431,-1.2024,-1.2168,-1.3006,-1.3227,-1.2683,-1.4666,-1.6477,-1.7772,-1.8254,-1.9291,-2.0982,-2.1109,-2.0195,-1.8512,-1.8512,-1.937,-2.0935,-2.2198,-2.4611,-2.7795,-2.905,-3.0681,-3.2364,-3.2496,-3.3636,-3.5331,0.0,-3.3683,-3.2176,-2.9673,0.0,0.0,-2.4432,-2.3233,0.0,0.0,0.0,0.0,0.0,-2.2859,-2.2993,0.0,0.0,-2.4756,-2.5496,-2.7364,-2.9273,-2.9934,-3.1465,-3.2495,-3.0794,-3.023,-2.9603,-2.7717,-2.9996,-3.242,-3.2823,-3.502,0.0,0.0,0.0,0.0,0.0,0.0,0.0,0.0,0.0,0.0,-2.9458,-3.086,-3.2535,-3.4421,-3.4442,-3.4442,-3.4538,-3.2955,-3.1738,-3.0898,-2.9275,-2.8426,-2.8426,-2.6832,-2.6106,-2.6106,-2.7692,-2.8426,-2.8545,-3.0157,-3.0898,-3.0957,-3.1797,-3.3437,-3.5381,-3.6729,-3.7716,-3.827,-3.6634,-3.6289,-3.6855,-3.6273,-3.5182,-3.3674,-3.1069,-3.008,-2.8359,-2.4576,-2.3087,-2.2453,-2.2496,-2.2495,-2.2664,-2.3267,-2.0469,-1.9111,-2.0358,-1.6843,-1.4867,-1.6039,-1.5887,-1.5711,-1.5488,-1.6774,-1.7988,-1.8628,-1.9674,-2.0462,-2.1109,-2.2215,-2.1797,-2.0232,-2.12,-2.1934,-2.2213,-2.3774,-2.5294,0.0,0.0,0.0,0.0,0.0,-3.3356,-3.2855,0.0,0.0,-3.2303,-2.8343,-2.6683,0.0,-2.3536,-2.2613,-2.2405,-2.2298,-2.2472,-2.2726,-2.2832,-2.3153,0.0,0.0,0.0,-2.5264,-2.5464,0.0,0.0,-2.8128,-2.963,-3.0665,-2.8931,-2.884,-2.8648,-2.8009,-3.0689,-3.3051,-3.3176,-3.541,-3.7158,0.0,-3.7156,0.0,0.0,0.0,-3.1571,0.0,0.0,0.0,-3.2267,-3.4224,-3.5639,0.0,-3.6951,-3.7542,-3.7519,-3.4847,-3.3032,-3.2322,-3.082,-2.953,-2.8408,-2.7811,-2.647,-2.4532,-2.7211,-2.7811,-2.697,-2.9949,-3.1858,-3.295,-3.4163,-3.5982,-3.81,-3.9434,-4.0405,-4.0738,-3.8791,-3.8006,-3.7961,-3.5507,-3.3895,-3.2366,-3.1293,-2.9365,-2.6922,-2.3947,-2.3006,-2.2798,-2.3454,-2.3678,-2.3905,-2.4559,-2.2245,-2.092,-2.1883,-1.9224,-1.7601,-1.8087,-1.8422,-1.8347,-1.768,-1.9267,-2.0067,-1.9955,-2.0837,-2.1457,-2.1978,-2.3076,-2.3281,-2.2835,-2.3794,-2.4527,-2.4787,-2.5863,-2.6812,-2.7679,-2.8988,-3.0008,0.0,0.0,-3.2301,0.0,0.0,-3.1836,-3.0873,0.0,-2.6255,-2.5156,-2.3379,-2.2531,-2.2285,-2.2392,-2.2552,-2.2752,-2.2966,-2.33,-2.3701,-2.4088,-2.477,0.0,-2.5491,-2.6933,0.0,-2.704,0.0,-2.8768,-2.7797,-2.7776,-2.7949,-2.7856,-3.0866,-3.3413,-3.3242,-3.5503,-3.7125,0.0,-3.8124,-3.9325,-3.9972,-3.9031,-3.8004,0.0,-3.738,-3.6991,-3.5666,-3.6763,-3.804,0.0,0.0,-3.9714,-4.0501,-3.6337,-3.3886,-3.3443,-3.1732,-3.002,-2.8408,-2.7811,-2.6106,-2.3698,-2.6499,-2.7158,-2.6444,-3.073,-3.3305,-3.4572,-3.6381,-3.8487,-4.0837,-4.2236,-4.3249,-4.3453,-4.0936,-3.9658,-3.9226,-3.3815,-3.2227,-3.0858,-3.0356,-2.7329,-2.4728,-2.417,-2.3855,-2.4144,-2.5403,-2.5257,-2.4559,-2.346,-2.3446,-2.2758,-2.0765,-2.059,-2.0015,-1.8839,-2.059,-2.11,-1.9745,-2.1778,-2.2498,-2.1683,-2.1733,-2.2312,-2.3494,-2.3713,-2.4532,-2.5984,-2.6227,-2.7073,-2.8509,-2.8527,-2.8928,-2.9531,-2.9551,-2.9225,-2.8914,-2.9863,-3.0469,-3.0898,-3.0898,-2.9657,-2.7921,-2.8163,-2.6244,-2.3649,-2.3851,-2.3035,-2.2058,-2.2352,-2.2445,-2.2552,-2.3153,-2.3354,-2.35,-2.4062,-2.4663,-2.5184,-2.5464,0.0,0.0,0.0,0.0,-2.6894,0.0,-2.7468,-2.7589,-2.7499,-3.074,-3.324,-3.3072,-3.5485,-3.6887,-3.5724,-3.735,-3.9692,-4.2055,-4.45,-4.5172,-4.308,-4.2249,-4.1076,-3.9363,-3.8635,-3.9663,0.0,0.0,-4.1174,-4.3187,-3.7862,-3.4721,-3.4116,-3.2125,-3.0176,-2.8325,-2.6712,-2.5146,-2.3728,-2.5638,-2.6686,-2.7216,-3.2355,-3.5036,-3.5905,-3.8452,-4.1173,-4.3746,-4.5182,-4.6168,-4.6382,-4.2678,-4.1,-4.0527,-3.434,-3.1516,-2.7649,-2.2779,-2.1978,-2.1699,-2.1038,-2.049,-2.0796,-2.2746,-2.3446,-2.4578,-2.6747,-2.5371,-2.4819,-2.5803,-2.4093,-2.3318,-2.4284,-2.4188,-2.4,-2.3705,-2.3298,-2.3207,-2.3193,-2.3497,-2.3235,-2.2401,-2.5649,-2.6712,-2.6106,-2.8545,-2.9713,-2.9776,-3.0121,-2.9852,-2.8991,-2.8277,-2.7881,-2.7826,-2.9507,-3.0469,0.0,0.0,-2.9827,-2.8163,-2.7039,-2.5429,-2.3739,-2.279,-2.2454,-2.2352,-2.2659,-2.2752,-2.2819,-2.3207,-2.3634,-2.4062,-2.4422,-2.5117,-2.5745,-2.5825,-2.6066,-2.6266,0.0,0.0,0.0,0.0,0.0,0.0,0.0,-3.1651,-3.3526,-3.5379,-3.6567,-3.7252,-3.7225,-3.9498,-4.1882,-4.3857,-4.701,-4.8655,-4.7292,-4.4888,-4.2909,-4.1659,-4.1914,0.0,0.0,0.0,0.0,-4.75,-4.3131,-3.9746,-3.7576,-3.4647,-3.1093,-2.7102,-2.6344,-2.5274,-2.4059,-2.5859,-2.8253,-3.1512,-3.482,-3.7923,-4.0828,-4.302,-4.5315,-4.7507,-4.8749,-4.8084,-4.6014,-4.3735,-4.1963,-4.0605,-3.2134,-2.8081,-2.3715,-2.005,-1.9094,0.0,-1.8337,-1.8317,-1.916,-2.159,-2.2851,-2.4551,-2.733,-2.6709,-2.6643,-2.7556,-2.6364,-2.5816,-2.6426,-2.6172,-2.5812,-2.5291,-2.4756,-2.4315,-2.3968,-2.3843,-2.353,-2.3014,-2.5233,-2.6227,-2.6106,-2.7931,-2.9028,-2.9408,-2.8928,-2.8676,-2.8314,-2.7377,-2.7486,-2.8577,-2.9524,0.0,0.0,-3.1112,-2.9903,-2.8289,-2.7314,-2.5724,-2.3858,-2.2394,-2.2178,-2.2472,-2.2766,-2.2859,-2.2926,-2.3233,-2.3567,-2.3915,-2.4329,-2.4903,-2.5438,-2.5705,-2.5985,-2.6186,-2.6159,-2.64,-2.6587,0.0,0.0,0.0,0.0,0.0,-3.372,-3.6496,-3.793,-3.8692,-3.822,-4.1075,-4.3542,-4.4492,-4.7157,-4.8641,-4.8133,-4.6093,-4.4524,-4.379,-4.3896,0.0,0.0,0.0,0.0,-5.1199,-4.6886,-4.2992,-3.9627,-3.6435,-3.2135,-2.6637,-2.7051,-2.6208,-2.4305,-2.7775,-3.0934,-3.3769,-3.8065,-4.1754,-4.5011,-4.6704,-4.8657,-5.0689,-5.0958,-4.981,-4.7637,-4.575,-4.3289,-4.0898,-2.8153,-2.3572,-2.0155,-1.9374,-1.7449,-1.6141,0.0,-1.6842,0.0,-2.1052,-2.27,-2.4441,-2.6799,-2.7682,-2.8043,-2.7776,-2.7762,-2.7428,-2.6667,-2.7028,-2.6814,-2.5785,-2.5838,-2.5424,-2.4396,-2.366,-2.3537,-2.4159,-2.4059,-2.4532,-2.5741,-2.5863,-2.6712,-2.8051,0.0,0.0,0.0,-2.7001,-2.8071,-2.9996,-2.9931,-3.1228,-3.2964,-3.1441,-3.002,-2.8664,-2.8426,-2.6633,-2.4284,-2.3046,-2.2855,-2.3171,-2.3175,-2.3256,-2.3174,-2.318,-2.33,-2.3447,-2.3995,-2.4382,-2.477,-2.5317,-2.5705,-2.6026,-2.6279,-2.636,-2.6386,-2.6386,-2.6746,-2.761,0.0,0.0,-3.4389,-3.6893,-3.8908,-3.975,-3.8702,-4.1685,-4.4073,-4.442,-4.5921,0.0,0.0,0.0,0.0,0.0,0.0,0.0,0.0,0.0,0.0,-5.4238,-4.9587,0.0,-4.1022,0.0,-3.3271,-2.7294,-2.8482,-2.785,-2.5613,-3.0668,-3.4037,-3.6119,-4.1765,-4.5795,-4.8432,-4.9517,-5.11,-5.2952,-5.247,-5.1329,-4.9819,-4.7759,-4.4699,-4.1677,-2.2583,-2.1177,-1.9426,-1.5096,-1.4587,-1.4416,-1.3479,-1.4861,-1.7119,-2.0165,-2.1296,-2.3458,-2.7588,-2.8056,-2.8123,-2.807,-2.807,-2.8003,-2.7843,-2.7482,-2.7175,-2.6961,-2.6079,-2.5491,-2.5291,-2.5073,-2.4274,-2.3107,-2.4761,-2.5024,-2.4054,-2.5375,-2.6106,-2.647,0.0,0.0,-2.556,-2.7865,0.0,-2.9695,-3.1318,-3.2371,-3.2964,-3.1441,-3.0762,-3.0274,-2.892,-2.766,-2.6501,-2.6312,-2.6631,-2.6893,-2.5502,-2.4979,-2.4723,-2.3324,-2.3126,-2.3407,-2.3754,-2.4235,-2.4716,-2.5064,-2.5558,-2.5972,-2.6026,-2.6213,-2.6386,-2.6386,-2.7805,-2.9508,-3.159,0.0,0.0,-3.7241,-3.733,-3.7485,-3.7916,-3.973,-4.1834,-4.3802,-4.5011,-4.6125,0.0,0.0,0.0,0.0,0.0,0.0,0.0,0.0,0.0,0.0,0.0,0.0,0.0,0.0,-3.5084,-3.0692,-2.9635,-3.0088,-3.1979,-3.3132,-3.7021,-4.3042,-4.5005,-4.745,-5.0147,-5.1172,-5.211,-5.2886,-5.284,-5.1648,-4.9819,-4.7759,-4.5574,-4.3483,-2.3232,-2.1306,-1.9638,-1.776,-1.7127,0.0,0.0,-1.779,-1.8922,-1.9795,-2.152,-2.3855,-2.6914,-2.7776,-2.8136,-2.8136,-2.8136,-2.8083,-2.7923,-2.7509,-2.7134,-2.6827,-2.5972,-2.5371,-2.5064,-2.444,-2.3582,-2.2632,-2.3235,-2.3062,-2.2341,-2.3062,-2.3915,-2.4763,0.0,-2.5572,0.0,0.0,0.0,-3.2374,-3.2432,-3.3104,-3.3979,-3.1767,-3.0898,-3.0762,-3.002,-2.9545,-2.91,-2.7655,-2.6923,-2.6839,-2.6839,-2.5651,-2.4196,-2.4196,-2.3639,-2.3153,-2.346,-2.3861,-2.4329,-2.493,-2.5411,-2.5812,-2.6106,-2.6293,-2.6689,-2.7762,-2.8555,-2.99,-3.2855,-3.5647,0.0,0.0,0.0,-3.8323,-3.7942,-3.9624,-4.0954,-4.1422,-4.1895,-4.2928,-4.4475,0.0,0.0,0.0,0.0,0.0,0.0,0.0,0.0,0.0,0.0,0.0,0.0,0.0,0.0,-3.0014,-3.0827,-3.1702,-3.2264,-3.5521,-3.9824,-4.4942,-4.8355,-5.0716,-5.2285,-5.3288,-5.3419,-5.2929,-5.2929,-5.2327,-5.1163,-4.8072,-4.6773,-4.5943,-2.4495,-2.1872,-2.0134,-2.1067,-2.0199,-1.9702,-2.0846,-2.1505,-2.1661,-2.0776,-2.2599,-2.4554,-2.6587,-2.7192,-2.7356,-2.7356,-2.7356,-2.7213,-2.6861,-2.7012,-2.6747,-2.6226,-2.5585,-2.5024,-2.4556,-2.338,-2.2619,-2.2325,-2.151,-2.1082,-2.1015,-2.1082,-2.1937,0.0,0.0,0.0,0.0,0.0,-3.2112,-3.521,-3.366,-3.3944,-3.4958,-3.1998,-3.0898,-3.0898,-3.0898,-3.0917,-3.0585,-2.8355,-2.7374,-2.7126,-2.8015,-2.6321,-2.4196,-2.4723,-2.3924,-2.2939,-2.3313,-2.3594,-2.3981,-2.4863,-2.5291,-2.5665,-2.6253,-2.6648,-2.7379,-2.8968,-2.9519,-3.0921,-3.4234,-3.6104,0.0,0.0,0.0,0.0,-3.7425,-3.9153,-4.004,-3.8697,-3.8873,-3.9779,-4.14,0.0,0.0,0.0,0.0,0.0,0.0,0.0,0.0,0.0,0.0,-5.1498,-4.5036,0.0,-3.6568,0.0,-3.1709,-3.2619,-3.2473,-3.8146,-4.2838,-4.6584,-5.1471,-5.3821,-5.4255,-5.505,-5.4433,-5.2929,-5.2929,-5.2929,-5.2491,-4.8506,-4.744,-4.7683,-2.2306,-2.1354,-2.0943,0.0,0.0,0.0,-2.3167,-2.3925,-2.4314,-2.421,-2.417,-2.513,-2.7769,-2.5949,-2.4675,-2.4843,-2.4675,-2.4461,-2.396,-2.5251,-2.5932,-2.5611,-2.4783,-2.4302,-2.4249,-2.3073,-2.2311,-2.2031,-2.1416,-2.0975,0.0,-2.0989,0.0,0.0,0.0,0.0,0.0,-3.1472,-3.4098,-3.6554,-3.5477,-3.5134,-3.4958,-3.1998,-3.0898,-3.0898,-3.0898,-3.0168,-2.9319,-2.9349,-3.053,-3.1621,-2.898,-2.79,-2.7105,-2.406,-2.2996,-2.2993,-2.3567,-2.3754,-2.3981,-2.4863,-2.5291,-2.5665,-2.6253,-2.7551,-2.8644,-2.9079,-3.1383,-3.3964,-3.6502,-3.6521,-3.625,0.0,0.0,0.0,0.0,-3.6787,-3.7699,-3.6406,-3.7945,-3.9025,-3.8976,-3.934,0.0,0.0,-4.4508,0.0,0.0,0.0,0.0,-5.5316,0.0,-5.0463,-4.5235,-3.9388,0.0,-3.2259,-3.1294,-3.2848,-3.6813,-4.1045,-4.6113,-5.153,-5.4541,-5.5636,-5.5261,-5.5367,-5.4433,-5.2929,-5.2929,-5.2929,-5.2491,-4.8506,-4.7387,-4.7286,0.0,0.0,0.0,0.0,0.0,0.0,0.0,-3.0424,-3.0188,-2.8882,-2.7472,-2.6462,-2.6054,-2.5144,-2.4303,-2.4303,-2.4009,-2.4112,-2.5041,-2.5281,-2.5224,-2.4743,-2.4048,-2.3594,-2.3407,-2.2579,-2.2017,-2.1724,-2.1309,-2.1056,-2.0935,0.0,0.0,0.0,0.0,-2.8875,-3.1614,-3.4075,-3.6001,-3.7062,-3.5854,-3.4736,-3.3733,-3.1672,-3.0898,-3.0898,-3.0898,-2.9879,-2.8751,-2.9259,-2.8972,-2.8202,-2.8196,-2.6706,-2.4993,-2.4588,-2.3652,-2.2953,-2.3394,-2.3634,-2.3981,-2.4863,-2.5291,-2.5665,-2.6253,-2.7678,-2.9153,-3.0479,-3.3238,-3.5629,-3.6405,-3.625,-3.6074,0.0,0.0,0.0,0.0,-3.4913,-3.4705,-3.3478,-3.3834,-3.4623,-3.5743,-3.6295,0.0,0.0,0.0,0.0,0.0,0.0,0.0,-5.6805,0.0,-4.8029,-4.2471,-3.6457,-3.1271,-2.7092,-2.9877,-3.2895,-3.584,-4.2579,-4.9411,-5.6093,-5.548,-5.5942,-5.6855,-5.4675,-5.3563,-5.2929,-5.2929,-5.2189,-5.0906,-4.8415,-4.6915,-4.6172,-2.6423,0.0,-2.7438,0.0,-3.0724,-3.1826,-3.4467,-3.4559,-3.3694,-3.2236,-3.0151,-2.7702,-2.4901,-2.3833,-2.3279,-2.2966,-2.2628,-2.3128,-2.4508,-2.4789,-2.4596,-2.4102,-2.3514,-2.3126,-2.3006,-2.2338,-2.1844,-2.155,-2.1256,0.0,0.0,0.0,0.0,0.0,-2.9181,-3.2023,-3.4076,-3.5634,-3.6803,-3.7346,-3.5398,-3.4069,-3.2964,-3.1441,-3.0898,-3.0898,-3.0898,-2.9605,-2.7955,-2.8499,-2.6809,-2.4701,-2.6729,-2.5651,-2.3788,-2.4452,-2.3924,-2.2926,-2.3247,-2.3541,-2.3981,-2.4863,-2.5291,-2.5665,-2.6253,-2.7608,-2.9366,-3.1662,-3.4124,-3.5797,-3.5938,-3.6016,-3.6016,-3.6016,0.0,0.0,0.0,-3.3984,-3.3086,-3.168,-3.1367,-3.1741,-3.3025,-3.3534,0.0,0.0,0.0,0.0,0.0,0.0,0.0,0.0,0.0,0.0,0.0,-3.2637,-2.7129,-2.3413,-2.8472,-3.2562,-3.584,-4.5525,-5.3406,-5.9277,-5.7037,-5.6795,-5.7751,-5.4835,-5.3291,-5.2792,-5.2327,-5.1236,-4.9937,-4.8396,-4.7289,-4.6486,-2.7338,-2.873,-3.0385,-3.1213,-3.2885,-3.4727,-3.6988,-3.5087,-3.3438,-3.3595,-3.1697,-2.8762,-2.4939,-2.2208,-2.0382,-1.9957,-1.9907,-2.0158,-2.136,-2.3171,-2.4088,0.0,0.0,-2.3006,-2.3313,-2.2445,-2.1844,-2.155,-2.1256,0.0,-2.3202,0.0,-2.8713,-3.0,-3.1943,-3.4273,-3.6716,-3.5717,-3.6162,-3.724,-3.4292,-3.3077,-3.2964,-3.1441,-3.0898,-3.0898,-3.0898,-2.8919,-2.6438,-2.6832,-2.4885,-2.2862,-2.4876,-2.5517,-2.5113,-2.3393,-2.2859,-2.2926,-2.3247,-2.3541,-2.3981,-2.4863,-2.5291,-2.5665,-2.6253,-2.7452,-2.9322,-3.2491,-3.3188,-3.3743,-3.5587,-3.6016,-3.6016,-3.6016,0.0,0.0,0.0,-3.4082,-3.3437,-3.1719,-3.1894,-3.1816,-3.0976,-3.1269,0.0,0.0,0.0,0.0,0.0,0.0,0.0,-4.2441,-4.6059,0.0,-3.9275,-2.7889,-2.2671,-2.3492,-2.7274,-3.2056,-3.8222,-5.0927,-5.8366,-6.1022,-5.9917,-5.8908,-5.7878,-5.6076,-5.4433,-5.2767,-5.0857,-5.027,-5.0433,-4.8532,-4.8395,-4.9205,-2.9885,-3.0527,-3.1919,-3.4912,-3.6164,-3.7202,-3.8898,-3.7358,-3.5609,-3.3768,-3.1682,-2.8242,-2.2267,-2.0734,-1.9558,0.0,-1.8529,-1.9748,0.0,-2.2879,-2.3781,-2.3487,-2.3287,-2.3126,-2.3006,-2.2525,-2.2044,-2.155,0.0,0.0,0.0,-2.8781,-3.0623,-3.2055,-3.4823,-3.5894,-3.5825,-3.6526,-3.5922,-3.4382,-3.3508,-3.253,-3.1556,-3.1112,-3.0898,-3.0801,-2.9849,-2.8166,-2.6362,-2.5716,-2.4159,-2.2566,-2.3185,-2.3347,-2.3254,-2.2929,-2.2712,-2.2672,-2.318,-2.3541,-2.3981,-2.4863,-2.5291,-2.5665,-2.6253,-2.7452,-2.8938,-3.1076,-3.1344,-3.1456,-3.2018,-3.317,-3.402,-3.402,-3.4566,0.0,-3.416,0.0,-3.2363,-3.123,-3.0937,-3.0723,0.0,-2.9827,0.0,0.0,0.0,0.0,0.0,0.0,0.0,0.0,-3.4524,0.0,-2.304,-1.7319,-1.5539,-1.749,-2.5319,-3.5651,-4.8198,-5.3516,-5.722,-5.9306,-5.8738,-5.7685,-5.6049,-5.2952,-5.137,-5.0717,-4.8794,-4.732,-4.6743,-4.7848,-4.797,-4.7993,-3.2217,-3.3349,-3.4569,-3.7098,-3.8255,-3.8962,-3.8936,-3.7976,-3.6061,-3.2823,-3.1097,-2.7712,-2.1063,-2.012,0.0,-1.6606,-1.7159,-1.8419,-1.9911,-2.1061,-2.1643,-2.1329,-2.1857,-2.209,-2.1899,0.0,0.0,-2.2257,-2.4822,-2.7002,-2.8946,-3.1881,-3.3673,-3.467,-3.7192,-3.7477,-3.6162,-3.6487,-3.5266,-3.2964,-3.1802,-3.0781,-2.9903,-2.9294,-2.9131,-2.9057,-2.8306,-2.7068,-2.5738,-2.5151,-2.3799,-2.2565,-2.2458,-2.2338,-2.2311,-2.2605,-2.2565,-2.2552,-2.3166,-2.3541,-2.3981,-2.4863,-2.5291,-2.5638,-2.6119,-2.6849,-2.7978,-2.954,-2.9631,-2.9665,-3.0381,-3.1401,-3.2158,-3.2158,-3.2358,-3.228,-3.1893,0.0,-2.9971,-2.996,0.0,0.0,0.0,-2.9245,-2.8625,0.0,0.0,0.0,0.0,0.0,0.0,-3.2088,-2.1212,0.0,-0.9932,-0.7659,-0.9501,-1.5342,-2.8012,-4.0218,-5.1496,-5.4101,-5.5899,-5.6743,-5.5888,-5.476,-5.324,-5.0294,-4.9212,-4.9206,-4.7143,-4.6399,-4.6526,-4.8208,-4.8984,-4.9786,-3.4489,-3.6602,0.0,0.0,-3.9368,0.0,-3.7649,-3.6683,-3.4691,-3.0565,-2.9674,-2.7054,-2.0724,-1.9684,-1.8538,-1.5948,0.0,0.0,0.0,-1.81,-1.808,-1.8218,-1.9548,-2.0439,-2.0697,-2.314,-2.4172,-2.3716,-2.793,-3.0167,-3.0545,-3.5256,-3.7536,-3.769,-3.9025,-3.8687,-3.724,-3.5727,-3.4292,-3.2737,-2.9592,-2.8426,-2.8188,-2.6608,-2.6215,-2.6389,-2.6346,-2.5657,-2.4907,-2.4819,-2.3969,-2.2806,-2.2485,-2.2218,-2.2071,-2.2338,-2.2405,-2.2525,-2.3153,-2.3541,-2.3981,-2.4863,-2.5331,-2.5638,-2.5919,-2.5972,-2.6484,-2.7993,-2.7955,-2.8293,-3.0002,-3.0287,-3.0184,-3.0135,-2.9385,-2.8693,-2.818,-2.7035,-2.6745,0.0,0.0,0.0,0.0,-2.9275,-2.8188,0.0,0.0,0.0,0.0,0.0,-1.8383,-1.4255,-0.7137,-0.2153,0.0318,0.046,-0.5409,-1.7566,-3.4327,-4.4701,-4.911,-5.2961,-5.4342,-5.3713,-5.2101,-5.093,-5.0005,-4.8168,-4.7804,-4.7901,-4.5948,-4.6712,-4.8984,-4.9292,-5.1033,-5.3712,0.0,0.0,-3.839,-4.0178,-3.9299,-3.831,-3.7373,-3.4518,-3.1143,-2.8094,-2.6268,-2.3387,-1.8265,-1.7536,-1.6291,-1.3931,-1.5003,-1.588,-1.5946,-1.7292,-1.8748,-2.005,-2.0186,-2.1468,-2.3994,-2.4014,-2.5151,-2.7856,-2.8897,-3.1333,-3.5123,-3.6367,-3.775,-3.9129,-3.8348,-3.7263,-3.5727,-3.4292,-3.2758,-3.1208,-2.9257,-2.8426,-2.8206,-2.6895,-2.6306,-2.6362,-2.5789,-2.5246,-2.4716,-2.3899,-2.3268,-2.2766,-2.2245,-2.2191,-2.2325,-2.2392,-2.2258,-2.2271,-2.31,-2.3541,-2.3981,-2.4863,-2.5638,-2.6199,-2.6266,-2.6119,-2.6087,-2.6471,-2.6364,-2.6075,-2.6425,-2.7629,-2.8267,-2.7875,-2.8397,-2.861,-2.7963,-2.7101,0.0,0.0,-2.8336,-2.8928,-3.0762,-2.8307,-2.6705,0.0,0.0,0.0,0.0,-1.3928,-0.8474,-0.3715,0.107,0.5405,0.9422,0.1546,-1.0697,-2.7425,-3.6969,-4.3509,-4.7064,-4.9303,-5.0259,-5.0368,-5.05,-4.9861,-4.8539,-4.6658,-4.6018,-4.5948,-4.3974,-4.4898,-4.777,-4.9318,-5.2155,-5.5398,-3.904,-3.9374,-3.9864,-4.1016,-4.0197,-3.8651,-3.6482,-3.4193,-3.1314,-2.7716,-2.6134,-2.3598,-1.8806,-1.81,-1.7012,-1.4441,-1.4335,-1.4174,-1.3931,-1.5544,-1.6959,-1.7763,-1.9818,-2.1641,-2.3224,-2.4903,-2.7138,-3.0017,-3.1251,-3.342,-3.6439,-3.7321,-3.8403,-3.9697,-3.8137,-3.6703,-3.5201,-3.3968,-3.2009,-2.983,-2.841,-2.7258,-2.6282,-2.4887,-2.4479,-2.4575,-2.4343,-2.4266,-2.4285,-2.3539,-2.322,-2.2953,-2.2218,-2.2098,-2.2085,-2.1136,-2.1525,-2.2378,-2.3287,-2.3647,-2.4008,-2.5024,-2.5838,-2.6386,-2.6386,-2.6266,-2.6159,-2.6159,-2.5919,-2.5665,-2.5504,-2.6143,-2.6467,-2.584,-2.5908,-2.5816,-2.5151,-2.4366,0.0,-2.6215,-2.6222,-2.6986,-2.8828,-2.6594,-2.5172,-2.5565,0.0,0.0,-1.7144,-1.042,-0.4546,-0.0153,0.5832,0.8225,0.6637,-0.5864,-1.8751,-3.1705,-3.8413,-4.2784,-4.5085,-4.695,-4.7561,-4.7186,-4.7701,-4.7203,-4.5796,-4.4734,-4.4521,-4.4906,-4.4866,-4.7082,-5.0614,-5.2811,-5.5975,-5.9399,-4.1288,-4.1907,-4.1907,-4.1773,-4.1229,-3.9732,-3.5697,-3.4647,-3.2676,-2.8043,-2.7281,-2.5238,-2.0533,-1.9654,-1.8552,-1.6113,-1.4345,-1.3281,-1.3166,-1.4292,-1.5104,-1.5471,-1.9484,-2.1779,-2.1974,-2.6161,-2.9108,-3.0916,-3.3266,-3.4886,-3.5703,-3.7331,-3.8432,-3.8921,-3.7477,-3.6162,-3.4869,-3.3539,-3.1387,-2.8814,-2.7319,-2.5644,-2.3917,-2.258,-2.2205,-2.2472,-2.2859,-2.316,-2.3235,-2.3025,-2.2639,-2.2318,-2.1494,-2.1262,-2.0889,-1.9358,-2.0233,-2.1881,-2.2666,-2.2975,-2.331,-2.4315,-2.4959,-2.5358,-2.5396,-2.574,-2.5898,-2.5898,-2.6029,-2.6012,-2.5959,-2.5504,-2.4943,-2.4302,-2.3306,-2.2374,-2.2071,0.0,-2.1298,-2.3739,-2.3813,-2.45,-2.6645,-2.5231,-2.4074,-2.4074,-1.9268,-1.5798,0.0,-0.9567,-0.5051,-0.1946,0.6263,0.6351,-0.25,-1.6888,-2.6904,-3.2844,-3.8111,-4.1244,-4.2119,-4.4165,-4.4694,-4.3894,-4.4304,-4.3979,-4.3183,-4.3549,-4.4186,-4.5191,-4.7962,-5.1581,-5.5643,-5.8142,-6.1399,-6.4772,-4.3642,-4.4977,-4.5574,-4.3945,-4.1867,-3.9606,-3.7216,-3.4637,-3.1496,-2.7108,-2.6215,-2.4331,-1.9794,-1.9105,-1.8641,-1.8064,-1.7235,-1.6702,-1.6636,-1.6577,-1.7778,-2.0502,-2.113,-2.3278,-2.7021,-2.8159,-2.9342,-3.0433,-3.0827,-3.2088,-3.4125,-3.4425,-3.5055,-3.5945,-3.4403,-3.362,-3.3325,-3.0719,-2.9368,-2.8674,-2.5914,-2.463,-2.4242,-2.2882,-2.2378,-2.2525,-2.334,-2.2512,-2.0828,-2.1138,-2.0032,-1.8343,-1.7834,-1.7813,-1.7802,-1.7327,-1.7705,-1.8386,-1.8693,-1.9213,-1.9743,-2.0093,-2.0537,-2.0793,-2.0835,-2.2338,-2.362,-2.362,-2.5053,-2.6253,-2.5999,-2.5678,-2.517,-2.4342,-2.2294,-2.0984,-2.1925,0.0,-2.0094,-2.3627,-2.4007,-2.4761,-2.6677,-2.5649,-2.4758,-2.4758,-1.9983,-1.6389,-1.5122,-1.2244,-1.0529,-1.0275,-0.2414,-0.3227,-1.3916,-2.4503,-3.0841,-3.2918,-3.4212,-3.5261,-3.5823,-3.6506,-3.822,-4.0435,-4.0509,-4.165,-4.3797,-4.6066,-4.7087,-4.768,-5.3247,-5.7095,-6.0198,-6.4081,-6.7389,-6.9939,-4.5425,-4.6441,-4.6735,-4.5849,-4.3635,-4.1334,-3.9203,-3.6587,-3.3476,-3.008,-2.9434,-2.7817,-2.4227,-2.3745,-2.3391,-2.2696,-2.2254,-2.2128,-2.2659,-2.049,-1.9977,-2.1398,-2.3799,-2.6311,-2.8875,-2.9628,-3.0278,-3.0685,-3.1653,-3.2761,-3.4084,-3.4084,-3.4594,-3.5178,-3.2767,-3.1862,-3.1892,-2.9112,-2.7445,-2.6647,-2.5443,-2.4305,-2.328,-2.2809,-2.2766,-2.2842,-2.2254,-2.1667,-2.0746,-1.9704,-1.8559,-1.7652,-1.6937,-1.6837,-1.6788,-1.5691,-1.6548,-1.7794,-1.8016,-1.8572,-1.9108,-1.9209,-1.9492,-1.9775,-1.9887,-2.0716,-2.1684,-2.282,-2.3952,-2.4882,-2.6055,-2.5812,-2.4961,-2.3041,-2.2241,0.0,0.0,-1.8816,-1.9326,-2.128,-2.1595,-2.2535,-2.4774,-2.4266,-2.3364,-2.2545,-1.9206,-1.6442,-1.4828,-1.2798,-1.1782,-1.2258,-1.2206,-1.5957,-2.424,-2.7264,-2.9733,-3.1588,-3.0565,-3.0455,-3.0925,-3.2828,-3.5125,-3.7819,-3.9324,-4.1453,-4.3896,-4.6556,-4.8392,-5.0202,-5.7156,-6.2288,-6.6232,-7.0863,-7.4278,-7.6553,-4.7141,-4.798,-4.8217,-4.7781,-4.575,-4.3468,-4.1174,-3.8671,-3.6031,-3.3364,-3.2826,-3.1597,-2.8758,-2.8381,-2.7794,-2.6954,-2.6648,-2.6612,-2.7144,-2.4668,-2.3121,-2.2932,-2.6644,-2.8969,-2.9726,-3.0255,-3.0549,-3.0653,-3.159,-3.2404,-3.2852,-3.2501,-3.2664,-3.3119,-3.0665,-2.9855,-2.9925,-2.7201,-2.5382,-2.4347,-2.4345,-2.342,-2.2056,-2.2842,-2.322,-2.3179,-2.1414,-2.0727,-2.0396,-1.8087,-1.6949,-1.6424,-1.5904,-1.5737,-1.5493,-1.4096,-1.5087,-1.6554,-1.6712,-1.7167,-1.777,-1.7817,-1.8107,-1.8388,-1.8435,-1.877,-1.9572,-2.119,-2.2006,-2.282,-2.4602,-2.4465,-2.3285,-2.1222,0.0,0.0,0.0,-1.713,-1.7916,-1.8834,-1.9039,-1.9889,-2.1795,-2.1898,-2.1334,-1.99,-1.796,-1.622,-1.4683,-1.2846,-1.2254,-1.313,-1.8221,-2.3623,-2.8733,-2.6932,-2.7158,-2.9478,-2.6757,-2.5887,-2.646,-2.8419,-3.1309,-3.4656,-3.7419,-4.0259,-4.335,-4.7007,-5.0131,-5.3481,-6.1654,-6.7796,-7.277,-7.7927,-8.1273,-8.3132,-4.892,-5.0798,-5.1886,-5.0127,-4.7803,-4.5433,-4.2962,-4.0318,-3.7582,-3.5175,-3.4181,-3.2966,-3.0982,-3.0102,-2.9527,-2.8979,-2.8459,-2.8015,-2.7748,-2.8196,-2.8374,-2.7847,-2.8916,-2.9692,-3.0137,-2.9447,-2.9211,-2.9734,-2.8258,-2.7779,-2.8278,-2.6724,-2.6388,-2.7064,-2.6817,-2.6927,-2.6947,-2.4009,-2.2645,-2.2453,-2.1395,-2.0899,-2.1043,-2.2963,-2.3714,-2.3483,-2.1837,-2.0025,-1.811,-1.6134,-1.42,-1.2691,-1.2508,-1.2452,-1.2452,-1.2317,-1.2442,-1.2726,-1.2733,-1.2972,-1.3246,-1.3394,-1.3556,-1.3711,-1.3858,-1.535,-1.6811,-1.6966,-1.876,-2.0231,-2.0393,-2.002,-1.9554,-1.8946,0.0,0.0,-1.6826,-1.5502,-1.5292,-1.7196,-1.7378,-1.7622,-1.801,-1.8546,-1.855,-1.807,-1.6751,-1.5573,-1.5094,-1.3288,-1.3283,-1.5613,-1.6816,-1.9029,-2.2419,-2.3,-2.431,-2.6684,-2.2703,-2.1139,-2.176,-2.0769,-2.3996,-3.0465,-3.2631,-3.6485,-4.1689,-4.8528,-5.3608,-5.7917,-6.8101,-7.4686,-7.9022,-8.5159,-8.801,-8.8691,-5.07,-5.1408,-5.1729,-5.1344,-4.8076,-4.5185,-4.4299,-4.0905,-3.8108,-3.6922,-3.6599,-3.5916,-3.4685,-3.4353,-3.3771,-3.3108,-3.291,-3.2337,-3.1267,-3.1584,-3.1256,-2.996,-2.993,-2.9565,-2.8779,-2.8366,-2.7797,-2.6883,-2.654,-2.6491,-2.6628,-2.6244,-2.6126,-2.6281,-2.4366,-2.371,-2.3737,-2.0364,-1.91,-1.9256,-1.891,-1.9526,-2.0826,-2.1558,-2.1968,-2.1995,-2.0169,-1.815,-1.6188,-1.4228,-1.2963,-1.2264,-1.2108,-1.2074,-1.1965,-1.2072,-1.2213,-1.2481,-1.2461,-1.2657,-1.2888,-1.2949,-1.3139,-1.3329,-1.339,-1.4052,-1.5028,-1.6319,-1.7302,-1.8272,-1.9582,-1.9654,-1.8868,-1.7327,0.0,-1.6283,-1.4408,-1.4375,-1.4982,-1.578,-1.6238,-1.7171,-1.9067,-1.8568,-1.7766,-1.7409,-1.688,-1.5789,-1.3953,-1.3169,-1.3075,-1.3995,-1.4534,-1.5285,-1.6543,-1.3304,-1.1692,-1.2158,-0.9092,-0.8867,-1.1225,-1.333,-1.772,-2.4007,-2.8942,-3.4781,-4.125,-4.5837,-5.1625,-5.8686,-6.8635,-7.6039,-8.1987,-8.86,-9.1681,-9.2276,-5.093,-5.1147,-5.1039,-5.1024,-4.7792,-4.4872,-4.4176,-4.107,-3.8613,-3.8184,-3.7891,-3.75,-3.6934,-3.6621,-3.6172,-3.5449,-3.5391,-3.4677,-3.3096,-3.2113,-3.1308,-3.0405,-2.9794,-2.8719,-2.7305,-2.7064,-2.6575,-2.5485,-2.5359,-2.5413,-2.5429,-2.5156,-2.4772,-2.4198,-2.2111,-2.1034,-2.0521,-1.7642,-1.6434,-1.6768,-1.6768,-1.7769,-1.9148,-1.9746,-2.0195,-2.0131,-1.8329,-1.6744,-1.5399,-1.3198,-1.2508,-1.24,-1.2257,-1.1302,-1.0106,-1.0207,-1.0457,-1.052,-1.0503,-1.164,-1.2822,-1.2963,-1.318,-1.3403,-1.3403,-1.3403,-1.3887,-1.535,-1.5554,-1.6089,-1.7563,-1.772,-1.7038,-1.5585,-1.592,-1.5504,-1.2748,-1.3538,-1.4337,-1.433,-1.4844,-1.5317,-1.5855,-1.4777,-1.3937,-1.3796,-1.5147,-1.5185,-1.3363,-1.3132,-1.3132,-1.305,-1.1766,-1.1227,-1.1289,-0.5911,-0.1406,0.2116,0.3723,0.0179,-0.8151,-1.0784,-1.5512,-2.1979,-2.8207,-3.4334,-4.038,-4.4756,-5.1087,-5.8962,-6.8838,-7.6434,-8.2684,-8.9954,-9.3258,-9.3678,-4.949,-5.0017,-5.0017,-4.8707,-4.6841,-4.4826,-4.2513,-4.0464,-3.9043,-3.8613,-3.7812,-3.7285,-3.7285,-3.6523,-3.584,-3.543,-3.5391,-3.4375,-3.2016,-2.9509,-2.8331,-2.9076,-2.8264,-2.7186,-2.5968,-2.5501,-2.5501,-2.5968,-2.4625,-2.3925,-2.394,-2.2614,-2.1213,-1.9785,-1.9785,-1.8932,-1.7623,-1.5718,-1.4943,-1.5119,-1.5261,-1.5371,-1.5693,-1.7815,-1.8714,-1.8454,-1.645,-1.5945,-1.5589,-1.3404,-1.2732,-1.2712,-1.2434,-0.9708,-0.6414,-0.6257,-0.6257,-0.6257,-0.6257,-0.9253,-1.254,-1.2976,-1.318,-1.3403,-1.3403,-1.3403,-1.3403,-1.3403,-1.3526,-1.3634,-1.3634,-1.3505,-1.3356,-1.32,-1.3057,-1.2915,-1.2759,-1.2735,-1.2849,-1.2688,-1.284,-1.1259,-0.6755,-0.6221,-0.6303,-0.6303,-1.0709,-1.3528,-1.3695,-1.3505,-1.3318,-1.333,-0.8787,-0.6438,-0.668,-0.2281,0.4781,1.4323,1.4289,0.414,-1.412,-1.4157,-1.7902,-2.5003,-3.0831,-3.5159,-3.8628,-4.5976,-5.251,-5.9039,-6.9371,-7.6049,-8.0832,-8.8915,-9.2249,-9.212,-4.8912,-4.7868,-4.694,-4.6921,-4.4007,-4.1433,-4.0751,-3.9091,-3.7812,-3.7695,-3.7207,-3.6738,-3.6426,-3.5918,-3.5527,-3.541,-3.5391,-3.4375,-3.215,-2.9509,-2.7523,-2.6295,-2.6595,-2.6011,-2.4301,-2.4193,-2.3054,-2.075,-2.0426,-2.032,-2.0462,-1.9105,-1.8932,-1.9669,-1.7444,-1.6177,-1.558,-1.3798,-1.3137,-1.3188,-1.3181,-1.4252,-1.5743,-1.6353,-1.6787,-1.6809,-1.6324,-1.5058,-1.3756,-1.3178,-1.2976,-1.2396,-0.9143,-0.9327,-0.9512,-0.3537,-0.4023,-0.6281,-0.6267,-0.9288,-1.2533,-1.303,-1.3214,-1.3431,-1.3403,-1.3485,-1.3559,-1.3559,-1.3675,-1.3777,-1.3777,-1.3743,-1.3668,-1.3378,-1.3405,-1.3398,-1.2938,-1.3138,-1.2011,-0.8835,-1.1402,-1.2803,-1.1328,-0.5548,-0.1914,-0.1896,-0.6052,-1.0234,-1.3535,-1.3653,-1.3653,-1.3376,-1.2009,-0.9802,-0.6715,-0.2306,0.4815,1.4256,0.7506,0.1249,-0.4485,-0.9423,-1.7554,-2.7953,-3.0097,-3.4648,-4.0806,-4.3384,-4.7358,-5.2377,-6.0484,-5.7095,-4.8352,-5.3271,-4.6107,-3.3668,-4.5489,-4.4436,-4.345,-4.331,-4.1197,-3.9302,-3.8644,-3.745,-3.6797,-3.6797,-3.6269,-3.5801,-3.5527,-3.4432,-3.3766,-3.3766,-3.2819,-3.1493,-3.0155,-2.7826,-2.5906,-2.4395,-2.407,-2.3263,-2.1864,-2.1601,-2.0195,-1.7488,-1.773,-1.7951,-1.8138,-1.7555,-1.747,-1.7806,-1.608,-1.4757,-1.3968,-1.281,-1.2406,-1.2454,-1.2338,-1.3223,-1.4594,-1.4594,-1.4735,-1.4953,-1.5062,-1.4275,-1.3139,-1.3166,-1.3091,-1.2173,-0.777,-0.6816,-0.652,-0.1473,-0.1797,-0.3752,-0.3781,-0.5636,-0.7999,-0.9953,-1.1902,-1.3405,-1.3439,-1.3519,-1.3586,-1.3586,-1.37,-1.3794,-1.3794,-1.3973,-1.3953,-1.3713,-1.2134,-1.0902,-1.0506,-1.2252,-1.246,-0.9726,-0.8684,-0.8181,-0.8054,-0.3179,-0.0,-0.0,-0.2456,-0.5263,-0.8265,-1.0204,-1.1992,-1.3637,-1.3819,-1.0636,-0.4093,-0.143,0.1074,0.3036,0.089,-0.2665,-0.7637,-1.4674,-2.1925,-2.9433,-3.2832,-3.697,-4.1695,-4.3227,-4.53,-4.8505,-5.7353,-4.8229,-2.8855,-1.9437,-1.181,-0.5753,-4.0423,-4.041,-3.9914,-3.8608,-3.8298,-3.7524,-3.5724,-3.5471,-3.5471,-3.5471,-3.4718,-3.4197,-3.4236,-3.2337,-3.105,-3.1121,-2.8664,-2.6952,-2.6937,-2.5296,-2.3955,-2.3394,-2.1322,-1.9865,-1.8921,-1.8499,-1.7532,-1.5879,-1.6241,-1.6549,-1.6797,-1.691,-1.6369,-1.5102,-1.4999,-1.4121,-1.2718,-1.2569,-1.2596,-1.2725,-1.244,-1.2508,-1.2773,-1.2786,-1.2956,-1.32,-1.322,-1.3315,-1.3397,-1.3261,-1.3152,-1.2249,-0.7803,-0.3415,-0.0,-0.0,-0.0,-0.0,-0.0,-0.0,-0.0846,-0.4788,-0.8924,-1.224,-1.2693,-1.273,-1.2916,-1.3095,-1.3197,-1.3117,-1.3117,-1.3475,-1.3832,-1.4204,-1.0344,-0.7125,-0.6255,-0.959,-1.2247,-1.2259,-0.492,-0.0,-0.0,-0.0,-0.0,-0.0,-0.0,-0.0,-0.0,-0.4111,-0.8421,-1.2806,-1.3911,-0.972,-0.018,-0.0,-0.4848,-1.4269,-0.5546,-0.7477,-1.9138,-2.5311,-2.8632,-2.9735,-3.6962,-4.0898,-4.1988,-4.4358,-4.5184,-4.591,-5.6819,-4.4751,-1.7697,0.9894,1.2955,0.404,-3.9386,-3.8517,-3.7171,-3.5751,-3.4448,-3.2887,-3.1112,-3.0839,-3.0839,-3.0839,-3.0183,-2.9837,-2.9997,-2.9168,-2.8736,-2.9327,-2.7972,-2.6863,-2.6748,-2.5184,-2.4048,-2.3688,-2.1574,-1.9628,-1.8002,-1.7317,-1.6089,-1.4358,-1.4414,-1.4692,-1.4771,-1.3696,-1.38,-1.491,-1.3588,-1.2894,-1.2718,-1.2569,-1.2657,-1.2895,-1.2712,-1.2813,-1.3091,-1.3214,-1.3295,-1.3383,-1.3614,-1.3648,-1.3573,-1.3539,-1.3458,-1.2523,-0.7987,-0.3494,-0.0,-0.0,-0.0,-0.0,-0.0,-0.0,-0.0173,-0.105,-0.2104,-0.3849,-0.7295,-0.8201,-0.8245,-0.8245,-0.8493,-0.8558,-0.8558,-0.8558,-0.9824,-1.3662,-1.3458,-1.0002,-0.2493,-0.23,-0.2826,-0.2849,-0.1241,-0.0,-0.0,-0.0,-0.0,-0.0,-0.0,-0.0,-0.0,-0.0897,-0.1973,-0.3052,-1.0461,-0.9734,-0.018,-0.0,-0.4848,-1.4276,-1.2333,-1.4316,-1.9542,-2.2142,-2.6484,-3.2229,-3.6052,-4.0037,-4.3687,-4.2851,-4.0262,-3.7565,-4.3772,-2.6934,0.2831,1.8716,3.3642,4.6886,-3.3749,-3.2991,-3.2275,-3.1632,-3.0839,-2.9877,-2.876,-2.8743,-2.8793,-2.8627,-2.8262,-2.7982,-2.8163,-2.721,-2.6517,-2.6553,-2.5953,-2.5726,-2.5712,-2.397,-2.3041,-2.2903,-1.9872,-1.7822,-1.673,-1.5354,-1.4026,-1.2765,-1.2856,-1.2932,-1.3009,-1.2269,-1.2571,-1.3542,-1.2824,-1.2549,-1.2623,-1.2617,-1.2745,-1.2949,-1.2793,-1.2908,-1.3193,-1.3342,-1.3444,-1.3539,-1.3763,-1.379,-1.3729,-1.3729,-1.3695,-1.3147,-1.0736,-0.5444,-0.0,-0.0,-0.0,-0.0,-0.0,-0.0,-0.0,-0.0,-0.0,-0.0533,-0.2998,-0.3537,-0.3549,-0.3549,-0.3566,-0.3759,-0.3759,-0.3759,-0.4478,-0.7004,-0.7545,-0.5747,-0.0718,-0.0,-0.0,-0.0,-0.0,-0.0,-0.0,-0.0,-0.0,-0.0,-0.0,-0.0,-0.0,-0.0,-0.0,-0.0,-0.4889,-0.5084,-0.0,-0.0,-0.3823,-1.1118,-1.3519,-1.679,-2.075,-2.281,-2.7159,-3.3127,-3.5773,-3.8494,-4.0789,-3.977,-3.6691,-3.2541,-3.3722,-1.6295,1.0994,2.3515,4.0089,5.6636,-2.7838,-2.7586,-2.7734,-2.7702,-2.7768,-2.7538,-2.6985,-2.7046,-2.7126,-2.643,-2.6252,-2.6137,-2.5773,-2.4771,-2.3789,-2.3168,-2.3126,-2.3254,-2.3484,-2.2079,-2.1323,-2.1216,-1.7832,-1.592,-1.5641,-1.3649,-1.2291,-1.1694,-1.1667,-1.1714,-1.183,-1.183,-1.1898,-1.2033,-1.2332,-1.2481,-1.2508,-1.2637,-1.2793,-1.2949,-1.282,-1.2929,-1.3193,-1.3397,-1.3539,-1.3654,-1.3851,-1.3905,-1.3878,-1.3878,-1.3707,-1.3707,-1.3713,-0.8482,-0.2081,-0.0526,-0.0,-0.0,-0.0,-0.0,-0.0,-0.0,-0.0,-0.0,-0.0,-0.0,-0.0,-0.0,-0.0,-0.0,-0.0,-0.0,-0.0,-0.0,-0.0,-0.0,-0.0,-0.0,-0.0,-0.0,-0.0,-0.0,-0.0,-0.0,-0.0,-0.0,-0.0,-0.0,-0.0,-0.0,-0.0,-0.0,-0.0,-0.0,-0.0,-0.0,-0.2589,-0.7572,-1.2518,-1.7246,-2.1949,-2.4197,-2.804,-3.3165,-3.5256,-3.6436,-3.7003,-3.642,-3.374,-2.97,-2.6253,-1.1588,0.9291,2.2566,3.6027,4.7522,-2.709,-2.7421,-2.7214,-2.6126,-2.592,-2.5368,-2.3732,-2.3638,-2.3079,-2.1371,-2.0946,-2.0328,-1.8997,-1.881,-1.8715,-1.8529,-1.8717,-1.8991,-1.9022,-1.8943,-1.9008,-1.9214,-1.7089,-1.5912,-1.5855,-1.3995,-1.2603,-1.1999,-1.187,-1.1809,-1.183,-1.183,-1.1843,-1.1877,-1.2182,-1.2386,-1.2501,-1.2522,-1.2698,-1.2963,-1.2935,-1.303,-1.3214,-1.3627,-1.3715,-1.3682,-1.4089,-1.415,-1.4041,-1.4041,-1.3953,-1.3851,-1.3885,-1.3191,-1.0589,-0.2455,-0.0,-0.0,-0.0,-0.0,-0.0,-0.0,-0.0,-0.0,-0.0,-0.0,-0.0,-0.0,-0.0,-0.0,-0.0,-0.0,-0.0,-0.0,-0.0,-0.0,-0.0,-0.0,-0.0,-0.0,-0.0,-0.0,-0.0,-0.0,-0.0,-0.0,-0.0,-0.0,-0.0,-0.0,-0.0,-0.0,-0.0,-0.0,-0.0,-0.0,-0.2598,-0.7652,-1.2737,-1.754,-2.2171,-2.2543,-2.6592,-3.3305,-3.3399,-3.4658,-3.6625,-3.4439,-3.1989,-2.8934,-2.2806,-1.5118,-0.585,0.9491,2.0075,2.6848,-2.3004,-2.2918,-2.2673,-2.1059,-2.0833,-2.0509,-1.9565,-1.9657,-1.9503,-1.8519,-1.8464,-1.837,-1.7753,-1.7809,-1.8,-1.812,-1.837,-1.8421,-1.8421,-1.7569,-1.7115,-1.7052,-1.5398,-1.4396,-1.4373,-1.3514,-1.3497,-1.4099,-1.2877,-1.2714,-1.3707,-1.3707,-1.3707,-1.3714,-1.3814,-1.3369,-1.2386,-1.2386,-1.2556,-1.2827,-1.2739,-1.2895,-1.3207,-1.3485,-1.3654,-1.3797,-1.417,-1.4258,-1.4197,-1.4197,-1.4156,-1.4102,-1.4116,-1.4136,-1.3267,-0.922,-0.4258,-0.0,-0.0,-0.0,-0.0,-0.0,-0.0,-0.0,-0.0,-0.0,-0.0,-0.0,-0.0,-0.0,-0.0,-0.0,-0.0,-0.0,-0.0,-0.0,-0.0,-0.0,-0.0,-0.0,-0.0,-0.0,-0.0,-0.0,-0.0,-0.0,-0.0,-0.0,-0.0,-0.0,-0.0,-0.0,-0.0,-0.0,-0.0,-0.0,-0.2638,-0.7733,-1.2699,-1.7009,-2.0391,-2.1673,-2.4992,-2.9449,-3.0602,-3.1768,-3.2587,-3.1421,-2.9542,-2.698,-2.4151,-1.8811,-1.1958,-0.4686,0.1588,0.624]},{"header":{"parameterUnit":"m.s-1","parameterCategory":1,"la1":30.6,"la2":28.766,"lo1":-90.7593,"lo2":-88.6598,"dy":0.0162,"dx":0.0183,"nx":116,"ny":114,"refTime":"2023-06-20T12:00:00:Z","depth":0,"parameterNumber":3,"parameterNumberName":"V-component_of_WINDS"},"data":[0.0,0.0,0.0,0.0,0.0,0.0,0.0,0.0,0.0,0.0,0.0,0.0,0.0,0.0,0.0,0.0,0.0,0.0,0.0,0.0,0.0,0.0,0.0,0.0,0.0,0.0,0.0,0.0,0.0,0.0,0.0,0.0,0.0,0.0,0.0,0.0,0.0,0.0,0.0,0.0,0.0,0.0,0.0,0.0,0.0,0.0,0.0,0.0,0.0,0.0,0.0,0.0,0.0,0.0,0.0,0.0,0.0,0.0,0.0,0.0,0.0,0.0,0.0,0.0,0.0,0.0,0.0,0.0,0.0,0.0,0.0,0.0,0.0,0.0,0.0,0.0,0.0,0.0,0.0,0.0,0.0,0.0,0.0,0.0,0.0,0.0,0.0,0.0,0.0,0.0,0.0,0.0,0.0,0.0,0.0,0.0,0.0,0.0,0.0,0.0,0.0,0.0,0.0,0.0,0.0,0.0,0.0,0.0,0.0,0.0,0.0,0.0,0.0,0.0,0.0,0.0,0.0,0.0,0.0,0.0,0.0,0.0,0.0,0.0,0.0,0.0,0.0,0.0,0.0,0.0,0.0,0.0,0.0,0.0,0.0,0.0,0.0,0.0,0.0,0.0,0.0,0.0,0.0,0.0,0.0,0.0,0.0,0.0,0.0,0.0,0.0,0.0,0.0,0.0,0.0,0.0,0.0,0.0,0.0,0.0,0.0,0.0,0.0,0.0,0.0,0.0,0.0,0.0,0.0,0.0,0.0,0.0,0.0,0.0,0.0,0.0,0.0,0.0,0.0,0.0,0.0,0.0,0.0,0.0,0.0,0.0,0.0,0.0,0.0,0.0,0.0,0.0,0.0,0.0,0.0,0.0,0.0,0.0,0.0,0.0,0.0,0.0,0.0,0.0,0.0,0.0,0.0,0.0,0.0,0.0,0.0,0.0,0.0,0.0,0.0,0.0,0.0,0.0,0.0,0.0,0.0,0.0,0.0,0.0,0.0,0.0,0.0,0.0,0.0,0.0,0.0,0.0,0.0,0.0,0.0,0.0,0.0,0.0,0.0,0.0,0.0,0.0,0.0,0.0,0.0,0.0,0.0,0.0,0.0,0.0,0.0,0.0,0.0,0.0,0.0,0.0,0.0,0.0,0.0,0.0,0.0,0.0,0.0,0.0,0.0,0.0,0.0,0.0,0.0,0.0,0.0,0.0,0.0,0.0,0.0,0.0,0.0,0.0,0.0,0.0,0.0,0.0,0.0,0.0,0.0,0.0,0.0,0.0,0.0,0.0,0.0,0.0,0.0,0.0,0.0,0.0,0.0,0.0,0.0,0.0,0.0,0.0,0.0,0.0,0.0,0.0,0.0,0.0,0.0,0.0,0.0,0.0,0.0,0.0,0.0,0.0,0.0,0.0,0.0,0.0,0.0,0.0,0.0,0.0,0.0,0.0,0.0,0.0,0.0,0.0,0.0,0.0,0.0,0.0,0.0,0.0,0.0,0.0,0.0,0.0,0.0,0.0,0.0,0.0,0.0,0.0,0.0,0.0,0.0,0.0,0.0,0.0,0.0,0.0,0.0,0.0,0.0,0.0,0.0,0.0,0.0,0.0,0.0,0.0,0.0,0.0,0.0,0.0,0.0,0.0,0.0,0.0,0.0,0.0,0.0,0.0,0.0,0.0,0.0,0.0,0.0,0.0,0.0,0.0,0.0,0.0,0.0,0.0,0.0,0.0,0.0,0.0,0.0,0.0,0.0,0.0,0.0,0.0,0.0,0.0,0.0,0.0,0.0,0.0,0.0,0.0,0.0,0.0,0.0,0.0,0.0,0.0,0.0,0.0,0.0,0.0,0.0,0.0,0.0,0.0,0.0,0.0,0.0,0.0,0.0,0.0,0.0,0.0,0.0,0.0,0.0,0.0,0.0,0.0,0.0,0.0,0.0,0.0,0.0,0.0,0.0,0.0,0.0,0.0,0.0,0.0,0.0,0.0,0.0,0.0,0.0,0.0,0.0,0.0,0.0,0.0,0.0,0.0,0.0,0.0,0.0,0.0,0.0,0.0,0.0,0.0,0.0,0.0,0.0,0.0,0.0,0.0,0.0,0.0,0.0,0.0,0.0,0.0,0.0,0.0,0.0,0.0,0.0,0.0,0.0,0.0,0.0,0.0,0.0,0.0,0.0,0.0,0.0,0.0,0.0,0.0,0.0,0.0,0.0,0.0,0.0,0.0,0.0,0.0,0.0,0.0,0.0,0.0,0.0,0.0,0.0,0.0,0.0,0.0,0.0,0.0,0.0,0.0,0.0,0.0,0.0,0.0,0.0,0.0,0.0,0.0,0.0,0.0,0.0,0.0,0.0,0.0,0.0,0.0,0.0,0.0,0.0,0.0,0.0,0.0,0.0,0.0,0.0,0.0,0.0,0.0,0.0,0.0,0.0,0.0,0.0,0.0,0.0,0.0,0.0,0.0,0.0,0.0,0.0,0.0,0.0,0.0,0.0,0.0,0.0,0.0,0.0,0.0,0.0,0.0,0.0,0.0,0.0,0.0,0.0,0.0,0.0,0.0,0.0,0.0,0.0,0.0,0.0,0.0,0.0,0.0,0.0,0.0,0.0,0.0,0.0,0.0,0.0,0.0,0.0,0.0,0.0,0.0,0.0,0.0,0.0,0.0,0.0,0.0,0.0,0.0,0.0,0.0,0.0,0.0,0.0,0.0,0.0,0.0,0.0,0.0,0.0,0.0,0.0,0.0,0.0,0.0,0.0,0.0,0.0,0.0,0.0,0.0,0.0,0.0,0.0,0.0,0.0,0.0,0.0,0.0,0.0,0.0,0.0,0.0,0.0,0.0,0.0,0.0,0.0,0.0,0.0,0.0,0.0,0.0,0.0,0.0,0.0,0.0,0.0,0.0,0.0,0.0,0.0,0.0,0.0,0.0,0.0,0.0,0.0,0.0,0.0,0.0,0.0,0.0,0.0,0.0,0.0,0.0,0.0,0.0,0.0,0.0,0.0,0.0,0.0,0.0,0.0,0.0,0.0,0.0,0.0,0.0,0.0,0.0,0.0,0.0,0.0,0.0,0.0,0.0,0.0,0.0,0.0,0.0,0.0,0.0,0.0,0.0,0.0,0.0,0.0,0.0,0.0,0.0,0.0,0.0,0.0,0.0,0.0,0.0,0.0,0.0,0.0,0.0,0.0,0.0,0.0,0.0,0.0,0.0,0.0,0.0,0.0,0.0,0.0,0.0,0.0,0.0,0.0,0.0,0.0,0.0,0.0,0.0,0.0,0.0,0.0,0.0,0.0,0.0,0.0,0.0,0.0,0.0,0.0,0.0,0.0,0.0,0.0,0.0,0.0,0.0,0.0,0.0,0.0,0.0,0.0,0.0,0.0,0.0,0.0,0.0,0.0,0.0,0.0,0.0,0.0,0.0,0.0,0.0,0.0,0.0,0.0,0.0,0.0,0.0,0.0,0.0,0.0,0.0,0.0,0.0,0.0,0.0,0.0,0.0,0.0,0.0,0.0,0.0,0.0,0.0,0.0,0.0,0.0,0.0,0.0,0.0,0.0,0.0,0.0,0.0,0.0,0.0,0.0,0.0,0.0,0.0,0.0,0.0,0.0,0.0,0.0,0.0,0.0,0.0,0.0,0.0,0.0,0.0,0.0,0.0,0.0,0.0,0.0,0.0,0.0,0.0,0.0,0.0,0.0,0.0,0.0,0.0,0.0,0.0,0.0,0.0,0.0,0.0,0.0,0.0,0.0,0.0,0.0,0.0,0.0,0.0,0.0,0.0,0.0,0.0,0.0,0.0,0.0,0.0,0.0,0.0,0.0,0.0,0.0,0.0,0.0,0.0,0.0,0.0,0.0,0.0,0.0,0.0,0.0,0.0,0.0,0.0,0.0,0.0,0.0,0.0,0.0,0.0,0.0,0.0,0.0,0.0,0.0,0.0,0.0,0.0,0.0,0.0,0.0,0.0,0.0,0.0,0.0,0.0,0.0,0.0,0.0,0.0,0.0,0.0,0.0,0.0,0.0,0.0,0.0,0.0,0.0,0.0,0.0,0.0,0.0,0.0,0.0,0.0,0.0,0.0,0.0,0.0,0.0,0.0,0.0,0.0,0.0,0.0,0.0,0.0,0.0,0.0,0.0,0.0,0.0,0.0,0.0,0.0,0.0,0.0,0.0,0.0,0.0,0.0,0.0,0.0,0.0,0.0,0.0,0.0,0.0,0.0,0.0,0.0,0.0,0.0,0.0,0.0,0.0,0.0,0.0,0.0,0.0,0.0,0.0,0.0,0.0,0.0,0.0,0.0,0.0,0.0,0.0,0.0,0.0,0.0,0.0,0.0,0.0,0.0,0.0,0.0,0.0,0.0,0.0,0.0,0.0,0.0,0.0,0.0,0.0,0.0,0.0,0.0,0.0,0.0,0.0,0.0,0.0,0.0,0.0,0.0,0.0,0.0,0.0,0.0,0.0,0.0,0.0,0.0,0.0,0.0,0.0,0.0,0.0,0.0,0.0,0.0,0.0,0.0,0.0,0.0,0.0,0.0,0.0,0.0,0.0,0.0,0.0,0.0,0.0,0.0,0.0,0.0,0.0,0.0,0.0,0.0,0.0,0.0,0.0,0.0,0.0,0.0,0.0,0.0,0.0,0.0,0.0,0.0,0.0,0.0,0.0,0.0,0.0,0.0,0.0,0.0,0.0,0.0,0.0,0.0,0.0,0.0,0.0,0.0,0.0,0.0,0.0,0.0,0.0,0.0,0.0,0.0,0.0,0.0,0.0,0.0,0.0,0.0,0.0,0.0,0.0,0.0,0.0,0.0,0.0,0.0,0.0,0.0,0.0,0.0,0.0,0.0,0.0,0.0,0.0,0.0,0.0,0.0,0.0,0.0,0.0,0.0,0.0,0.0,0.0,0.0,0.0,0.0,0.0,0.0,0.0,0.0,0.0,0.0,0.0,0.0,0.0,0.0,0.0,0.0,0.0,0.0,0.0,0.0,0.0,0.0,0.0,0.0,0.0,0.0,0.0,0.0,0.0,0.0,0.0,0.0,0.0,0.0,0.0,0.0,0.0,0.0,0.0,0.0,0.0,0.0,0.0,0.0,0.0,0.0,0.0,0.0,0.0,0.0,0.0,0.0,0.0,0.0,0.0,0.0,0.0,0.0,0.0,0.0,0.0,0.0,0.0,0.0,0.0,0.0,0.0,0.0,0.0,0.0,0.0,0.0,0.0,0.0,0.0,0.0,0.0,0.0,0.0,0.0,0.0,0.0,0.0,0.0,0.0,0.0,0.0,0.0,0.0,0.0,0.0,0.0,0.0,0.0,0.0,0.0,0.0,0.0,0.0,0.0,0.0,0.0,0.0,0.0,0.0,0.0,0.0,0.0,0.0,0.0,0.0,0.0,0.0,0.0,0.0,0.0,0.0,0.0,0.0,0.0,0.0,0.0,0.0,0.0,0.0,0.0,0.0,0.0,0.0,0.0,0.0,0.0,0.0,0.0,0.0,0.0,0.0,0.0,0.0,0.0,0.0,0.0,0.0,0.0,0.0,0.0,0.0,0.0,0.0,0.0,0.0,0.0,0.0,0.0,0.0,0.0,0.0,0.0,0.0,0.0,0.0,0.0,0.0,0.0,0.0,0.0,0.0,0.0,0.0,0.0,0.0,0.0,0.0,0.0,0.0,0.0,0.0,0.0,0.0,0.0,0.0,0.0,0.0,0.0,0.0,0.0,0.0,0.0,0.0,0.0,0.0,0.0,0.0,0.0,0.0,0.0,0.0,0.0,0.0,0.0,0.0,0.0,0.0,0.0,0.0,0.0,0.0,0.0,0.0,0.0,0.0,0.0,0.0,0.0,0.0,0.0,0.0,0.0,0.0,0.0,0.0,0.0,0.0,0.0,0.0,0.0,0.0,0.0,0.0,0.0,0.0,0.0,0.0,0.0,0.0,0.0,0.0,0.0,0.0,0.0,0.0,0.0,0.0,0.0,0.0,0.0,0.0,0.0,0.0,0.0,0.0,0.0,0.0,0.0,0.0,0.0,0.0,0.0,0.0,0.0,0.0,0.0,0.0,0.0,0.0,0.0,0.0,0.0,0.0,0.0,-4.3638,0.0,0.0,0.0,0.0,0.0,0.0,0.0,0.0,0.0,0.0,0.0,0.0,0.0,0.0,0.0,0.0,0.0,0.0,0.0,0.0,0.0,0.0,0.0,0.0,0.0,0.0,0.0,0.0,0.0,0.0,0.0,0.0,0.0,0.0,0.0,0.0,0.0,0.0,0.0,0.0,0.0,0.0,0.0,0.0,0.0,0.0,0.0,0.0,0.0,0.0,0.0,0.0,0.0,0.0,0.0,0.0,0.0,0.0,0.0,0.0,0.0,0.0,0.0,0.0,0.0,0.0,0.0,0.0,0.0,0.0,0.0,0.0,0.0,0.0,0.0,0.0,0.0,0.0,0.0,0.0,0.0,0.0,0.0,0.0,0.0,0.0,0.0,0.0,0.0,0.0,0.0,0.0,0.0,0.0,0.0,0.0,0.0,0.0,0.0,0.0,0.0,0.0,0.0,0.0,0.0,0.0,0.0,0.0,0.0,0.0,0.0,0.0,0.0,0.0,0.0,0.0,-4.6262,0.0,0.0,0.0,0.0,0.0,0.0,0.0,0.0,0.0,0.0,0.0,0.0,0.0,0.0,0.0,0.0,0.0,0.0,0.0,0.0,0.0,0.0,0.0,0.0,0.0,0.0,0.0,0.0,0.0,0.0,0.0,0.0,0.0,0.0,0.0,0.0,0.0,0.0,0.0,0.0,0.0,0.0,0.0,0.0,0.0,0.0,0.0,0.0,0.0,0.0,0.0,0.0,0.0,0.0,0.0,0.0,0.0,0.0,0.0,0.0,0.0,0.0,0.0,0.0,0.0,0.0,0.0,0.0,0.0,0.0,0.0,0.0,0.0,0.0,0.0,0.0,0.0,0.0,0.0,0.0,0.0,0.0,0.0,0.0,0.0,0.0,0.0,0.0,0.0,0.0,0.0,0.0,0.0,0.0,0.0,0.0,0.0,0.0,0.0,0.0,0.0,0.0,0.0,0.0,0.0,0.0,0.0,0.0,-5.1929,-5.3095,-5.4401,-5.4521,-5.464,-5.464,-5.3144,-5.1828,-5.0601,-4.8865,0.0,0.0,0.0,0.0,0.0,0.0,0.0,0.0,0.0,0.0,0.0,0.0,0.0,0.0,0.0,0.0,0.0,0.0,0.0,0.0,0.0,0.0,0.0,0.0,0.0,0.0,0.0,0.0,0.0,0.0,0.0,0.0,0.0,0.0,0.0,0.0,0.0,0.0,-2.6232,-2.7104,-2.7635,-2.7876,-3.057,0.0,0.0,0.0,0.0,0.0,0.0,0.0,0.0,0.0,0.0,0.0,0.0,0.0,0.0,0.0,0.0,0.0,0.0,0.0,0.0,0.0,0.0,0.0,0.0,0.0,0.0,0.0,0.0,0.0,0.0,0.0,0.0,0.0,0.0,0.0,0.0,0.0,0.0,0.0,0.0,0.0,0.0,0.0,-3.2106,-3.1656,0.0,0.0,0.0,0.0,0.0,0.0,0.0,0.0,0.0,0.0,0.0,0.0,0.0,-4.5094,-4.8509,-5.2162,-5.4369,-5.5334,-5.8286,-5.9558,-5.9189,-5.9787,-6.0386,-6.0924,-6.1253,0.0,-5.2725,-5.1887,0.0,0.0,0.0,0.0,0.0,0.0,0.0,0.0,0.0,0.0,0.0,0.0,0.0,0.0,0.0,0.0,0.0,0.0,0.0,0.0,0.0,0.0,0.0,0.0,0.0,0.0,0.0,0.0,0.0,0.0,0.0,0.0,0.0,0.0,0.0,0.0,-2.6104,-2.5928,-2.5557,-2.712,-2.7945,-2.8006,-3.0767,-3.314,-3.5155,-3.6765,0.0,0.0,0.0,0.0,0.0,0.0,0.0,0.0,0.0,0.0,0.0,0.0,0.0,0.0,0.0,0.0,0.0,0.0,0.0,0.0,0.0,0.0,0.0,0.0,0.0,0.0,0.0,0.0,0.0,0.0,0.0,0.0,0.0,0.0,0.0,0.0,0.0,0.0,0.0,-3.2174,-3.1656,-3.0367,-3.1328,-3.1464,0.0,0.0,0.0,0.0,0.0,0.0,0.0,0.0,0.0,-4.4644,-4.7671,-5.0916,-5.4478,-5.7968,-6.0176,-6.1164,-6.3378,-6.4246,-6.3977,-6.4276,-6.4575,-6.4874,-6.5144,-6.3408,-6.0176,-5.7274,-5.497,-5.2965,0.0,0.0,0.0,0.0,-4.7515,-4.7207,0.0,0.0,0.0,0.0,0.0,0.0,0.0,0.0,0.0,0.0,0.0,0.0,0.0,0.0,0.0,0.0,0.0,0.0,0.0,0.0,0.0,0.0,0.0,0.0,0.0,0.0,0.0,0.0,-2.5793,-2.648,-2.6518,-2.8186,-2.8965,-2.9055,-3.1866,-3.3487,-3.4335,-3.652,-3.7982,0.0,0.0,0.0,0.0,0.0,0.0,0.0,0.0,0.0,0.0,0.0,0.0,0.0,0.0,0.0,0.0,0.0,0.0,0.0,0.0,0.0,0.0,0.0,0.0,0.0,0.0,0.0,0.0,0.0,0.0,0.0,0.0,0.0,0.0,0.0,0.0,0.0,0.0,-3.2103,-3.1903,-2.9886,-3.2066,-3.2863,0.0,0.0,0.0,0.0,0.0,0.0,-4.1156,-4.3756,-4.6921,-5.0679,-5.3977,-5.7283,-6.0706,-6.2988,-6.4799,-6.6071,-6.7029,-6.7508,-6.7508,-6.7687,-6.7657,-6.7508,-6.7508,-6.7238,-6.643,-6.1972,-5.9338,-5.7812,-5.467,-5.3107,-5.2524,-5.1366,-5.0179,-4.9423,0.0,0.0,0.0,0.0,0.0,0.0,0.0,0.0,0.0,0.0,0.0,0.0,0.0,0.0,0.0,0.0,0.0,0.0,0.0,0.0,0.0,0.0,0.0,0.0,0.0,0.0,0.0,-2.6891,-2.6663,-2.7641,-2.9964,-3.0547,-3.0762,-3.0878,-3.3828,-3.4786,-3.4074,-3.5587,-3.7175,-3.8603,0.0,0.0,0.0,0.0,0.0,0.0,0.0,0.0,0.0,0.0,0.0,0.0,0.0,0.0,0.0,0.0,0.0,0.0,0.0,0.0,0.0,0.0,0.0,0.0,0.0,0.0,0.0,0.0,0.0,0.0,0.0,0.0,0.0,0.0,0.0,0.0,0.0,0.0,0.0,-3.1818,-3.5561,0.0,0.0,0.0,0.0,-3.7646,-3.8755,-4.1938,-4.7495,-4.9898,-5.4029,-6.0081,-6.2716,-6.5182,-6.7444,-6.7593,-6.8136,-6.8794,-6.8884,-6.8884,-6.8914,-6.9542,-6.9482,-6.8884,-6.8884,-6.8884,-6.8525,-6.4515,-6.2091,-6.0655,-5.7902,-5.5649,-5.3789,-5.3759,-5.0984,-4.7812,0.0,0.0,0.0,0.0,0.0,0.0,0.0,0.0,0.0,0.0,0.0,0.0,0.0,0.0,0.0,0.0,0.0,0.0,0.0,0.0,0.0,0.0,0.0,0.0,0.0,0.0,-2.2159,-2.4798,-2.5611,-2.6971,-2.9053,-3.0315,-3.1441,-3.2416,-3.4403,-3.5631,-3.6285,-3.7394,-3.8201,-3.8644,-3.7833,-3.8432,0.0,0.0,0.0,0.0,0.0,0.0,0.0,0.0,0.0,0.0,0.0,0.0,0.0,0.0,0.0,0.0,0.0,0.0,0.0,0.0,0.0,0.0,0.0,0.0,0.0,0.0,0.0,0.0,0.0,0.0,0.0,0.0,0.0,0.0,0.0,0.0,0.0,-3.531,-3.8783,0.0,-3.9939,-4.0814,-4.183,-4.2722,-4.5882,-4.9359,-5.2917,-5.6624,-6.0194,-6.3757,-6.6197,-6.7842,-6.8645,-6.9871,-7.041,-7.0231,-7.1098,-7.1517,-7.1517,-7.1757,-7.1727,-7.1487,-7.1038,-7.062,-7.0081,-6.8256,-6.649,-6.4725,-6.2899,-6.1231,-5.9755,-5.8807,-5.7027,-5.5296,0.0,0.0,0.0,0.0,0.0,0.0,0.0,0.0,0.0,0.0,0.0,0.0,0.0,0.0,0.0,0.0,0.0,0.0,0.0,0.0,0.0,0.0,0.0,0.0,0.0,-2.0814,-2.1757,-2.4252,-2.5797,-2.7445,-2.9275,-3.0937,-3.2207,-3.3191,-3.5178,-3.6595,-3.7559,-3.863,-3.9251,-3.9271,-3.8449,-3.9209,-4.0546,0.0,0.0,0.0,0.0,0.0,0.0,0.0,0.0,0.0,0.0,0.0,0.0,0.0,0.0,0.0,0.0,0.0,0.0,0.0,0.0,0.0,0.0,0.0,0.0,0.0,0.0,0.0,0.0,0.0,0.0,0.0,0.0,0.0,0.0,-3.7774,-3.8923,-3.8046,-4.1757,-4.4202,-4.3926,-4.5347,-4.7096,-4.9102,-5.2193,-5.5532,-5.8893,-6.2352,-6.517,-6.723,-6.9268,-7.032,-7.032,-7.1577,-7.2026,-7.1607,-7.2714,-7.3133,-7.2924,-7.3133,-7.3133,-7.2894,-7.2445,-7.1846,-7.1218,-7.0799,-6.9572,-6.7837,-6.6311,-6.5173,-6.4246,-6.2466,-6.12,-6.0642,0.0,0.0,0.0,0.0,0.0,0.0,0.0,0.0,0.0,0.0,0.0,0.0,0.0,0.0,0.0,0.0,0.0,0.0,0.0,0.0,0.0,0.0,0.0,0.0,-1.9923,-2.1203,-2.3106,-2.5694,-2.7516,-2.9313,-3.0937,-3.2363,-3.3119,-3.3346,-3.6185,-3.7501,-3.7713,-3.9129,-4.0057,-4.0474,-3.9239,-4.0285,-4.2386,0.0,0.0,0.0,0.0,0.0,0.0,0.0,0.0,0.0,0.0,0.0,0.0,0.0,0.0,0.0,0.0,0.0,0.0,0.0,0.0,0.0,0.0,0.0,0.0,0.0,0.0,0.0,0.0,0.0,0.0,0.0,0.0,0.0,-3.8974,-4.0717,-4.1744,-4.0134,-4.4732,-4.7846,-4.7556,-4.9945,-5.31,-5.6558,-5.7329,-5.9884,-6.5232,-6.6764,-6.8576,-7.0949,-7.2235,-7.2924,-7.2924,-7.2924,-7.2954,-7.2954,-7.3612,-7.3582,-7.2954,-7.3642,-7.3582,-7.2954,-7.2924,-7.2535,-7.1906,-7.1876,-7.1128,-6.9812,-6.7837,-6.7059,-6.67,-6.4159,-6.3148,-6.3058,0.0,0.0,0.0,0.0,0.0,0.0,0.0,0.0,0.0,0.0,0.0,0.0,0.0,0.0,0.0,0.0,0.0,0.0,0.0,0.0,0.0,0.0,0.0,0.0,-2.0918,-2.1669,-2.3933,-2.7771,-2.8541,-2.987,-3.1816,-3.2276,-3.3637,-3.5751,-3.6184,-3.759,-3.9699,-3.964,-4.0859,-4.2499,-4.0756,-4.1353,-4.3117,0.0,0.0,0.0,0.0,0.0,0.0,0.0,0.0,0.0,0.0,0.0,0.0,0.0,0.0,0.0,0.0,0.0,0.0,0.0,0.0,0.0,0.0,0.0,0.0,0.0,0.0,0.0,0.0,0.0,0.0,0.0,-4.924,-4.9466,-4.6468,-4.7136,-4.8568,-5.0317,-5.3359,-5.5585,-5.6394,-5.7559,-5.8992,-6.0864,-6.2347,-6.4472,-6.7295,-6.9016,-7.0736,-7.2325,-7.2714,-7.2924,-7.2924,-7.3402,-7.3642,-7.3642,-7.43,-7.427,-7.3642,-7.43,-7.424,-7.3612,-7.3133,-7.2804,-7.2565,-7.1577,-7.0979,-7.056,-6.9542,-6.8256,-6.6849,-6.5502,-6.4218,-6.3053,0.0,0.0,0.0,0.0,0.0,0.0,0.0,0.0,0.0,0.0,0.0,0.0,0.0,0.0,0.0,0.0,0.0,0.0,0.0,0.0,0.0,0.0,0.0,-2.0574,-2.1707,-2.3773,-2.6135,-2.8781,-2.9989,-3.1294,-3.2441,-3.3192,-3.4569,-3.6295,-3.7289,-3.8648,-4.0133,-4.0508,-4.2058,-4.4139,-4.272,-4.3285,-4.5013,-4.4488,-4.4689,-4.5296,-4.5841,-4.6635,-4.728,-4.5882,0.0,0.0,0.0,0.0,0.0,0.0,0.0,0.0,0.0,0.0,0.0,0.0,0.0,0.0,0.0,0.0,0.0,0.0,0.0,0.0,0.0,0.0,0.0,0.0,-5.3164,-5.4567,-5.4359,-5.3524,-5.3557,-5.5547,-5.7425,-5.8962,-6.018,-6.0844,-6.2131,-6.4032,-6.5698,-6.7551,-6.9646,-7.1258,-7.2505,-7.3283,-7.3582,-7.3732,-7.3732,-7.4121,-7.43,-7.43,-7.4689,-7.454,-7.3911,-7.4569,-7.4737,0.0,-7.4314,-7.431,-7.4307,-7.2937,-7.2098,0.0,0.0,0.0,0.0,0.0,-6.4276,-6.3079,0.0,0.0,0.0,0.0,0.0,0.0,0.0,0.0,0.0,0.0,0.0,0.0,0.0,0.0,0.0,0.0,0.0,0.0,0.0,0.0,0.0,-1.9023,-2.0604,-2.178,-2.262,-2.6575,-2.8955,-2.9532,-3.1826,-3.291,-3.3027,-3.4716,-3.5624,-3.5871,-3.8908,-4.0056,-3.986,-4.1571,-4.344,-4.5354,-4.4704,-4.5645,-4.7302,-4.6635,-4.6757,-4.7269,-4.7198,-4.7622,-4.7989,-4.7059,0.0,0.0,0.0,0.0,0.0,0.0,0.0,0.0,0.0,0.0,0.0,0.0,0.0,0.0,0.0,0.0,0.0,0.0,0.0,0.0,0.0,0.0,0.0,0.0,-5.7005,-5.9004,-6.1649,-5.9585,-5.7885,-5.8193,-5.9151,-6.0198,-6.1342,-6.2201,-6.3819,-6.6619,-6.791,-6.96,-7.1924,0.0,0.0,0.0,0.0,-7.4869,-7.4869,-7.4869,-7.4869,-7.4869,-7.4869,-7.454,-7.3911,-7.4752,-7.5043,-7.5211,-7.596,-7.6335,-7.6337,-7.4745,-7.3571,-7.2583,-7.0024,-6.8495,-6.7478,-6.5263,-6.3884,-6.3079,0.0,0.0,0.0,0.0,0.0,0.0,0.0,0.0,0.0,0.0,0.0,0.0,0.0,0.0,0.0,0.0,0.0,0.0,0.0,0.0,-1.892,-1.896,-2.0885,-2.2952,-2.4854,-2.7589,-3.0008,-3.2027,-3.2922,-3.3652,-3.4336,-3.4654,-3.5578,-3.6939,-3.8498,-3.9841,-4.102,-4.2287,-4.404,-4.5917,-4.5806,-4.6671,-4.8143,-4.8173,-4.8466,-4.8936,-4.9665,-5.056,-5.1104,-4.9168,-4.9686,-5.0783,-4.8781,0.0,0.0,0.0,0.0,0.0,0.0,0.0,0.0,0.0,0.0,0.0,0.0,0.0,0.0,0.0,0.0,0.0,0.0,0.0,0.0,-6.0128,-6.2546,-6.4287,-6.4925,-6.5011,-6.4664,-6.3622,-6.4213,-6.501,-6.5778,-6.693,-6.8299,-6.9862,-7.0694,-7.194,-7.3432,-7.3762,-7.4151,-7.4659,-7.4809,-7.4869,-7.4869,-7.4869,-7.4869,-7.4869,0.0,0.0,-7.3881,-7.5348,-7.5697,-7.5275,-7.6166,-7.6505,-7.6273,-7.4245,-7.2059,-6.9808,-6.922,-6.7926,-6.6251,-6.4905,-6.3829,-6.3079,0.0,0.0,0.0,0.0,0.0,0.0,0.0,0.0,0.0,0.0,0.0,0.0,0.0,0.0,0.0,0.0,0.0,0.0,0.0,-1.6504,-1.7637,-1.7918,-2.1818,-2.4595,-2.5968,-2.9004,-3.1379,-3.2793,-3.3652,-3.4277,-3.4707,-3.5156,-3.585,-3.6963,-3.9169,-4.0434,-4.1253,-4.3345,-4.5317,-4.6964,-4.6688,-4.7812,-4.9734,-4.9757,-4.9972,-5.0474,-5.1451,-5.2291,-5.2738,-5.1623,-5.1941,-5.2448,-5.0959,-5.0307,-4.9963,0.0,0.0,0.0,0.0,0.0,0.0,0.0,0.0,0.0,0.0,0.0,0.0,0.0,0.0,-5.4243,-5.7221,0.0,-6.0621,-6.3429,-6.5248,-6.6399,-6.6894,-6.7486,-6.7508,-6.6161,-6.6311,-6.6759,-6.7418,-6.8405,-6.9542,-7.0799,-7.1846,-7.2834,-7.3851,-7.421,-7.454,-7.4869,-7.4869,-7.4869,-7.4869,-7.4869,-7.4869,-7.4869,-7.4869,-7.454,-7.3881,-7.5924,-7.6399,-7.5919,-7.7616,-7.8061,-7.7566,-7.4582,-7.1889,-6.9458,-6.8479,-6.6969,-6.5383,-6.4158,-6.3411,-6.3079,0.0,0.0,0.0,0.0,0.0,0.0,0.0,0.0,0.0,0.0,0.0,0.0,0.0,0.0,0.0,0.0,0.0,0.0,0.0,-1.4877,-1.6551,-1.7174,-2.2677,-2.5918,-2.6487,-3.0241,-3.2422,-3.291,-3.4121,-3.4916,-3.5468,-3.6202,-3.6893,-3.7839,-4.0497,-4.1738,-4.1911,-4.4476,-4.6621,-4.8039,-4.757,-4.881,-5.0993,-5.075,-5.1028,-5.1692,-5.2172,-5.2686,-5.3068,-5.3184,-5.3182,-5.2998,-5.2677,-5.2526,-5.2095,-5.0305,-4.997,0.0,0.0,0.0,0.0,0.0,0.0,0.0,0.0,-5.0266,-5.1012,-5.4721,-5.6076,-5.7666,-6.1115,-6.2226,-6.3472,-6.6274,-6.7218,-6.7801,-6.8295,-6.8914,-6.8884,-6.7597,-6.7418,-6.7537,-6.7926,-6.8824,-6.9842,-7.1009,-7.2355,-7.3402,-7.4061,-7.4599,-7.4869,-7.4869,-7.4869,-7.4869,-7.4869,-7.4869,-7.4869,-7.4869,-7.4869,-7.4599,-7.4226,-7.6308,-7.7305,-7.7201,-7.9097,-7.9369,-7.8354,-7.4605,-7.1832,-6.9828,-6.7306,-6.5772,-6.4695,-6.3647,-6.3169,-6.3079,0.0,0.0,0.0,0.0,0.0,0.0,0.0,0.0,0.0,0.0,0.0,0.0,0.0,0.0,0.0,0.0,0.0,0.0,-1.326,-1.5412,-1.7065,-1.7708,-2.3006,-2.6023,-2.6044,-3.0139,-3.2559,-3.3359,-3.4258,-3.585,-3.8187,-3.8291,-3.9359,-4.1505,-4.2812,-4.3742,-4.4294,-4.5673,-4.7221,-4.8728,-4.8673,-4.9323,-5.0331,-5.0274,-5.1092,-5.2077,-5.0941,-5.0846,-5.1399,-5.2131,-5.2302,-5.239,-5.3783,-5.4199,-5.3922,-5.2973,-5.1765,-5.0488,-4.9483,-4.8691,-4.8777,-5.1266,-5.0786,-5.1109,0.0,-5.6888,-5.7316,-6.1003,-6.2291,-6.3711,-6.704,-6.7405,-6.7758,-6.9583,-7.0315,-7.0372,-6.955,-7.0201,-7.029,-6.9466,-6.904,-6.8555,-6.8016,-6.9632,-7.0979,-7.1727,-7.3013,-7.4061,-7.4719,-7.4839,-7.4869,-7.4869,-7.4869,-7.4869,-7.4869,-7.4869,-7.4869,-7.4869,-7.4869,-7.4839,-7.4856,-7.662,-7.8147,-7.9527,-7.9335,-7.8417,-7.6802,-7.321,-7.0806,-6.9023,-6.5585,-6.4246,-6.4096,-6.3947,-6.3558,-6.3079,0.0,0.0,0.0,0.0,0.0,0.0,0.0,0.0,0.0,0.0,0.0,0.0,0.0,0.0,0.0,0.0,0.0,0.0,-1.074,-1.3537,-1.5643,-1.6453,-2.2389,-2.5944,-2.6371,-3.0139,-3.2578,-3.3418,-3.5268,-3.6903,-3.8199,-3.9778,-4.1199,-4.2433,-4.3636,-4.4492,-4.5047,-4.592,-4.7325,-4.8838,-4.8838,-4.9408,-5.0152,-4.9404,-4.9382,-4.9764,-4.9544,-4.9826,0.0,0.0,-5.0673,-5.0875,-5.2518,-5.3339,-5.3561,-5.3003,-5.3047,-5.3051,-5.2197,-5.1701,-5.172,-5.2882,-5.3051,-5.389,-5.7705,-5.8116,-5.8897,-6.3184,-6.5041,-6.6475,-6.8566,-6.9194,-6.9845,-7.114,-7.0699,-7.0386,-7.1048,-7.0988,-7.0427,-6.9075,-6.8704,-6.8579,-6.8585,-6.9991,-7.1338,-7.2415,-7.3343,-7.418,-7.4839,-7.4869,-7.4869,-7.4869,-7.4869,-7.4869,-7.4869,-7.4869,-7.4869,-7.4869,-7.4869,-7.4869,-7.4976,-7.6201,-7.7684,-7.9364,-7.8719,-7.8118,-7.7244,-7.3487,-7.1177,-6.9604,-6.6447,-6.4759,-6.3947,-6.3588,-6.3288,-6.3079,0.0,0.0,0.0,0.0,0.0,0.0,0.0,0.0,0.0,0.0,0.0,0.0,0.0,0.0,0.0,0.0,0.0,0.0,0.0,-1.1872,-1.4147,-1.5735,-2.1632,-2.5357,-2.6321,-3.0073,-3.2647,-3.3848,-3.5575,-3.7445,-3.9322,-4.1191,-4.2623,-4.3854,-4.4833,-4.5387,-4.5803,-4.619,-4.7325,-4.8838,-4.8566,-4.8966,-4.9523,-4.8027,-4.7353,-4.7244,-4.7837,-4.8245,0.0,0.0,-4.8792,-4.8901,-5.0753,-5.1903,-5.2537,-5.2454,-5.3312,-5.4279,-5.4132,-5.4191,-5.4486,-5.5473,-5.6363,-5.7587,-5.9856,-6.0545,-6.1725,-6.5272,-6.6952,-6.8046,-6.9117,-6.9746,-7.0352,-7.1335,-7.1005,-7.1018,-7.1727,-7.0949,-6.9722,-6.8136,-6.7886,-6.8065,-6.8435,-7.0111,-7.1667,-7.2834,-7.3702,-7.436,-7.4839,-7.4869,-7.4869,-7.4869,-7.4869,-7.4869,-7.4869,-7.4869,-7.4779,-7.4569,-7.4599,-7.4766,-7.4872,-7.4856,-7.6442,-7.9255,-7.8489,-7.7874,-7.707,-7.3542,-7.1513,-7.0018,-6.7057,-6.5218,-6.4226,-6.3344,-6.3079,-6.3079,0.0,0.0,0.0,0.0,0.0,0.0,0.0,0.0,0.0,0.0,0.0,0.0,0.0,0.0,0.0,0.0,0.0,0.0,0.0,-1.1285,-1.325,-1.6391,-2.0656,-2.381,-2.5528,-2.9468,-3.2754,-3.5155,-3.4518,-3.7129,-4.2725,-4.2221,-4.3752,-4.7032,-4.7007,-4.7007,-4.6982,-4.6552,-4.7325,-4.8783,-4.8098,-4.8055,-4.8117,-4.6142,-4.5233,-4.5043,-4.5698,0.0,0.0,-4.6864,-4.6735,-4.6434,-4.8893,-5.0215,-5.1022,-5.1797,-5.2264,-5.2939,-5.454,-5.5171,-5.6321,-5.9905,-6.1373,-6.2538,-6.4595,-6.6292,-6.7616,-6.8342,-6.8505,-6.8751,-6.9403,-6.9285,-6.9387,-7.0013,-7.2021,-7.2841,-7.1195,-6.9791,-6.8576,-6.7225,-6.7046,-6.7081,-6.7089,-6.9961,-7.2146,-7.2864,-7.4121,-7.4869,-7.4869,-7.4869,-7.4869,-7.4869,-7.4869,-7.4869,-7.4869,-7.4869,-7.451,-7.3626,-7.3881,-7.4271,-7.4777,-7.2213,-7.4397,-8.0074,-7.909,-7.757,-7.5527,-7.268,-7.0996,-6.9944,-6.6437,-6.5142,-6.4954,-6.3592,-6.3079,-6.3079,0.0,0.0,0.0,0.0,0.0,0.0,0.0,0.0,0.0,0.0,0.0,0.0,0.0,0.0,0.0,0.0,0.0,0.0,0.0,-1.4792,-1.7334,-1.8803,-2.3618,-2.6861,-2.794,-3.0869,-3.3633,-3.6063,-3.6665,-3.8841,-4.2447,-4.401,-4.5625,-4.7129,-4.7129,-4.7364,-4.7885,-4.7289,-4.802,-4.9501,-4.8352,-4.8471,-4.8913,-4.5898,-4.4867,-4.4859,0.0,0.0,0.0,-4.4693,-4.4565,-4.4635,-4.6544,-4.7719,-4.8897,-5.1601,-5.3421,-5.49,-5.6589,-5.8091,-5.9834,-6.2717,-6.4261,-6.5506,-6.73,-6.7631,-6.7752,-6.8373,-6.6311,-6.4559,-6.5115,-6.4837,-6.5276,-6.7666,-7.1127,-7.3547,-7.358,-7.2487,-7.061,-6.8214,-6.8369,-6.8256,-6.7089,-6.9183,0.0,-7.2146,-7.3462,-7.442,-7.4869,-7.4869,-7.4869,-7.4869,-7.4869,-7.4916,-7.4902,-7.4902,-7.4797,-7.451,-7.3597,-7.3214,-7.3059,-7.3772,-7.5169,-7.7224,-7.8992,-7.8774,-7.6951,-7.3682,-7.2137,-7.1686,-6.8859,-6.6908,-6.5523,-6.5027,-6.4133,-6.3148,0.0,0.0,0.0,0.0,0.0,0.0,0.0,0.0,0.0,0.0,0.0,0.0,0.0,0.0,0.0,0.0,0.0,0.0,0.0,0.0,-1.9317,-2.1263,-2.495,-2.7657,-2.9126,-3.1374,-3.3777,-3.6508,-3.7246,-3.9084,-4.1752,-4.383,-4.5128,-4.5648,-4.5849,-4.6397,-4.7126,-4.68,-4.7598,-4.8914,-4.7654,-4.7452,-4.7637,-4.4351,-4.3295,0.0,0.0,0.0,0.0,-4.347,-4.3681,-4.4123,-4.5222,-4.6561,-4.8374,-5.1838,-5.4142,-5.6145,-5.8572,-6.0572,-6.261,-6.535,-6.666,-6.757,-6.8875,-6.848,-6.7868,-6.7623,-6.4415,-6.1665,-6.1902,-6.1095,-6.134,-6.4034,-6.7578,-7.0482,-7.257,-7.1628,-7.0359,-6.9385,-6.9303,-6.904,-6.8136,-6.9213,-7.038,-7.1457,-7.2774,-7.3821,-7.442,-7.436,-7.4586,-7.4856,-7.4932,-7.4917,-7.4902,-7.4241,-7.3881,-7.3817,-7.3365,-7.2636,-7.1897,-7.5547,-7.7282,-7.7337,-7.8215,-7.8026,-7.6999,-7.4145,-7.2759,-7.2095,-7.059,-6.9059,-6.7645,-6.6684,-6.495,-6.313,0.0,0.0,0.0,0.0,0.0,0.0,0.0,0.0,0.0,0.0,0.0,0.0,0.0,0.0,0.0,0.0,0.0,0.0,0.0,0.0,0.0,-2.3785,-2.4808,-2.6483,-2.9187,-3.0992,-3.3344,-3.6415,-3.6393,-3.8015,-4.1063,-4.1777,-4.2399,-4.2957,-4.3375,-4.4138,-4.4864,-4.5051,-4.6034,-4.7139,-4.6031,-4.529,-4.449,-4.1724,0.0,0.0,0.0,0.0,-4.2086,-4.3142,-4.4124,-4.4967,-4.5228,-4.7043,-4.9714,-5.2677,-5.4634,-5.6657,-6.0562,-6.2719,-6.4658,-6.7763,-6.8611,-6.8823,-6.946,-6.9,-6.7976,-6.612,-6.2651,-5.9858,-5.9499,-5.8035,-5.7603,-5.9727,-6.1942,-6.4755,-6.8734,-6.8196,-6.8286,-7.0709,-6.9931,-6.9423,-6.9961,-7.0021,-7.026,-7.0859,0.0,-7.3103,-7.3567,-7.3627,-7.4045,-7.4707,-7.4764,-7.4747,-7.4686,-7.3027,-7.2073,-7.1918,-7.2736,-7.2432,-7.1244,-7.7007,-7.9835,-7.979,-7.6985,-7.5601,-7.5323,-7.399,-7.261,-7.1289,-7.1298,-7.1313,-7.0988,-6.8331,-6.5772,-6.3469,0.0,0.0,0.0,0.0,0.0,0.0,0.0,0.0,0.0,0.0,0.0,0.0,0.0,0.0,0.0,0.0,0.0,0.0,0.0,0.0,0.0,0.0,0.0,0.0,0.0,0.0,0.0,0.0,0.0,-3.8292,-4.0631,-4.0589,-4.0914,-4.1488,-4.155,-4.2425,-4.3681,-4.3746,-4.4674,-4.5988,0.0,-4.4559,-4.4724,0.0,0.0,0.0,0.0,0.0,-4.3483,-4.366,-4.545,-4.7832,-4.899,-5.137,-5.4176,-5.602,-5.8542,-6.1101,-6.3264,-6.5888,-6.8329,-6.9777,-7.0627,-7.0804,-6.992,-6.8498,-6.676,-6.4072,-5.8858,-5.4535,-5.3841,-5.3958,-5.5478,-5.9458,-6.4246,-6.8884,-7.2834,-7.3073,-7.2744,-7.2445,-7.2116,-7.1577,-7.0739,-7.0679,-7.0739,-7.0889,-7.1667,-7.2654,-7.3791,-7.4285,-7.4142,-7.3449,-7.2397,-7.1978,-7.1982,-7.1388,-7.1775,-7.2953,-7.1967,-7.1885,-7.2725,-7.3087,-7.4533,-7.6753,-7.598,-7.4398,-7.2438,-7.2066,-7.1627,-7.1345,-7.1277,-7.1286,-7.1253,-7.049,-6.9776,-6.9251,0.0,0.0,0.0,0.0,0.0,0.0,0.0,0.0,0.0,0.0,0.0,0.0,0.0,0.0,0.0,0.0,0.0,0.0,0.0,0.0,0.0,0.0,0.0,0.0,0.0,0.0,0.0,0.0,0.0,0.0,0.0,-4.0205,-4.0404,-4.049,-4.049,-4.1274,-4.2641,0.0,0.0,0.0,0.0,0.0,0.0,0.0,0.0,0.0,0.0,-4.3488,-4.5693,-4.6247,-4.7869,-5.0076,-5.2567,-5.4826,-5.7032,-5.9547,-6.1745,-6.3754,-6.5683,-6.773,-6.955,-7.0278,-7.0278,-6.9663,-6.7898,-6.5952,-6.3645,-6.0352,-5.5255,-5.1205,-5.0711,-5.1333,-5.3114,-5.6885,-6.2032,-6.7119,-7.1667,-7.2295,-7.2654,-7.3642,-7.3522,-7.3163,-7.2684,-7.2385,-7.2206,-7.2206,-7.1757,-7.1846,-7.2581,-7.298,-7.2731,-7.2062,-7.392,-7.3647,-7.0971,-7.0886,-7.137,-7.2235,-7.2732,-7.2715,-7.2241,-7.2806,-7.3972,-7.5635,0.0,-7.2818,-7.131,-7.13,-7.1323,-7.1312,-7.13,-7.1334,-7.1312,-7.13,-7.1334,-7.1289,0.0,0.0,0.0,0.0,0.0,0.0,0.0,0.0,0.0,0.0,0.0,0.0,0.0,0.0,0.0,0.0,0.0,0.0,0.0,0.0,0.0,0.0,0.0,0.0,0.0,0.0,0.0,0.0,0.0,0.0,0.0,0.0,0.0,0.0,0.0,0.0,0.0,0.0,0.0,0.0,0.0,0.0,0.0,0.0,0.0,0.0,-4.3128,-4.5369,-4.7992,-4.9771,-5.099,-5.239,-5.6053,-5.7907,-5.9485,-6.3136,-6.464,-6.5623,-6.7765,-6.891,-6.9553,-7.0195,-6.9248,-6.7557,-6.5019,-6.2821,-6.0148,-5.5947,-5.2013,-4.9192,-4.885,-4.9466,-5.1139,-5.4221,-5.853,-6.3408,-6.8884,-6.9662,-7.0949,-7.445,-7.436,-7.424,-7.4809,-7.433,-7.3941,-7.3821,-7.2026,-7.0938,-7.0974,-7.0938,-7.0799,-7.043,-7.5975,-7.6356,-7.1013,-7.0517,-7.0429,-7.0472,-7.4043,-7.4215,-7.1569,-7.4459,-7.5459,-7.4924,-7.238,0.0,-7.1243,-7.1289,-7.1312,-7.1312,-7.1287,-7.1063,-7.0782,-7.1185,-7.1355,-7.1266,0.0,0.0,0.0,0.0,0.0,0.0,0.0,0.0,0.0,0.0,-2.3514,-2.3568,0.0,0.0,0.0,0.0,0.0,0.0,0.0,0.0,0.0,0.0,0.0,0.0,0.0,0.0,0.0,0.0,0.0,0.0,0.0,0.0,0.0,0.0,0.0,0.0,0.0,0.0,0.0,0.0,0.0,0.0,0.0,0.0,0.0,0.0,-4.5361,-4.6636,-4.8232,-5.1635,-5.4115,-5.6353,-5.9507,-6.1816,-6.3903,-6.6403,-6.776,-6.8504,-6.9524,-7.0405,-7.0973,-7.1075,-7.0432,-6.8741,-6.4613,-6.2448,-5.9448,-5.3052,-5.0073,-4.7946,-4.5978,-4.7707,-5.1199,-5.6585,-6.0835,-6.5742,-7.2146,-7.3043,-7.3492,-7.4719,-7.4779,-7.4749,-7.4869,-7.4842,-7.4391,-7.3731,-7.1924,-7.1135,-7.1625,-7.1218,-6.9973,-6.7717,-7.0796,-7.1967,-7.0966,-6.8817,-6.7698,-6.7722,-7.3163,-7.5431,-7.4892,-7.5439,-7.4356,-7.206,-7.1546,0.0,-7.1255,-7.1312,-7.1312,-7.1312,-7.1278,-6.9805,-6.7892,-7.0423,-7.1278,-7.1266,0.0,0.0,0.0,0.0,0.0,0.0,0.0,-2.5581,-2.5893,-2.6184,-2.6505,-2.6956,-2.7661,-2.7507,-2.8191,0.0,0.0,0.0,0.0,0.0,0.0,0.0,0.0,0.0,0.0,-4.1244,-4.1646,-4.2053,0.0,-4.1191,-4.0672,-4.0508,-4.015,-3.9589,0.0,0.0,0.0,0.0,0.0,0.0,0.0,0.0,0.0,0.0,0.0,0.0,0.0,-4.7429,-4.9198,-5.1811,-5.4534,-5.7451,-6.128,-6.3995,-6.6136,-6.7996,-6.9079,-6.9823,-7.0567,-7.1041,-7.1312,-7.1312,-7.0161,-6.7726,-6.2854,-6.0283,-5.7122,-5.0551,-4.8134,-4.6757,-4.5055,-4.7395,-5.0607,-5.3991,-5.8806,-6.4045,-6.958,-7.1487,-7.2984,-7.4689,-7.5258,-7.5347,-7.4929,-7.4886,-7.4692,-7.4299,-7.2595,-7.1493,-7.1398,-7.1078,-7.038,-6.912,-6.892,-6.89,-6.8914,-6.7671,-6.9334,-7.3849,-7.5144,-7.5674,-7.5653,-7.5669,-7.4119,-7.127,-7.1286,0.0,-7.1312,-7.1312,-7.1312,-7.1312,-7.13,-7.0389,-6.9289,-7.0804,-7.13,-7.13,0.0,0.0,0.0,0.0,0.0,0.0,0.0,-2.5816,-2.6387,-2.748,-2.847,-2.9403,-3.0134,-2.9728,-3.0367,0.0,0.0,0.0,0.0,0.0,0.0,0.0,0.0,0.0,0.0,0.0,0.0,-4.2813,-4.277,0.0,0.0,0.0,0.0,0.0,-4.2016,-4.1887,-4.1313,0.0,0.0,0.0,0.0,-4.2388,0.0,0.0,0.0,0.0,0.0,-4.8362,-5.0262,-5.1808,-5.3956,-5.6705,-6.0837,-6.3886,-6.6203,-6.7895,-6.9011,-6.9891,-7.0838,-7.1176,-7.1312,-7.1312,-6.9586,-6.6542,-6.1298,-5.8241,-5.4749,-4.8559,-4.6523,-4.5634,-4.4662,-4.6739,-4.912,-5.0936,-5.5572,-6.0852,-6.6222,-6.8884,-7.1457,-7.4796,-7.5635,-7.5725,-7.4929,-7.4869,-7.4736,-7.4419,-7.2937,-7.1655,-7.0949,-7.0839,-7.0907,-7.0959,-6.8929,-6.7508,-6.6997,-6.6951,-7.0517,-7.733,-7.6899,-7.6274,-7.5732,-7.5709,-7.4255,-7.1598,-7.1354,0.0,0.0,-7.1312,-7.1312,-7.1312,-7.1321,-7.1266,-7.1312,-7.1321,-7.1266,-7.1175,0.0,0.0,0.0,0.0,0.0,0.0,0.0,-2.6238,-2.7066,-2.8571,-2.9324,-3.039,-3.2136,-3.1514,-3.1748,0.0,0.0,0.0,0.0,0.0,0.0,0.0,0.0,0.0,0.0,0.0,0.0,-4.4399,-4.4369,0.0,0.0,0.0,0.0,0.0,0.0,-4.2189,-4.2129,-4.2232,0.0,0.0,0.0,0.0,0.0,0.0,0.0,0.0,0.0,-4.9911,-5.0941,-5.2541,-5.3315,-5.3999,-5.6646,-5.9943,-6.3226,-6.5358,-6.7015,-6.8436,-6.9891,-7.0804,-7.1312,-7.1312,-6.9586,-6.6542,-6.1366,-5.7758,-5.3808,-4.7626,-4.5561,-4.4662,-4.3615,-4.4208,-4.6203,-5.053,-5.2692,-5.6929,-6.5742,-6.7717,-7.0179,-7.5399,-7.5502,-7.4958,-7.4899,-7.4869,-7.436,-7.3103,-7.1787,-7.1009,-7.0919,-7.0889,-7.0899,-7.0946,-7.0652,-6.9376,-6.7076,-6.7025,-6.7426,-6.8289,-7.607,-7.8337,-7.5637,-7.5662,-7.4566,-7.2616,-7.1681,0.0,0.0,-7.1312,-7.1312,-7.1312,-7.1278,-7.1312,-7.1312,-7.1278,-7.1312,-7.0589,0.0,0.0,0.0,0.0,0.0,0.0,-2.6091,-2.6447,-2.7024,-2.8285,-2.9245,-3.0543,-3.2389,-3.2286,-3.2806,-3.4773,0.0,0.0,0.0,0.0,0.0,0.0,0.0,0.0,0.0,0.0,-4.4433,-4.4575,-4.48,0.0,0.0,0.0,0.0,0.0,0.0,-4.2327,-4.1374,-4.2473,0.0,0.0,0.0,0.0,0.0,0.0,0.0,0.0,0.0,0.0,-5.0986,-5.2087,-5.2463,-5.2723,-5.4203,-5.5729,-5.7706,-6.1282,-6.4343,-6.688,-6.8402,-7.0026,-7.1312,-7.1312,-6.8267,-6.4343,-6.0926,-5.6244,-5.1448,-4.713,-4.5416,-4.451,-4.3488,-4.3983,-4.5231,-4.7287,-4.9236,-5.2579,-5.8488,-6.0894,-6.5347,-7.4421,-7.561,-7.554,-7.4976,-7.4869,-7.448,-7.3328,-7.2877,-7.2248,-7.1517,-7.1128,-7.0859,-7.0869,-7.0886,-6.9609,-6.7063,-6.7767,-6.8728,-6.9666,-7.2748,-7.5404,-7.744,-7.5339,-7.3864,-7.2751,-7.2708,0.0,0.0,-7.1312,-7.1312,-7.1312,-7.1312,-7.1312,-7.1312,-7.1312,-7.1312,-7.0781,0.0,0.0,0.0,0.0,0.0,-2.5757,-2.6239,-2.6609,-2.7228,-2.8232,-2.9167,-3.0417,-3.2034,-3.2412,-3.3255,-3.4905,-3.5359,0.0,0.0,0.0,0.0,0.0,0.0,0.0,0.0,0.0,-4.4363,-4.4764,-4.52,-4.5481,0.0,0.0,-4.4591,-4.3695,0.0,0.0,0.0,0.0,0.0,0.0,0.0,0.0,0.0,0.0,0.0,0.0,0.0,0.0,0.0,0.0,0.0,-5.1526,-5.2315,-5.2785,-5.3827,-5.7602,-6.1325,-6.4444,-6.6406,-6.8741,-7.077,-7.121,-6.7387,-6.2922,-6.0622,-5.5088,-4.9681,-4.6834,-4.5196,-4.422,-4.3708,-4.4152,-4.4843,-4.5484,-4.7152,-4.9782,-5.4171,-5.6376,-6.1116,-7.0585,-7.2244,-7.2718,-7.3117,-7.4256,-7.4706,-7.4091,-7.3746,-7.334,-7.2505,-7.1667,-7.1098,-7.0919,-7.0907,-6.9879,-6.7567,-6.8154,-6.8967,-7.0055,-7.0168,-7.2199,-7.5882,-7.4516,-7.3208,-7.2078,-7.307,0.0,0.0,-7.1199,-7.1312,-7.1312,-7.1312,-7.1312,-7.1312,-7.1312,-7.1312,-7.0973,0.0,0.0,0.0,0.0,0.0,0.0,-2.5949,-2.6757,-2.7854,-2.8762,-2.9397,-3.0139,-3.1093,-3.2019,-3.2947,-3.3945,-3.4905,0.0,0.0,0.0,0.0,0.0,0.0,0.0,0.0,0.0,-4.3825,-4.5095,-4.5871,-4.6516,-4.6996,-4.6518,-4.5877,-4.5165,0.0,0.0,0.0,0.0,0.0,0.0,0.0,0.0,0.0,0.0,0.0,0.0,0.0,0.0,0.0,0.0,0.0,0.0,0.0,-5.1652,-5.2674,-5.4946,-5.7808,-6.0825,-6.3835,-6.6846,-6.9485,-7.0939,-6.7387,-6.2922,-6.0622,-5.4609,-4.8881,-4.6692,-4.4675,-4.3489,-4.4154,-4.4295,-4.4743,-4.61,-4.6867,-4.9374,-5.5329,-5.6166,-5.8141,-6.3438,-6.4096,-6.5413,-6.8734,-7.2619,-7.4872,-7.4839,-7.4046,0.0,-7.3851,-7.2595,-7.1577,-7.0919,-7.0907,-7.0277,-6.9004,-6.7677,-6.7021,-6.7121,-6.9206,-6.9969,-6.9379,-7.2994,-7.307,0.0,0.0,0.0,0.0,-7.1002,-7.1312,-7.1312,-7.1312,-7.1312,-7.1312,-7.1312,-7.1312,-7.1064,0.0,0.0,0.0,0.0,0.0,0.0,0.0,-2.7751,-2.7893,-2.9341,-2.8973,-2.9312,-3.1018,-3.2019,-3.3003,-3.3911,-3.4898,0.0,0.0,0.0,0.0,0.0,0.0,0.0,0.0,0.0,-4.3021,-4.3942,-4.3862,-4.4638,-4.612,-4.4319,-4.3821,-4.4257,-4.3104,-4.2169,0.0,0.0,0.0,0.0,0.0,0.0,0.0,0.0,0.0,0.0,0.0,0.0,0.0,0.0,0.0,0.0,0.0,0.0,0.0,-5.282,-5.6141,-5.9522,-6.049,-6.2953,-6.5231,-6.525,-6.2042,-5.8727,-5.8017,-5.2719,-4.7782,-4.7109,-4.5015,-4.331,-4.3578,-4.3967,-4.4945,-4.6715,-4.7521,-4.9105,-5.2336,-5.5089,-5.7951,-6.0906,-6.6054,-7.0001,-7.1458,-7.3556,-7.5125,-7.5527,-7.4839,-7.4196,-7.3253,-7.2804,-7.2013,-7.0957,-7.0919,-7.0329,-6.9004,-6.7686,-6.7004,-6.6999,-6.8212,-6.8847,-6.9317,-7.0914,-7.1447,0.0,0.0,0.0,0.0,-7.1199,-7.1312,-7.1312,-7.1312,-7.1312,-7.1312,-7.1312,-7.1312,-7.1098,0.0,0.0,0.0,0.0,0.0,0.0,0.0,-2.8761,-2.8527,-2.9341,-2.9316,-2.9729,-3.1044,-3.2362,-3.3494,-3.4307,-3.5082,0.0,0.0,0.0,0.0,0.0,0.0,0.0,0.0,-4.1484,-4.2226,-4.3259,-4.3235,-4.4043,-4.557,-4.4133,-4.3753,-4.4235,-4.3051,-4.2572,0.0,0.0,0.0,0.0,0.0,0.0,-4.7386,0.0,0.0,0.0,0.0,0.0,0.0,0.0,0.0,0.0,0.0,0.0,0.0,0.0,-5.5685,-5.8238,-5.8514,-6.06,-6.2664,-6.2761,-5.9763,-5.6727,-5.6331,-5.1802,-4.7572,-4.7204,-4.5758,-4.4747,-4.4989,-4.5672,-4.6597,-4.7661,-4.8395,-4.964,-5.1683,-5.4036,-5.6578,-5.9245,-6.5267,-6.9649,-7.1166,-7.294,-7.4513,-7.5856,-7.5258,-7.442,-7.3343,-7.3043,-7.2505,-7.1607,-7.0859,-6.9991,-6.9004,-6.736,-6.6678,-6.6999,-6.7457,-6.8111,-6.8798,-7.016,-7.0636,0.0,0.0,0.0,0.0,-7.1233,-7.1312,-7.1312,-7.1312,-7.1312,-7.1312,-7.1312,-7.1312,-7.1188,0.0,0.0,0.0,0.0,0.0,0.0,0.0,-2.9704,-2.9524,-2.9145,-3.0239,-3.1167,-3.1315,-3.2901,-3.4278,-3.4871,0.0,0.0,0.0,0.0,0.0,0.0,0.0,0.0,-4.0798,-4.0778,-4.1427,-4.2917,-4.3494,-4.419,-4.4988,-4.5015,-4.5014,-4.4787,-4.4196,-4.4484,0.0,0.0,0.0,0.0,0.0,0.0,0.0,0.0,0.0,0.0,0.0,0.0,0.0,0.0,0.0,0.0,0.0,0.0,0.0,0.0,0.0,0.0,0.0,-5.9319,-6.1224,-6.2499,-5.9617,-5.6241,-5.5289,-5.1512,0.0,-4.706,-4.6905,-4.7091,-4.7694,-4.8622,-4.9215,-4.8922,-4.9418,-5.0739,-5.3038,-5.3511,-5.5038,-5.8662,-6.2583,-6.5937,-6.845,-7.1194,-7.3731,-7.5747,-7.5258,-7.4569,-7.3851,-7.3253,-7.289,-7.2781,-7.0509,-6.9206,-6.8884,-6.6748,-6.6094,-6.6909,-6.7035,-6.7384,-6.8055,-7.0267,-7.0457,0.0,0.0,0.0,0.0,-7.0968,-7.1312,-7.1312,-7.1312,-7.1312,-7.1312,-7.1312,-7.1312,-7.1312,0.0,0.0,0.0,0.0,0.0,0.0,0.0,0.0,0.0,0.0,-3.0265,-3.0465,-3.2092,-3.3326,-3.4025,0.0,0.0,0.0,0.0,0.0,0.0,0.0,0.0,0.0,-4.0137,-4.0146,-4.0365,-4.08,-4.031,-4.1024,-4.2893,-4.1607,-4.2078,-4.3959,-4.3168,-4.3716,0.0,0.0,0.0,0.0,0.0,0.0,0.0,0.0,0.0,0.0,-5.0744,-5.0947,0.0,0.0,0.0,0.0,0.0,0.0,0.0,0.0,-5.6161,-5.6841,-5.6988,0.0,-5.6982,-5.6779,-5.4839,-5.3003,0.0,-5.0229,-4.8091,-4.8631,-4.776,-4.7091,-4.7694,-4.8026,-4.8376,-4.9092,-5.0095,-5.175,-5.4411,-5.7587,-6.0456,-6.2164,-6.644,-6.8899,-6.7881,-7.2224,-7.5298,-7.5916,-7.5258,-7.436,-7.3223,-7.3383,-7.2792,-7.1435,-6.889,-6.7563,-6.7528,-6.6238,-6.5856,-6.6221,-6.679,-6.7136,-6.7373,-6.9523,-7.0239,0.0,0.0,0.0,-7.1026,-7.1199,-7.1312,-7.1312,-7.1312,-7.1312,-7.1312,-7.1312,-7.1312,-7.1312,0.0,0.0,0.0,0.0,0.0,0.0,0.0,0.0,0.0,0.0,0.0,0.0,0.0,0.0,0.0,0.0,0.0,0.0,0.0,0.0,0.0,0.0,0.0,-3.9944,-3.9909,-3.9939,-3.9966,-3.997,-3.9186,-4.0071,-4.2324,-4.1412,-4.2069,-4.3975,-4.364,-4.385,0.0,0.0,0.0,0.0,-4.8594,0.0,0.0,0.0,0.0,0.0,-5.2096,-5.2013,0.0,-5.1319,-5.1217,-5.1444,0.0,0.0,0.0,0.0,-5.6739,-5.729,-5.6926,-5.6257,-5.561,-5.5203,-5.3874,-5.2487,-5.1993,-5.0756,-4.9713,-4.9821,-4.9152,-4.8639,-4.8907,-4.9756,-5.0258,-5.0018,-5.2063,-5.4351,-5.6012,-5.9122,-6.1507,-6.1999,-6.4194,-6.6617,-6.9427,-7.1942,-7.418,-7.6235,-7.5395,-7.4602,-7.3894,-7.3537,-7.1986,-6.9153,-6.8516,-6.7547,-6.6055,-6.5981,-6.6062,-6.6508,-6.7511,-6.8266,-6.8553,-7.0042,-7.0737,0.0,0.0,0.0,-7.1312,-7.1312,-7.1312,-7.1312,-7.1312,-7.1312,-7.1312,-7.1312,-7.1312,-7.1312,0.0,0.0,0.0,0.0,0.0,0.0,0.0,0.0,0.0,0.0,0.0,0.0,0.0,0.0,0.0,0.0,0.0,0.0,0.0,0.0,0.0,0.0,0.0,-4.0835,-4.0059,-3.9761,-3.9523,-3.9284,-3.8477,-3.9376,-4.182,-4.1994,-4.2934,-4.4308,-4.4633,-4.4233,0.0,0.0,-4.6995,-4.8423,-4.8723,0.0,0.0,0.0,0.0,0.0,0.0,0.0,0.0,-5.1758,-5.1555,-5.1851,-5.3272,0.0,0.0,0.0,0.0,0.0,-5.7029,-5.638,-5.5883,-5.5742,-5.4362,-5.2834,-5.2197,-5.1598,-5.1099,-5.0671,-5.041,-5.0352,-5.0813,-5.2076,-5.2639,-5.1195,-5.4382,-5.7464,-5.838,-6.034,-6.1593,-6.108,-6.1054,-6.3915,-7.1012,-7.145,-7.2776,-7.6115,-7.5202,-7.4436,-7.4161,-7.329,-7.1066,-6.7361,-6.8667,-6.8228,-6.5503,-6.6129,-6.6744,-6.7305,-6.8622,-6.9514,-7.0107,-7.0968,-7.1312,-7.1312,0.0,0.0,-7.1312,-7.1312,-7.1312,-7.1312,-7.1312,-7.1379,-7.1447,-7.1345,-7.1379,-7.1447,0.0,0.0,0.0,0.0,0.0,0.0,0.0,0.0,0.0,0.0,0.0,0.0,0.0,0.0,0.0,0.0,0.0,0.0,0.0,0.0,0.0,-4.0591,-4.086,-4.095,-4.0767,-3.8532,-3.7186,-3.7004,-3.5319,-3.5861,-3.8364,-3.9453,-4.1495,-4.4308,-4.4328,-4.3998,-4.3446,-4.508,-4.6438,-4.7652,-4.8973,0.0,0.0,0.0,0.0,0.0,0.0,0.0,0.0,-5.3179,-5.3145,-5.3343,-5.4465,0.0,0.0,0.0,0.0,0.0,-5.6572,-5.6659,-5.6607,-5.5894,-5.3243,-5.1242,-5.2532,-5.0333,-4.8686,-5.1173,-5.0532,-5.0151,-5.2394,-5.2429,-5.1968,-5.1625,-5.5765,-6.0008,-6.2508,-6.5223,-6.5949,-6.3425,-6.6432,-6.8726,-6.8311,-7.2607,-7.5101,-7.436,-7.3582,-7.2547,-7.0839,-7.1845,-7.1117,-6.8297,-6.8485,-6.8436,-6.7989,-6.7885,-6.7896,-6.7991,-6.8795,-6.925,-6.9382,-7.0733,-7.1312,-7.1312,0.0,-7.1312,-7.1312,-7.1312,-7.1312,-7.1312,-7.1312,-7.1684,-7.2157,-7.1548,-7.1718,-7.2157,0.0,0.0,0.0,0.0,0.0,0.0,0.0,0.0,0.0,0.0,0.0,0.0,0.0,0.0,0.0,0.0,0.0,0.0,0.0,0.0,0.0,-4.2113,-4.2447,-4.1757,-3.9796,-3.8311,-3.6628,-3.4775,-3.2932,-3.322,-3.5679,-3.8579,-4.1022,-4.2883,-4.2855,-4.2824,-4.3025,-4.4571,-4.6467,-4.8528,0.0,0.0,0.0,0.0,0.0,0.0,0.0,0.0,0.0,0.0,-5.3513,-5.3661,-5.4704,0.0,0.0,0.0,0.0,0.0,-5.617,-5.6008,-5.5774,-5.5358,-5.4522,-5.3732,-5.3584,-5.2163,-5.1194,-5.2172,-5.1452,-5.1017,-5.1763,-5.1668,-5.2752,-5.6781,-6.0052,-6.2905,-6.4922,-6.5595,-6.577,-6.5754,-7.0008,-7.2247,-7.0624,-7.2934,-7.3865,-7.2328,-7.1302,0.0,-6.9544,-6.9509,-6.9205,-6.8501,-6.9446,-6.9645,-6.8891,-6.9583,-6.9452,-6.8793,-6.9798,-7.0356,-7.0356,-7.1007,-7.1548,-7.1887,0.0,-7.1548,-7.1853,-7.1481,-7.1312,-7.1312,-7.1312,-7.1751,-7.236,-7.2022,-7.1853,-7.1751,0.0,0.0,0.0,0.0,0.0,0.0,0.0,0.0,0.0,0.0,0.0,0.0,0.0,0.0,0.0,0.0,0.0,0.0,0.0,0.0,-4.3073,-4.3041,-4.3907,-4.2602,-3.8792,-3.7535,-3.5538,-3.2659,-3.041,-3.0751,-3.3634,-3.7661,-4.0228,-4.1343,-4.1251,-4.1605,-4.2479,-4.3976,-4.6183,-4.8713,0.0,0.0,0.0,0.0,0.0,0.0,0.0,0.0,0.0,0.0,0.0,0.0,0.0,0.0,0.0,-5.684,-5.6613,-5.6277,-5.5398,-5.5223,-5.5108,-5.4607,-5.5197,-5.5841,-5.5764,-5.5241,-5.4774,-5.4301,-5.3903,-5.331,-5.2245,-5.2052,-5.3994,-6.0543,-6.363,-6.5606,-6.6797,-6.6624,-6.7429,-7.0097,-7.3443,-7.5225,-7.4588,-7.4092,-7.3174,-7.1427,-7.0254,0.0,-6.8715,-6.8106,-6.8152,-6.8684,-7.0403,-7.0809,-6.9727,-7.0791,-7.0791,-6.9727,-7.0791,-7.1312,-7.1312,-7.1312,-7.1616,-7.2124,-7.1548,-7.1616,-7.209,-7.1548,-7.1312,-7.1312,-7.1312,-7.165,-7.2157,-7.2326,-7.1954,-7.1312,0.0,0.0,0.0,0.0,0.0,0.0,0.0,0.0,0.0,0.0,0.0,0.0,0.0,0.0,0.0,0.0,0.0,0.0,0.0,0.0,-4.3039,-4.2973,-4.4313,-4.2997,-3.8733,-3.5193,-3.2483,-3.0784,-2.7397,-2.8046,-3.2643,-3.5964,-3.8541,-4.0375,-4.036,-4.079,-4.1666,-4.363,-4.5141,-4.6411,-4.9284,0.0,0.0,0.0,0.0,0.0,0.0,0.0,0.0,0.0,0.0,0.0,0.0,0.0,-5.7702,-5.6789,-5.583,-5.4931,-5.3931,-5.4696,-5.5436,-5.3856,-5.3481,-5.4798,-5.9676,-5.9119,-5.7803,-5.8588,-5.8624,-5.8111,-5.655,-5.5158,-5.5305,-5.8676,-6.38,-6.7753,-6.8599,-7.1802,-7.5338,-7.8574,-7.8019,-7.7904,-7.9208,-7.774,-7.5434,-7.2486,0.0,0.0,-6.7466,-6.8941,-6.9747,-6.9156,-7.0582,-7.1289,-7.1098,-7.1222,-7.1222,-7.1098,-7.1222,-7.1312,-7.1312,-7.1312,-7.1345,-7.1379,-7.1345,-7.1345,-7.1379,-7.1345,-7.1312,-7.1312,-7.1312,-7.1345,-7.1481,-7.2157,-7.1954,-7.1312,0.0,0.0,0.0,0.0,0.0,0.0,0.0,0.0,0.0,0.0,0.0,0.0,0.0,0.0,0.0,0.0,0.0,0.0,0.0,-4.2516,-4.2862,-4.2862,-4.4157,-4.275,-3.799,-3.6157,-3.3434,-2.9937,-2.7173,-2.7107,-2.9853,-3.3098,-3.5374,-3.6723,-3.794,-3.9385,-4.1042,-4.3023,-4.537,-4.7803,-4.8929,-5.0256,0.0,0.0,0.0,0.0,0.0,0.0,0.0,0.0,-5.511,-5.7094,0.0,0.0,-5.6917,-5.6241,-5.5376,-5.4695,-5.426,-5.5649,-5.6507,-5.3624,-5.4057,-5.6088,-5.917,-5.9226,-5.899,-6.0451,-6.0699,-6.0197,-5.8308,-6.2702,-6.6982,-6.8157,-7.052,-7.2852,-7.4376,-7.5875,-7.7108,-7.7703,-7.803,-7.785,-7.7179,-7.556,-7.383,0.0,0.0,0.0,-6.9117,-6.9286,-6.9604,-6.9812,-6.9861,-6.9925,-6.9925,-6.9925,-6.9925,-6.9958,-7.0872,-7.1312,-7.1312,-7.1312,-7.1548,-7.1954,-7.1515,-7.1582,-7.1954,-7.1515,-7.1312,-7.1345,-7.1819,-7.1718,-7.1413,-7.2124,-7.1954,-7.1312,0.0,0.0,0.0,0.0,0.0,0.0,0.0,0.0,0.0,0.0,0.0,0.0,0.0,0.0,0.0,0.0,0.0,0.0,-4.1372,-4.2093,-4.2497,-4.2426,-4.3749,-4.2698,-3.8827,-3.7992,-3.5047,-2.9614,-2.7713,-2.7246,-2.8307,-3.1189,-3.3056,-3.4119,-3.6102,-3.8226,-4.0331,-4.2562,-4.5121,-4.7813,-4.8481,-4.9215,0.0,0.0,0.0,0.0,0.0,0.0,0.0,0.0,0.0,0.0,0.0,0.0,0.0,0.0,-5.4999,-5.4544,-5.4328,-5.5381,-5.5994,-5.4003,-5.5059,-5.7449,-6.0055,-6.0015,-6.0146,-6.2804,-6.2505,-6.1589,-6.0928,-6.6614,-7.1874,-7.3128,-7.4659,-7.6335,-7.8343,-7.8148,-7.7995,-7.8181,-7.8474,-7.7916,-7.634,-7.4843,0.0,0.0,0.0,0.0,0.0,-6.9154,-6.9163,-7.0195,-6.9248,-6.8707,-6.8707,-6.8707,-6.8707,-6.8741,-6.9992,-7.0737,-7.0973,-7.0973,-7.1379,-7.2022,-7.1548,-7.1728,-7.2458,-7.166,-7.1312,-7.1379,-7.1853,-7.1751,-7.1379,-7.1887,-7.1751,-7.1312,0.0,0.0,0.0,0.0,0.0,0.0,0.0,0.0,0.0,0.0,0.0,0.0,0.0,0.0,0.0,0.0,0.0,0.0,-4.0622,-4.141,-4.1744,-4.1674,-4.3046,-4.306,-4.1439,-4.0575,-3.68,-2.9792,-2.8886,-2.8382,-2.8392,-3.0566,-3.2058,-3.3094,-3.4989,-3.7161,-3.955,-4.2339,-4.4256,-4.557,-4.7897,-4.8841,-4.8891,0.0,0.0,0.0,0.0,0.0,0.0,0.0,-5.4516,0.0,0.0,0.0,0.0,0.0,-5.4572,-5.4419,-5.3717,-5.3518,-5.382,-5.4882,-5.6303,-5.8576,-6.2971,-6.1969,-6.1403,-6.6041,-6.4395,-6.2724,-6.4721,-6.5546,-6.7337,-7.1228,-7.4526,-7.7309,-7.9463,-7.8439,-7.8407,-8.1308,-8.0002,-7.8684,-7.808,0.0,0.0,0.0,0.0,0.0,0.0,-6.8492,-6.8726,-7.0161,-6.8673,-6.7895,-6.7895,-6.7861,-6.7861,-6.7895,-6.8673,-6.9451,-7.0195,-7.0161,-7.0601,-7.1312,-7.1312,-7.1917,-7.2714,-7.1776,-7.1312,-7.1312,-7.1312,-7.1312,-7.1312,-7.1312,-7.1312,-7.1312,0.0,0.0,0.0,0.0,0.0,0.0,0.0,0.0,0.0,0.0,0.0,0.0,0.0,0.0,0.0,0.0,0.0,0.0,-3.9809,-4.0414,-4.0807,-4.0807,-4.2092,-4.2222,-4.0879,-3.8765,-3.5565,-3.0954,-2.9964,-2.8459,-2.6726,-2.9953,-3.1084,-3.0452,-3.4225,-3.6795,-3.8461,-4.1985,-4.4256,-4.557,-4.7133,-4.7764,-4.7904,0.0,0.0,0.0,0.0,0.0,0.0,0.0,0.0,0.0,0.0,0.0,0.0,-5.4878,-5.4999,-5.5203,-5.4482,-5.5434,-5.6509,-5.5961,-5.7866,-6.0594,-6.4095,-6.3555,-6.3159,-6.6342,-6.7001,-6.6967,-6.7002,-6.9252,-7.141,-7.2684,-7.4765,-7.7307,-8.0502,-8.026,-7.9957,-8.0596,-7.9675,-7.8321,0.0,0.0,0.0,0.0,0.0,0.0,0.0,-6.9031,-6.8493,-6.9451,-6.7929,-6.688,-6.6339,-6.5831,-6.5595,-6.5595,-6.7056,-6.8583,-7.0161,-7.0378,-7.1125,-7.2329,-7.2533,-7.3081,-7.385,-7.3571,-7.3412,-7.3412,-7.3412,-7.2962,-7.2295,-7.1779,-7.1473,-7.1244,0.0,0.0,0.0,0.0,0.0,0.0,0.0,0.0,0.0,0.0,-3.691,0.0,0.0,0.0,0.0,0.0,0.0,0.0,0.0,-3.9798,-4.0141,-4.0394,-4.1415,-4.2067,-4.2047,-3.9557,-3.6905,-3.4165,-3.1264,-2.9095,-2.7621,-2.9451,-3.0419,-3.0663,-3.3538,-3.5891,-3.782,-4.1485,-4.4397,-4.6665,-4.7138,-4.7688,-4.8438,0.0,0.0,0.0,0.0,0.0,0.0,0.0,0.0,0.0,0.0,0.0,0.0,-5.5462,-5.5518,-5.5552,-5.4818,-5.5963,-5.7533,-5.77,-6.0064,-6.3126,-6.6579,-6.7208,-6.7641,-6.9519,-6.9458,-6.9089,-6.9382,-7.0901,-7.2515,-7.3798,-7.5271,-7.7433,-8.1132,-8.0899,-8.0356,-8.0194,-7.96,0.0,0.0,0.0,0.0,0.0,0.0,0.0,0.0,-6.8451,-6.7504,-6.9026,-6.7049,-6.573,-6.5256,-6.4546,-6.4174,-6.4174,-6.5817,-6.7419,-6.8979,-7.007,-7.1272,-7.2469,-7.2968,-7.3614,-7.4275,-7.4008,-7.4041,-7.4275,-7.3991,-7.3273,-7.2312,-7.1862,-7.1113,-7.0398,0.0,0.0,0.0,0.0,0.0,0.0,0.0,0.0,0.0,0.0,-3.667,0.0,0.0,0.0,0.0,0.0,0.0,0.0,0.0,0.0,-3.9805,-4.0402,-4.1173,-4.2389,-4.4132,-4.199,-4.0068,-3.8411,-3.2865,-3.0018,-2.9744,-2.9098,-3.0119,-3.2662,-3.337,-3.5178,-3.7758,-4.0958,-4.4621,-4.8386,-4.7758,-4.848,-4.9863,-4.9326,0.0,0.0,0.0,0.0,0.0,0.0,0.0,0.0,0.0,0.0,-5.5341,-5.622,-5.6235,-5.5816,-5.5199,-5.614,-5.7728,-5.9979,-6.3001,-6.639,-7.0154,-7.233,-7.3539,-7.385,-7.1435,-6.9863,-7.1721,-7.1347,-7.1696,-7.4699,-7.59,-7.7654,-8.1407,-8.0885,-8.008,0.0,0.0,0.0,0.0,0.0,0.0,0.0,0.0,0.0,0.0,-6.726,-6.6318,-6.889,-6.6203,-6.4681,-6.4613,-6.3802,-6.3429,0.0,-6.5103,-6.6289,-6.6983,-6.949,-7.1126,-7.2014,-7.3101,-7.3826,-7.429,-7.3748,-7.3862,-7.4287,-7.3612,-7.273,-7.1872,-7.1746,-7.0629,-6.932,0.0,0.0,0.0,0.0,0.0,0.0,0.0,0.0,0.0,0.0,0.0,0.0,0.0,0.0,0.0,0.0,0.0,0.0,0.0,0.0,-4.0375,-4.0424,-4.203,-4.3111,-4.3543,-4.2479,-4.1524,-4.0821,-3.5829,-3.1645,-2.82,-3.04,-3.1803,-3.2653,-3.535,-3.7814,-4.0184,-4.2251,-4.451,-4.7007,-4.8686,-4.99,-5.0776,-5.1448,-5.2501,0.0,0.0,0.0,0.0,0.0,0.0,0.0,-5.3524,-5.473,-5.6248,-5.6456,-5.6964,-5.7655,-5.8143,-5.945,-6.1116,-6.3236,-6.7701,-7.2066,-7.4141,-7.52,-7.5024,-7.2417,-7.1982,-7.2248,-7.2601,-7.2942,-7.3345,-7.4132,-7.6331,-7.8401,-8.0078,-8.1121,-8.1256,0.0,0.0,0.0,0.0,0.0,0.0,0.0,0.0,0.0,-6.9499,-6.7645,-6.7089,-6.8079,-6.6406,-6.5189,-6.4613,-6.3294,-6.2618,0.0,-6.4981,-6.6248,-6.6424,-6.8296,-7.0329,-7.2437,-7.3934,-7.4665,-7.4733,-7.4628,-7.4665,-7.4806,-7.5279,-7.4471,-7.2974,-7.2257,-7.128,-7.0058,0.0,0.0,0.0,0.0,0.0,0.0,0.0,0.0,0.0,0.0,0.0,0.0,0.0,0.0,0.0,0.0,0.0,0.0,0.0,0.0,-4.0873,-4.089,-4.2436,-4.3723,-4.459,-4.3426,-4.2323,-4.1433,-3.6991,-3.2621,-2.8625,-3.0978,-3.2794,-3.4283,-3.8241,-4.0628,-4.1846,-4.4178,-4.6571,-4.8765,-4.9103,-5.014,-5.156,-5.2925,-5.4044,-5.4868,-5.5198,0.0,0.0,0.0,0.0,0.0,0.0,0.0,-5.641,-5.789,-5.8555,-5.8736,-5.8709,-6.072,-6.343,-6.6311,-7.0533,-7.4101,-7.4469,-7.5256,-7.541,-7.3506,-7.326,-7.3373,-7.3373,-7.3672,-7.3881,-7.3881,-7.608,-7.8338,-7.959,-8.0828,-8.1227,0.0,0.0,0.0,0.0,0.0,0.0,0.0,0.0,-6.7969,-6.9026,-6.7122,-6.6434,-6.7302,-6.5595,-6.4478,-6.4072,-6.2956,-6.2381,-6.2381,-6.4567,-6.6096,-6.6981,-6.8608,-7.0515,-7.2532,-7.301,-7.3854,-7.4845,-7.4074,-7.4221,-7.4918,-7.4955,-7.4103,-7.2731,-7.1872,-7.0604,-6.9278,0.0,0.0,0.0,0.0,0.0,0.0,0.0,0.0,0.0,0.0,0.0,0.0,0.0,0.0,0.0,0.0,0.0,0.0,0.0,0.0,0.0,-4.1692,-4.296,-4.4406,-4.5968,-4.4763,-4.3101,-4.1063,-3.7311,-3.3798,-3.0477,-3.1838,-3.3858,-3.6655,-4.1041,-4.2982,-4.3414,-4.6036,-4.8711,-5.0908,-4.9433,-5.0197,-5.239,-5.3713,-5.4886,-5.5784,-5.5511,-5.5583,-5.5621,-5.4227,0.0,0.0,0.0,0.0,-5.6435,-5.918,-5.9761,-5.9406,-5.8863,-6.1623,-6.551,-6.8763,-7.1799,-7.3777,-7.3307,-7.4018,-7.4707,-7.5029,-7.4446,-7.3941,-7.4031,-7.4061,-7.4061,-7.4061,-7.5977,-7.7967,-7.9367,-8.0442,0.0,0.0,0.0,0.0,0.0,0.0,0.0,0.0,0.0,-6.7545,-6.8417,-6.6001,-6.5114,-6.6154,-6.4208,-6.3125,-6.3125,-6.2516,-6.2144,-6.2009,-6.3869,-6.5787,-6.7724,-6.9082,-7.0477,-7.1872,-7.1321,-7.2312,-7.4184,-7.2863,-7.3156,-7.4441,-7.3891,-7.3045,-7.2004,-7.1231,-6.9727,-6.8137,0.0,0.0,0.0,0.0,0.0,0.0,0.0,0.0,0.0,0.0,-3.8716,-3.9941,0.0,0.0,0.0,0.0,0.0,0.0,-4.4268,0.0,0.0,-4.309,-4.4295,-4.5376,-4.6013,-4.6549,-4.4527,-3.9933,-3.7532,-3.558,-3.3959,-3.4156,-3.5951,-3.9359,-4.1663,-4.3851,-4.5669,-4.6701,-4.842,-5.0301,-4.9911,-5.1138,-5.3355,-5.3565,-5.4766,-5.6399,-5.7221,-5.6985,-5.6167,-5.5076,-5.4595,0.0,0.0,0.0,-5.6948,-5.8007,-5.8757,-5.9491,-6.0799,0.0,-6.8371,0.0,-7.0856,-7.1329,0.0,0.0,-7.2262,0.0,-7.4081,-7.4061,-7.4629,-7.4749,-7.4749,-7.4749,-7.6891,-7.8448,-7.8723,0.0,0.0,0.0,0.0,0.0,0.0,0.0,0.0,0.0,-6.8297,-6.7285,-6.6203,-6.4585,-6.3775,-6.3971,-6.2415,-6.1603,-6.1603,-6.1501,-6.1095,-6.0419,-6.289,-6.5345,-6.7687,-6.7907,-6.8531,-6.9412,-7.0,-7.0844,-7.1762,-7.1578,-7.2018,-7.2899,-7.345,-7.2681,-7.1247,-7.1018,-6.9727,-6.8068,0.0,0.0,0.0,0.0,0.0,0.0,0.0,0.0,0.0,0.0,0.0,-4.1173,0.0,0.0,0.0,-4.4048,-4.506,-4.5828,-4.6157,-4.5158,-4.4524,-4.4419,-4.5695,-4.6902,-4.7812,-4.6609,-4.5149,-4.3737,-4.0337,-3.8419,-3.8114,-3.7725,-3.7975,-3.8663,-4.1565,-4.3893,-4.5573,-4.6643,-4.8097,-4.9751,-5.1334,-5.1902,-5.2059,-5.4323,-5.5495,-5.6127,-5.6847,-5.6629,-5.5813,-5.4586,-5.462,-5.5426,-5.6361,0.0,0.0,0.0,-5.9402,-5.9832,-6.1741,-6.3675,-6.5725,0.0,-6.868,-6.8784,-6.974,-7.0015,-7.0452,-7.153,-7.2008,-7.2774,-7.454,-7.4869,-7.4992,-7.5612,-7.734,-7.8634,0.0,0.0,0.0,0.0,0.0,0.0,0.0,0.0,0.0,0.0,-6.7584,-6.6643,-6.5155,-6.37,-6.2482,-6.1637,-6.0588,-6.0013,-6.0013,-6.0013,-6.0501,-6.1606,-6.315,-6.5022,-6.7026,-6.7467,-6.8128,-6.8935,-6.9265,-6.9889,-7.0624,-7.0624,-7.0844,-7.1118,-7.1003,-7.0495,-6.9741,-6.9035,-6.8224,-6.7515,0.0,0.0,0.0,0.0,0.0,0.0,0.0,0.0,0.0,0.0,0.0,0.0,0.0,0.0,0.0,0.0,-4.6113,-4.684,-4.7439,-4.6637,-4.6171,-4.6432,-4.7392,-4.8413,-4.9552,-4.7401,-4.6572,-4.7317,-4.3547,-4.1801,-4.1721,-4.1554,-4.0773,-3.9726,-4.255,-4.4364,-4.5661,-4.6991,-4.8439,-4.9814,-5.1817,-5.1831,-5.1025,-5.4251,-5.5482,-5.564,-5.6523,-5.65,-5.5683,-5.4364,-5.485,-5.6182,-5.7107,-5.7658,0.0,0.0,0.0,-5.9722,-6.2144,0.0,-6.3437,-6.5556,-6.6408,-6.6799,0.0,0.0,-6.8612,0.0,-6.9961,-7.1188,-7.3702,-7.427,-7.4691,-7.5759,-7.6927,0.0,0.0,0.0,0.0,0.0,0.0,0.0,0.0,0.0,0.0,0.0,-6.6866,-6.6068,-6.441,-6.2751,-6.1272,-5.9911,-5.8957,-5.8409,-5.8409,-5.8651,-5.9979,-6.2415,-6.3235,-6.4554,-6.6219,-6.6806,-6.7286,-6.767,-6.8109,-6.873,-6.9462,-6.9216,-6.9209,-6.9332,-6.8687,-6.8335,-6.8016,-6.7365,-6.6962,-6.6789,0.0,0.0,0.0,0.0,0.0,0.0,0.0,0.0,0.0,0.0,0.0,-4.4265,-4.4231,-4.5523,-4.6684,-4.7462,-4.6968,-4.6862,-4.7436,-4.8095,-4.8855,-4.9618,-4.9384,0.0,-5.032,-5.0211,-4.9568,-4.8419,-4.6841,-4.5504,-4.4327,-4.5022,-4.5388,-4.528,-4.5569,-4.6196,-4.7094,-4.8339,-4.9776,-5.105,-5.0253,-5.0423,-5.1293,-5.2416,-5.3806,-5.5279,-5.7269,-5.7299,-5.6325,-5.5288,-5.5786,-5.6757,-5.6019,-5.6809,-5.8024,0.0,0.0,0.0,-6.1911,-6.3379,0.0,-6.3013,-6.4566,-6.5936,0.0,0.0,-6.6559,-6.7877,-6.8615,-6.9722,-7.1948,-7.2654,-7.3485,-7.4988,0.0,0.0,0.0,0.0,0.0,0.0,0.0,0.0,0.0,0.0,0.0,0.0,-6.6866,-6.5865,-6.37,-6.1513,-5.9979,-5.9218,-5.7697,-5.6902,-5.6902,-5.7694,-5.9229,-6.1663,-6.2462,-6.371,-6.5375,-6.5411,-6.5004,-6.4354,-6.5849,-6.6969,-6.7692,-6.6767,-6.6865,-6.7504,-6.7504,-6.6919,-6.6229,-6.6879,-6.6529,-6.588,0.0,0.0,0.0,0.0,0.0,0.0,0.0,0.0,0.0,0.0,0.0,0.0,0.0,-4.6271,-4.7446,-4.84,-4.826,-4.8598,-4.9809,-4.9161,-4.9272,-5.044,-4.9769,-5.0037,-5.1303,-5.0703,-5.0518,-5.0725,-4.9542,-4.8713,-4.8268,-4.8661,-4.8775,-4.8735,-4.7778,-4.7476,-4.7751,-4.871,-4.9223,-4.9427,-5.0801,-5.104,-5.075,-5.2469,-5.3489,-5.4099,-5.5334,-5.6506,-5.7316,-5.5928,-5.6761,-5.8141,-5.6865,-5.7166,-5.7997,-5.7977,-5.9445,-6.1025,-6.0787,0.0,0.0,-6.2579,-6.2958,-6.3401,-6.3715,-6.4893,-6.6139,-6.6559,-6.7871,-6.9426,-7.0587,-7.1716,-7.2826,0.0,0.0,0.0,0.0,0.0,0.0,0.0,0.0,0.0,0.0,0.0,0.0,0.0,0.0,-6.5194,-6.4324,-6.1703,-5.9627,-5.8527,-5.7403,-5.6842,-5.6842,-5.8105,-5.9451,-6.0884,-6.2176,-6.3403,-6.453,-6.4458,-6.4307,-6.3986,-6.3428,-6.3725,-6.4483,-6.4131,-6.4179,-6.4427,-6.3828,-6.3694,-6.3858,-6.405,-6.4461,-6.5155,0.0,0.0,0.0,0.0,0.0,0.0,0.0,0.0,-4.4384,-4.3876,0.0,0.0,0.0,0.0,-4.8844,-4.9508,-4.9796,-5.041,-5.1494,-5.0566,-5.0459,-5.1622,-5.1092,-5.1284,-5.2383,-5.1999,-5.2179,-5.2771,-5.2235,-5.2178,-5.2437,-5.2523,-5.2739,-5.2958,-5.1911,-5.0773,-4.9635,-5.0241,-5.0377,-5.0155,-5.1821,-5.1925,-5.1356,-5.3732,-5.4437,-5.4363,-5.5648,-5.6814,-5.7441,-5.5892,-5.6689,-5.8178,-5.66,-5.7005,-5.8215,-5.931,-6.1112,-6.2493,-6.1056,-6.1105,-6.1789,-6.2403,-6.2462,-6.2617,-6.3279,0.0,-6.5502,-6.5208,-6.6917,-6.8633,-6.9356,-7.0934,0.0,0.0,0.0,0.0,0.0,0.0,0.0,0.0,0.0,0.0,0.0,0.0,0.0,0.0,0.0,0.0,-6.4744,-6.2057,-5.9564,-5.7388,-5.6786,-5.6247,-5.5741,-5.7517,-5.8719,-5.9251,-6.1091,-6.2284,-6.2894,-6.2825,-6.251,-6.1961,-6.1037,-6.1357,-6.231,-6.2045,-6.1771,-6.1494,-6.1118,-6.1215,-6.1487,-6.2106,-6.3193,-6.4478,0.0,0.0,0.0,0.0,0.0,0.0,0.0,0.0,-4.4643,-4.4677,0.0,0.0,0.0,0.0,0.0,-5.0941,-5.1643,-5.2197,-5.236,-5.2333,-5.2666,-5.3524,-5.357,-5.3551,-5.3551,-5.4264,-5.4634,-5.4634,-5.5092,-5.5652,-5.6448,-5.6745,-5.7302,-5.8084,-5.8084,-5.606,-5.2729,-5.3206,-5.3444,-5.3488,-5.3057,-5.2909,-5.3273,-5.5936,-5.6438,-5.6014,-5.8358,-5.8192,-5.6682,-5.5131,-5.5658,-5.6724,-5.5119,-5.6197,-5.8661,-6.1842,-6.2808,-6.2781,0.0,0.0,0.0,-6.2353,0.0,0.0,-6.2769,0.0,-6.4734,-6.4156,-6.5612,-6.7282,0.0,0.0,0.0,0.0,0.0,0.0,0.0,0.0,0.0,0.0,0.0,0.0,0.0,0.0,0.0,0.0,0.0,-6.5554,-6.4744,-6.2468,-5.9541,-5.5865,-5.5759,-5.5034,-5.3551,-5.5809,-5.6888,-5.6888,-5.9249,-6.0397,-6.0397,-6.03,-5.9475,-5.8037,-5.8663,-5.9908,-6.1259,-6.0393,-5.9573,-5.8998,-5.9708,-5.9573,-5.9268,-6.1501,-6.2821,-6.3835,0.0,0.0,0.0,0.0,0.0,-4.3823,-4.5206,-4.4925,-4.515,0.0,0.0,0.0,-4.9174,-5.0807,-5.1754,-5.1688,-5.191,-5.2594,-5.3799,-5.3424,-5.3655,-5.4992,-5.5098,-5.5119,-5.5119,-5.5262,-5.5379,-5.5379,-5.6082,-5.6856,-5.763,-5.8262,-5.8808,-5.9359,-5.9359,-5.8756,-5.7586,-5.6195,-5.5212,-5.4563,-5.471,-5.4559,-5.4367,-5.5305,-5.5649,-5.5702,-5.6354,-5.7081,-5.7492,-5.5917,-5.6816,-5.8152,-5.6049,-5.7137,-5.9631,-6.2077,-6.2771,-6.2777,-6.2778,0.0,0.0,0.0,0.0,0.0,0.0,0.0,0.0,-6.5247,0.0,0.0,0.0,0.0,0.0,0.0,0.0,0.0,0.0,0.0,0.0,0.0,0.0,0.0,0.0,0.0,0.0,0.0,-6.5736,-6.4987,-6.4744,-6.1586,-5.8814,-5.668,-5.6573,-5.6094,-5.5119,-5.6269,-5.6881,-5.6916,-5.8744,-5.9608,-5.9547,-5.8927,-5.8372,-5.7936,-5.7056,-5.6917,-5.736,-5.762,-5.7273,-5.6697,-5.7442,-5.7915,-5.8389,-6.0114,-6.1907,-6.3768,0.0,0.0,0.0,0.0,0.0,-4.4098,-4.5042,-4.5395,-4.5977,0.0,0.0,0.0,-5.1087,-5.2087,-5.2798,-5.3482,-5.3215,-5.3717,-5.5352,-5.4799,-5.4884,-5.6133,-5.5893,-5.5766,-5.599,-5.6133,-5.6295,-5.6453,-5.7064,-5.7747,-5.8574,-5.9329,-6.0141,-6.0957,-6.087,-6.0896,-6.0748,-5.9164,-5.7738,-5.6544,-5.6648,-5.6426,-5.6102,-5.6548,-5.6667,-5.6634,-5.6656,-5.7196,-5.7775,-5.6198,-5.6824,-5.8123,-5.7509,-5.8394,-6.0086,-6.2178,-6.2829,-6.2777,-6.2778,-6.3062,-6.3479,-6.4033,0.0,0.0,-6.3202,-6.3728,0.0,0.0,0.0,0.0,0.0,0.0,0.0,0.0,0.0,0.0,0.0,0.0,0.0,0.0,0.0,0.0,0.0,-6.4726,-6.5775,-6.7427,-6.5548,-6.3918,-6.2879,-6.0499,-5.8264,-5.6286,-5.6632,-5.6125,-5.4539,-5.575,-5.6279,-5.5966,-5.7219,-5.795,-5.8263,-5.7394,-5.7054,-5.6987,-5.6062,-5.5378,-5.4837,-5.5581,-5.5615,-5.531,-5.6055,-5.6596,-5.7205,-5.8998,-6.1095,-6.3294,0.0,0.0,-3.8828,-3.9637,-4.227,-4.4315,-4.4476,-4.5838,-4.6912,0.0,-4.8311,-5.0224,-5.299,-5.3271,-5.3836,-5.5464,-5.495,-5.5214,-5.6765,-5.6259,-5.6296,-5.7107,-5.6472,-5.6312,-5.6708,-5.6985,-5.7304,-5.772,-5.7932,-5.84,-5.9245,-5.9942,-6.0932,-6.2103,0.0,0.0,-6.2216,-6.1454,-6.0191,-5.871,-5.8628,-5.8248,-5.7859,-5.8317,-5.8175,-5.7761,-5.7781,-5.7844,-5.7712,-5.6602,-5.6608,-5.7464,-5.9235,-5.9745,-6.0088,-6.215,-6.2725,-6.2695,-6.2805,-6.3429,-6.4352,-6.5477,-6.5509,0.0,-6.3841,-6.368,-6.3061,0.0,0.0,0.0,0.0,0.0,0.0,0.0,0.0,0.0,0.0,0.0,0.0,0.0,0.0,0.0,-6.4367,-6.5023,-6.6071,-6.792,-6.52,-6.2479,-6.0184,-5.9429,-5.7915,-5.548,-5.6232,-5.5553,-5.3082,-5.4686,-5.5141,-5.4465,-5.5243,-5.5919,-5.6528,-5.5886,-5.5581,-5.5581,-5.5513,-5.4735,-5.3551,-5.4194,-5.4465,-5.4532,-5.531,-5.5649,-5.5987,-5.8186,-6.0452,-6.2719,0.0,-3.7811,-3.828,-4.0152,-4.2069,-4.3815,-4.5102,-4.614,-4.7427,-4.9195,-5.013,-5.1347,-5.3111,-5.3302,-5.3908,-5.5456,-5.5464,-5.5939,-5.7286,-5.7241,-5.7661,-5.8877,-5.8763,-5.8726,-5.8802,-5.852,-5.8386,-5.8475,-5.815,-5.84,-5.9208,-5.9391,-5.9788,-6.0385,-6.0348,-6.0304,-6.0152,-6.0,-5.9477,-5.8776,-5.9505,-5.8878,-5.7584,-5.6843,-5.6399,-5.6091,-5.5927,-5.6775,-5.8061,-5.9081,-5.9124,-5.9075,-6.0447,-6.0171,-5.9786,-6.2091,-6.2338,-6.1998,-6.2622,-6.3429,-6.3987,-6.3475,-6.4235,0.0,-6.3178,-6.3225,-6.3653,0.0,0.0,0.0,0.0,0.0,0.0,0.0,0.0,0.0,0.0,0.0,0.0,0.0,0.0,0.0,-6.5001,-6.6396,-6.7035,-6.6599,-6.3597,-6.1126,-5.9361,-5.8553,-5.763,-5.6528,-5.6094,-5.538,-5.4289,-5.4058,-5.3856,-5.3721,-5.4465,-5.4871,-5.5006,-5.4871,-5.4803,-5.4769,-5.4194,-5.3788,-5.3518,-5.3653,-5.3721,-5.3788,-5.4532,-5.5175,-5.5987,-5.8186,-6.0452,-6.2719,-3.8123,-3.8123,-3.8461,-4.0368,-4.2315,-4.4074,-4.5302,-4.7173,-4.8747,-4.9872,-5.0929,-5.2207,-5.3773,-5.3878,-5.4638,-5.6638,-5.6608,-5.6978,-5.8042,-5.8314,-5.8726,-5.9389,-5.9389,-5.9492,-5.9722,-5.9028,-5.8796,-5.9065,-5.8332,-5.8217,-5.8621,-5.9024,-5.9235,-5.9346,-5.9756,-5.9549,-5.8945,-5.8945,-5.8412,-5.7642,-5.8828,-5.8105,-5.6248,-5.5284,-5.4895,-5.4869,-5.4354,-5.6018,-5.8772,-5.9896,-6.0629,-6.11,-6.1349,-6.1185,-6.1337,-6.2989,-6.2842,-6.2401,-6.3209,-6.3722,-6.4075,-6.4383,-6.5008,0.0,0.0,-6.3136,-6.3293,-6.213,-6.3165,-6.47,-6.61,0.0,0.0,0.0,0.0,0.0,0.0,0.0,0.0,0.0,0.0,0.0,-6.7688,-6.7671,-6.6298,-6.2875,-6.1535,-6.0045,-5.8022,-5.7881,-5.7291,-5.6003,-5.6107,-5.5471,-5.3799,-5.433,-5.4419,-5.4042,-5.4419,-5.4795,-5.5072,-5.4398,-5.4262,-5.4566,-5.3822,-5.3518,-5.3518,-5.3518,-5.3721,-5.4093,-5.4465,-5.504,-5.5987,-5.8186,-6.0452,-6.2651,-3.8411,-3.8311,-3.8612,-4.0362,-4.26,-4.4494,-4.5335,-4.8107,-5.009,-5.039,-5.1693,-5.3207,-5.4834,-5.5139,-5.6264,-5.8887,-5.8178,-5.8201,-5.9589,-5.9432,-5.9332,-5.943,-5.9582,-5.9747,-5.9836,-5.9173,-5.899,-5.9248,-5.8418,-5.8042,-5.8142,-5.8804,-5.8998,-5.8791,-5.9115,-5.8768,-5.8021,-5.7703,-5.6864,-5.583,-5.7015,-5.6333,-5.4565,-5.3502,-5.3345,-5.3749,-5.3899,-5.6336,-5.9534,-6.0304,-6.1551,-6.2694,-6.1885,-6.1924,-6.2548,-6.3539,-6.3246,-6.2805,-6.3796,-6.4256,-6.4737,-6.6043,-6.6439,-6.5966,0.0,0.0,0.0,-6.087,0.0,0.0,0.0,0.0,0.0,0.0,0.0,0.0,0.0,0.0,0.0,0.0,0.0,0.0,0.0,-6.8607,-6.4968,-5.9342,-5.9678,-5.9184,-5.6904,-5.734,-5.6976,-5.5487,-5.6163,-5.553,-5.3261,-5.47,-5.5196,-5.4606,-5.4606,-5.4918,-5.5444,-5.4122,-5.3822,-5.4329,-5.3754,-5.3518,-5.3518,-5.3653,-5.4059,-5.46,-5.46,-5.5141,-5.619,-5.8254,-6.0452,-6.2618,-3.8898,-3.8032,-3.7768,-4.0262,-4.26,-4.4494,-4.5335,-4.8141,-5.0515,-5.1692,-5.3279,-5.4882,-5.6429,-5.7555,-5.9529,-6.278,-5.9965,-5.953,-6.3067,-6.051,-5.9043,-5.947,-6.0224,-6.0137,-5.8959,-5.9181,-5.9139,-5.8756,-5.8238,-5.8194,-5.8632,-5.8706,-5.8747,-5.8676,-5.7439,-5.6978,-5.6971,-5.5613,-5.4419,-5.3471,-5.3635,-5.3543,-5.3146,-5.1205,-5.1149,-5.2611,-5.6167,-5.8706,-6.0458,-6.1121,-6.1986,-6.2668,-6.1887,-6.1153,-6.097,-6.2511,-6.2365,-6.2071,-6.3649,-6.5139,-6.6244,-6.6365,-6.7296,-6.7729,-6.6025,0.0,-6.5391,-6.5221,0.0,-6.6987,-6.7757,0.0,0.0,0.0,0.0,0.0,0.0,0.0,0.0,0.0,0.0,0.0,0.0,0.0,-6.4024,-5.8591,-5.8981,-5.8654,-5.687,-5.6867,-5.6795,-5.6622,-5.6085,-5.5376,-5.4428,-5.4583,-5.4676,-5.4606,-5.4606,-5.4641,-5.471,-5.3849,-5.3551,-5.3619,-5.3551,-5.3518,-5.3551,-5.4194,-5.4499,-5.46,-5.46,-5.5446,-5.6867,-5.8457,-6.0452,-6.2685,-3.7919,-3.7837,-3.8062,-4.0286,-4.2284,-4.388,-4.4743,-4.8209,-5.1367,-5.3172,-5.4447,-5.5962,-5.795,-5.8943,-6.0621,-6.3419,-6.2332,-6.1932,-6.304,-6.1628,-6.0559,-6.0281,-6.0342,-6.0119,-5.9569,-5.9166,-5.8913,-5.8713,-5.8238,-5.8238,-5.8713,-5.8713,-5.8452,-5.7968,-5.6947,-5.5873,-5.4848,-5.4239,-5.3101,0.0,0.0,-5.0594,0.0,-4.9536,-5.0069,-5.1582,-5.5835,-5.8421,-5.9953,-6.0629,-6.2077,-6.3319,-6.1998,-6.1704,-6.1924,-6.2622,-6.2585,-6.2548,-6.3759,-6.4875,-6.5908,-6.6825,-6.7394,-6.7753,-6.8112,-6.7683,-6.7437,-6.8144,0.0,0.0,0.0,0.0,0.0,0.0,-6.6925,0.0,0.0,0.0,0.0,0.0,0.0,0.0,0.0,0.0,0.0,0.0,-5.7137,-5.6474,-5.5229,-5.5188,-5.5262,-5.5155,-5.5131,-5.4702,-5.3957,-5.4372,-5.4606,-5.4606,-5.4606,-5.4818,-5.5203,-5.4042,-5.3717,-5.4106,-5.3685,-5.3518,-5.3551,-5.4296,-5.4837,-5.531,-5.619,-5.6867,-5.7679,-5.9607,-6.1501,-6.3294,-3.7536,-3.7701,-3.8132,-4.0659,-4.2164,-4.3719,-4.5657,-4.8945,-5.1987,-5.4109,-5.5705,-5.75,-5.9854,-6.1172,-6.3041,-6.5902,-6.5323,-6.4594,-6.4211,-6.277,-6.1313,-5.9969,-5.9893,-5.9627,-5.9046,-5.8803,-5.8632,-5.8545,-5.8186,-5.8238,-5.8713,-5.8713,-5.826,-5.7501,-5.6581,-5.5158,-5.3408,-5.3013,-5.2061,-5.073,-5.005,-4.9285,-4.8497,-4.8809,-4.9645,-5.1075,-5.5133,-5.7482,-5.8815,-5.9517,-6.1372,0.0,-6.1704,-6.1814,-6.2511,-6.2768,-6.2805,-6.3062,-6.4127,-6.5113,-6.6192,-6.7787,-6.8052,-6.8326,-7.006,-6.9703,-6.9372,-7.0627,-7.138,0.0,0.0,0.0,-7.0494,-7.0381,0.0,-6.4017,0.0,-6.2741,0.0,0.0,0.0,0.0,0.0,0.0,0.0,-5.7211,-5.595,-5.4921,-5.403,-5.4063,-5.4063,-5.3954,-5.4615,-5.4465,-5.3518,-5.42,-5.4606,-5.4572,-5.4818,-5.5203,-5.5667,-5.4391,-5.4106,-5.4544,-5.3849,-5.3518,-5.3585,-5.4499,-5.51,-5.5693,-5.7338,-5.8245,-5.8892,-6.0883,-6.2415,-6.3768,-3.8581,-3.7416,-3.7443,-4.1267,-4.2557,-4.4622,-4.9148,-5.0627,-5.1963,-5.4179,-5.7182,-5.9927,-6.2146,-6.4966,-6.8262,-7.2078,-6.9097,-6.7333,-6.8141,-6.3925,-6.0285,-5.7805,-5.8824,-5.8424,-5.6366,-5.7893,-5.8503,-5.8042,-5.7997,-5.8238,-5.8713,-5.8713,-5.8312,-5.7519,-5.5995,-5.4634,-5.3394,-5.1872,-5.1062,-5.0801,-5.0763,-5.0579,-5.0224,0.0,-4.9936,-5.1243,-5.4651,0.0,0.0,-5.7908,-5.9743,0.0,0.0,0.0,0.0,0.0,-6.2805,-6.3172,0.0,0.0,-6.8017,-6.9577,-6.9914,-7.0238,-7.1824,-7.1509,-7.1304,-7.2988,-7.3435,-7.3732,-7.4628,-7.332,-7.1552,-6.999,-6.7996,0.0,0.0,0.0,0.0,0.0,0.0,0.0,0.0,0.0,0.0,-5.7196,-5.5961,-5.4959,-5.403,-5.4063,-5.4063,-5.3954,-5.5118,-5.4972,-5.3518,-5.42,-5.4606,-5.4606,-5.532,-5.5667,-5.5667,-5.4939,-5.4606,-5.4544,-5.3849,-5.3518,-5.3619,-5.5074,-5.5375,-5.527,-5.7376,-5.9202,-6.0654,-6.1883,-6.2854,-6.3835,-3.924,-3.9073,-3.9254,-4.0857,-4.1783,-4.4089,-4.9291,-5.1551,-5.4206,-5.8604,-6.0567,-6.3125,-6.7096,-6.9102,-7.0705,-7.2184,-7.0837,-6.9202,-6.7455,-6.4317,-6.1864,-6.043,-5.9477,-5.8835,-5.8635,-5.8375,-5.8186,-5.7997,-5.7498,-5.7533,-5.7936,-5.7464,-5.6769,-5.6031,-5.5004,-5.3631,0.0,0.0,0.0,0.0,0.0,-4.9921,-5.0112,0.0,0.0,-5.1947,-5.4738,-5.6258,0.0,-5.8994,-6.0481,-6.1557,-6.1263,-6.1741,-6.2438,-6.2732,-6.3613,0.0,0.0,0.0,-6.9412,-6.9963,0.0,0.0,-7.2802,-7.2879,-7.3127,-7.4879,-7.5625,-7.6115,-7.6436,-7.4091,-7.1693,-7.0342,-6.7661,-6.5013,0.0,-6.0932,0.0,0.0,0.0,-6.6564,0.0,0.0,0.0,-5.7323,-5.5306,-5.3844,0.0,-5.2284,-5.191,-5.1878,-5.315,-5.3379,-5.2487,-5.3382,-5.4106,-5.4572,-5.4878,-5.5495,-5.6421,-5.5179,-5.4878,-5.5297,-5.459,-5.3816,-5.3247,-5.5206,-5.5673,-5.5435,-5.7646,-5.9065,-6.0114,-6.148,-6.3567,-6.6083,-4.1026,-4.0755,-4.0689,-4.1716,-4.3331,-4.5934,-5.0206,-5.3548,-5.7143,-6.15,-6.3753,-6.6581,-7.0823,-7.2197,-7.2958,-7.3287,-7.3019,-7.1257,-6.7501,-6.5871,-6.3984,-6.1656,-6.0646,-5.9974,-5.9641,-5.8841,-5.816,-5.7631,-5.7116,-5.6906,-5.6876,-5.6397,-5.5741,-5.5026,-5.4529,-5.3195,-5.1245,-5.1235,-5.069,0.0,0.0,-5.0702,0.0,0.0,-5.2463,-5.2674,0.0,-5.5985,-5.7171,-5.8972,-6.0262,-6.1227,-6.152,-6.1961,-6.2511,-6.3099,-6.4016,-6.5118,-6.6182,-6.8054,0.0,-7.0036,-7.0624,0.0,-7.3296,0.0,-7.3978,-7.5348,-7.6313,-7.679,-7.6533,-7.406,-7.1655,-7.0484,-6.748,-6.4627,0.0,-6.0423,-5.9414,-6.0391,-6.216,-6.3249,0.0,-6.1298,-5.9198,-5.6801,-5.502,-5.3331,0.0,0.0,-5.1061,-5.0689,-5.238,-5.2935,-5.2244,-5.3073,-5.3881,-5.4572,-5.4878,-5.5667,-5.6861,-5.587,-5.5683,-5.6069,-5.4872,-5.4083,-5.3748,-5.5227,-5.5738,-5.5695,-5.7866,-5.9255,-6.0361,-6.2142,-6.5034,-6.8285,-4.3673,-4.2381,-4.1893,-4.4168,-4.7098,-4.987,-5.213,-5.6541,-6.0518,-6.2875,-6.6665,-7.0327,-7.329,-7.436,-7.5022,-7.5517,-7.5525,-7.3414,-6.8512,-6.8414,-6.6416,-6.1682,-6.2361,-6.1814,-5.9575,-5.9307,-5.8507,-5.7072,-5.6897,-5.6421,-5.5724,-5.561,-5.5203,-5.4475,-5.451,-5.3278,-5.115,-5.1183,-5.0875,-5.0333,-5.1725,-5.2773,-5.3518,-5.3518,-5.3502,-5.3636,-5.4391,-5.5645,-5.7093,-5.7939,-5.9233,-6.0603,-6.141,-6.1667,-6.1961,-6.3613,-6.4163,-6.4567,-6.6109,-6.776,-6.9192,-6.9963,0.0,0.0,0.0,0.0,-7.3891,0.0,-7.5469,-7.5799,-7.5042,-7.3308,-7.1692,-7.0521,-6.7446,-6.4538,-6.2503,-6.095,-5.9968,-6.006,-5.9593,-5.9674,-6.0676,-5.9781,-5.8122,-5.5697,-5.492,-5.3357,0.0,0.0,-5.1302,-5.0342,-5.2594,-5.3465,-5.2786,-5.3202,-5.3883,-5.4703,-5.5379,-5.615,-5.6933,-5.6914,-5.6905,-5.674,-5.4929,-5.447,-5.5025,-5.5429,-5.5642,-5.5992,-5.8091,-5.9897,-6.1551,-6.4175,-6.7235,-7.0195,-4.4551,-4.6072,-4.8132,-5.0275,-5.0546,-5.143,-5.41,-5.8674,-6.3066,-6.6531,-7.0583,-7.3993,-7.6059,-7.694,-7.6956,-7.6013,-7.5835,-7.4523,-7.1537,-6.9753,-6.8247,-6.6942,-6.489,-6.3759,-6.3723,-6.0814,-5.9365,-5.9518,-5.6609,-5.5379,-5.5667,-5.4544,-5.3604,-5.2898,-5.3511,-5.2496,-5.0469,-5.1542,-5.189,-5.1787,-5.2153,-5.2773,0.0,0.0,-5.3809,-5.4391,-5.5133,-5.6451,-5.8027,-5.937,-6.0457,-6.141,-6.2254,-6.2511,-6.2695,-6.3759,-6.4934,-6.6109,-6.71,-6.9009,-7.0734,-7.0954,-7.1615,-7.2165,0.0,0.0,0.0,0.0,0.0,0.0,0.0,-7.2791,-7.1084,-7.0574,-6.6999,-6.3242,-6.0156,-5.9393,-5.8988,-5.8465,-5.7028,-5.6716,-5.8662,-5.7973,-5.6684,-5.5034,-5.3407,0.0,0.0,0.0,0.0,-4.607,-4.9616,-5.1333,-5.1014,-5.2346,-5.4127,-5.6188,-5.5857,-5.6435,-5.7726,-5.7071,-5.6667,-5.6269,-5.6269,-5.5698,-5.4925,-5.709,-5.774,-5.7631,-5.9138,-6.1822,-6.5108,-6.6707,-6.8478,-7.0331,-4.6974,-5.04,-5.358,-5.4349,-5.5849,0.0,-5.8604,-6.1347,-6.4683,-6.8474,-7.1926,-7.4455,-7.5602,-7.7024,-7.7377,-7.6227,-7.6027,-7.4976,-7.2606,-7.1908,-7.0917,-6.9486,-6.8017,-6.6806,-6.5852,-6.2522,-6.0508,-5.9953,-5.7009,-5.561,-5.5667,-5.4818,-5.4023,-5.3327,-5.4121,-5.3369,-5.161,-5.176,-5.1968,-5.209,-5.1919,0.0,0.0,-5.3348,-5.3946,-5.4634,-5.5084,-5.6446,-5.8316,-5.9896,-6.0933,-6.1741,-6.2548,-6.2805,-6.2989,-6.3833,-6.4751,-6.5705,-6.6843,-6.8421,-6.9889,-7.0624,-7.1394,-7.1945,-7.1872,-7.2532,-7.3046,0.0,0.0,0.0,0.0,0.0,-7.03,-6.828,-6.5696,-6.2831,-5.9993,-5.8934,-5.831,-5.7983,-5.6449,-5.5955,-5.7109,-5.6416,-5.5475,-5.4561,-5.3014,0.0,0.0,0.0,0.0,-4.4703,-4.8341,-5.056,-5.1178,-5.3261,-5.5103,-5.6799,-5.6082,-5.6524,-5.7962,-5.6947,-5.6678,-5.7043,-5.6969,-5.6427,-5.5584,-5.7932,-5.8504,-5.8055,-6.0194,-6.2901,-6.5868,-6.7193,-6.8942,-7.0838,-5.0271,-5.4538,-5.7715,-5.7075,-6.1356,-6.4737,0.0,-6.5123,0.0,-6.9947,-7.2547,-7.4121,-7.4133,-7.6056,-7.7047,-7.6313,-7.6276,-7.5359,-7.3266,-7.4258,-7.367,-7.0844,-7.0991,-6.9853,-6.7026,-6.4134,-6.1719,-5.9796,-5.7726,-5.6421,-5.5836,-5.578,-5.5379,-5.4757,0.0,0.0,0.0,-5.1869,-5.1432,-5.1693,-5.1324,-5.1462,-5.1993,-5.311,-5.3881,-5.4482,-5.4606,-5.6152,-5.8267,-5.9648,-6.0724,-6.1565,-6.2398,-6.2618,-6.2815,-6.3686,-6.4016,-6.442,-6.5925,-6.699,-6.8054,-6.9559,-7.0624,-7.1505,-7.2202,-7.2422,-7.2496,-7.2496,-7.2988,-7.2875,0.0,0.0,-6.8973,-6.5209,-6.4118,-6.3,-6.075,-5.8983,-5.7959,-5.789,-5.6707,0.0,0.0,0.0,0.0,0.0,0.0,0.0,0.0,0.0,0.0,-4.4314,-4.7677,0.0,-5.227,0.0,-5.6203,-5.7222,-5.6203,-5.6475,-5.7866,-5.6778,-5.6929,-5.8084,-5.7484,-5.7059,-5.6958,-5.8752,-5.9044,-5.8552,-6.1164,-6.3386,-6.5219,-6.6647,-6.883,-7.1108,-5.3855,-5.6639,-5.8911,-5.9441,-6.3182,-6.7102,-7.0162,-7.2237,-7.3421,-7.3333,-7.6789,-7.8565,-7.6838,-7.7084,-7.7268,-7.7121,-7.7121,-7.6937,-7.6497,-7.5506,-7.4661,-7.4074,-7.1651,-7.0036,-6.9486,-6.4476,-6.202,-6.2215,-5.7981,-5.6204,-5.6668,-5.6004,-5.5667,-5.5495,0.0,0.0,-5.3288,-5.1588,0.0,-5.0919,-5.0857,-5.1305,-5.1993,-5.311,-5.3551,-5.3783,-5.4391,-5.6089,-5.8152,-5.841,-5.9465,-6.0759,-6.1568,-6.1824,-6.1969,-6.2801,-6.3539,-6.431,-6.5264,-6.6586,-6.7907,-6.8862,-7.022,-7.1358,-7.1505,-7.2018,-7.2496,-7.2496,-7.1964,-7.124,-7.0127,0.0,0.0,-6.483,-6.4011,-6.2695,-6.0093,-5.8626,-5.7579,-5.7084,-5.5584,-5.497,0.0,0.0,0.0,0.0,0.0,0.0,0.0,0.0,0.0,0.0,0.0,0.0,0.0,0.0,-5.5875,-5.9592,-5.6928,-5.6291,-5.7395,-5.7099,-5.7281,-5.7903,-5.8918,-5.9387,-5.9498,-6.0984,-6.1828,-6.2195,-6.2694,-6.378,-6.5219,-6.6647,-6.8206,-6.9926,-5.8232,-5.9752,-6.1348,-6.3501,-6.6824,0.0,0.0,-7.5551,-7.6604,-7.4525,-7.5671,-7.6238,-7.4963,-7.6313,-7.7304,-7.7304,-7.7304,-7.7157,-7.6717,-7.5579,-7.4551,-7.3707,-7.1358,-6.9706,-6.8862,-6.451,-6.2245,-6.2181,-5.8609,-5.708,-5.7449,-5.708,-5.6685,-5.6277,0.0,-5.4839,0.0,0.0,0.0,-5.0331,-5.0665,-5.0975,-5.1336,-5.287,-5.3518,-5.3551,-5.3881,-5.4987,-5.6501,-5.7656,-5.9419,-6.0997,-6.0997,-6.1548,-6.2219,-6.2219,-6.2808,-6.3613,-6.4457,-6.5558,-6.6843,-6.8495,-6.9816,-7.0917,-7.1725,-7.2239,-7.2343,-7.1854,-7.1122,-7.0015,-6.8115,-6.6342,0.0,0.0,0.0,-6.2232,-5.9845,-5.8745,-5.7682,-5.6235,-5.5345,-5.4945,-5.5414,0.0,0.0,0.0,0.0,0.0,0.0,0.0,0.0,0.0,0.0,0.0,0.0,0.0,0.0,-6.0198,-5.7978,-5.7192,-5.7907,-5.7122,-5.714,-5.7783,-5.8399,-5.8859,-5.9358,-6.0764,-6.1996,-6.3079,-6.3079,-6.3478,-6.432,-6.647,-6.8055,-6.9743,-6.2185,-6.3073,-6.4345,-6.7328,-7.0442,-7.2892,-7.3913,-7.6893,-7.8107,-7.5555,-7.4499,-7.3919,-7.3545,-7.5735,-7.7252,-7.7252,-7.7252,-7.6847,-7.5853,-7.472,-7.3487,-7.2055,-7.0293,-6.8752,-6.7467,-6.4237,-6.2144,-6.1337,-5.9098,-5.7923,-5.774,-5.7923,-5.7521,0.0,0.0,0.0,0.0,0.0,-5.0406,-4.9592,-5.0375,-5.0561,-5.0627,-5.2731,-5.3518,-5.3518,-5.3518,-5.4093,-5.5176,-5.7184,-5.9041,-6.057,-6.0423,-6.1265,-6.2219,-6.1969,-6.2324,-6.3025,-6.4053,-6.4824,-6.5888,-6.8311,-6.9486,-7.0513,-7.2129,-7.2233,-7.1792,-7.125,-6.9965,-6.8243,-6.6115,-6.48,0.0,0.0,0.0,0.0,-5.9893,-5.9154,-5.7988,-5.5782,-5.5517,-5.5257,-5.4691,0.0,0.0,0.0,0.0,0.0,0.0,0.0,0.0,0.0,0.0,-4.8444,-5.3435,0.0,-5.9093,0.0,-5.9013,-5.8246,-5.8283,-5.682,-5.6591,-5.7527,-5.7416,-5.7969,-5.895,-6.0076,-6.1525,-6.3079,-6.3079,-6.3079,-6.3394,-6.6154,-6.8068,-6.9704,-6.4783,-6.6212,-6.7448,0.0,0.0,0.0,-7.4038,-7.6461,-7.8304,-7.7968,-7.7244,-7.6773,-7.6814,-7.6995,-7.7084,-7.703,-7.7084,-7.6415,-7.4852,-7.2816,-7.1248,-7.0367,-6.8091,-6.6769,-6.6623,-6.3392,-6.13,-6.0529,-5.8841,-5.7629,0.0,-5.7666,0.0,0.0,0.0,0.0,0.0,-5.1358,-5.008,-4.8071,-4.9737,-5.041,-5.0627,-5.2731,-5.3518,-5.3518,-5.3518,-5.4424,-5.5726,-5.668,-5.7118,-5.7638,-5.9749,-6.0519,-6.0879,-6.2271,-6.2755,-6.3172,-6.4751,-6.5264,-6.5888,-6.8311,-6.9486,-7.0513,-7.2129,-7.1308,-7.0454,-7.1078,-6.8075,-6.5244,-6.4846,-6.3577,-6.2787,0.0,0.0,0.0,0.0,-5.9738,-5.861,-5.6329,-5.573,-5.5219,-5.4391,-5.4899,0.0,0.0,-5.2808,0.0,0.0,0.0,0.0,-4.2063,0.0,-4.7264,-5.4389,-5.6253,0.0,-6.23,-6.0116,-5.8655,-5.7785,-5.5978,-5.5691,-5.6731,-5.6479,-5.7865,-6.0307,-6.0422,-6.1525,-6.3079,-6.3079,-6.3079,-6.3394,-6.6154,-6.7676,-6.9124,0.0,0.0,0.0,0.0,0.0,0.0,0.0,-7.4833,-7.6148,-7.6737,-7.7045,-7.7398,-7.7866,-7.7385,-7.708,-7.708,-7.6148,-7.4763,-7.2724,-7.0901,-6.9302,-6.7981,-6.6072,-6.4824,-6.431,-6.2034,-6.0493,-5.9685,-5.8547,-5.785,-5.7519,0.0,0.0,0.0,0.0,-5.2906,-5.1087,-4.9812,-4.8875,-4.8519,-4.9804,-5.0779,-5.1451,-5.2972,-5.3518,-5.3518,-5.3518,-5.4182,-5.523,-5.6507,-5.7793,-5.9126,-6.0123,-6.1055,-6.186,-6.2023,-6.2427,-6.3062,-6.4273,-6.4934,-6.5888,-6.8311,-6.9486,-7.0513,-7.2129,-7.1175,-6.9949,-6.968,-6.6665,-6.3947,-6.3374,-6.2787,-6.2482,0.0,0.0,0.0,0.0,-5.9271,-5.7758,-5.5442,-5.4675,-5.4086,-5.3493,-5.4064,0.0,0.0,0.0,0.0,0.0,0.0,0.0,-4.3588,0.0,-4.9518,-5.5349,-5.778,-6.0392,-6.3059,-6.0919,-5.9344,-5.8486,-5.6248,-5.5118,-5.4883,-5.7201,-5.8438,-5.9132,-6.1258,-6.2438,-6.3079,-6.3079,-6.3592,-6.4574,-6.6944,-6.8904,-7.076,-7.2108,0.0,-7.0556,0.0,-7.2382,-7.1904,-7.267,-7.3275,-7.3934,-7.4581,-7.5574,-7.6631,-7.7791,-7.7349,-7.6742,-7.6306,-7.5184,-7.3354,-7.0676,-6.9044,-6.7577,-6.6219,-6.4604,-6.3539,-6.3209,-6.1374,-6.0015,-5.9208,-5.84,0.0,0.0,0.0,0.0,0.0,-5.2917,-5.1247,-5.0283,-4.9047,-4.8618,-4.8891,-5.032,-5.1229,-5.1993,-5.311,-5.3518,-5.3518,-5.3518,-5.4244,-5.5462,-5.685,-5.8827,-6.0756,-6.0747,-6.1548,-6.2376,-6.2076,-6.2324,-6.2989,-6.387,-6.4677,-6.5888,-6.8311,-6.9486,-7.0513,-7.2129,-7.0993,-6.9182,-6.7515,-6.5204,-6.3271,-6.2561,-6.2381,-6.2381,-6.2381,0.0,0.0,0.0,-5.8863,-5.7306,-5.4871,-5.4329,-5.3885,-5.3108,-5.3665,0.0,0.0,0.0,0.0,0.0,0.0,0.0,0.0,0.0,0.0,0.0,-6.011,-6.2021,-6.3892,-6.1761,-5.9972,-5.8486,-5.572,-5.3874,-5.314,-5.6541,-5.8048,-5.8257,-6.1168,-6.2672,-6.3194,-6.3478,-6.4412,-6.567,-6.7536,-6.9453,-7.1582,-7.4102,-7.3406,-7.2906,-7.5354,-7.4297,-7.2806,-7.1816,-7.1938,-7.2117,-7.2044,-7.2899,-7.4441,-7.6753,-7.6815,-7.6066,-7.4482,-7.4293,-7.2686,-6.8791,-6.7294,-6.6182,0.0,0.0,-6.3209,-6.4053,-6.1667,-6.0015,-5.9208,-5.84,0.0,-5.5671,0.0,-5.3438,-5.1961,-5.1619,-5.0102,-4.7849,-4.9614,-4.9773,-4.8973,-5.108,-5.1921,-5.1993,-5.311,-5.3518,-5.3518,-5.3518,-5.4966,-5.7021,-5.7871,-5.9709,-6.1556,-6.1571,-6.1604,-6.177,-6.2567,-6.2805,-6.2989,-6.387,-6.4677,-6.5888,-6.8311,-6.9486,-7.0513,-7.2129,-7.0592,-6.784,-6.4462,-6.3754,-6.3462,-6.2581,-6.2381,-6.2381,-6.2381,0.0,0.0,0.0,-5.9032,-5.7915,-5.4938,-5.5243,-5.5108,-5.3653,-5.416,0.0,0.0,0.0,0.0,0.0,0.0,0.0,-5.5813,-5.5381,0.0,-6.3159,-6.301,-6.3579,-6.4985,-6.2725,-6.0289,-5.7474,-5.3666,-5.1638,-5.1431,-5.3713,-5.5902,-5.8131,-5.9872,-6.1525,-6.3164,-6.4512,-6.5513,-6.6323,-6.7726,-6.9116,-7.0599,-7.5386,-7.5086,-7.4293,-7.3194,-7.2932,-7.2232,-7.0174,-7.1006,-7.1812,-7.2006,-7.2863,-7.4055,-7.578,-7.5404,-7.4951,0.0,-7.2957,-7.0611,0.0,-6.6445,-6.5338,-6.453,-6.398,-6.3539,-6.3209,-6.1887,-6.0566,-5.9208,0.0,0.0,0.0,-5.3845,-5.2774,-5.1549,-5.0197,-4.9631,-4.9536,-4.9362,-4.9899,-5.0973,-5.1598,-5.2312,-5.3041,-5.3348,-5.3518,-5.3619,-5.4689,-5.5881,-5.7185,-5.9143,-6.0554,-6.1581,-6.1601,-6.1624,-6.1784,-6.2572,-6.2401,-6.2291,-6.3686,-6.4677,-6.5888,-6.8311,-6.9486,-7.0513,-7.2129,-7.0592,-6.8175,-6.5891,-6.4984,-6.4495,-6.4218,-6.3719,-6.3314,-6.3314,-6.1722,0.0,-5.9167,0.0,-5.6055,-5.4093,-5.3585,-5.3213,0.0,-5.3809,0.0,0.0,0.0,0.0,0.0,0.0,0.0,0.0,-5.9498,0.0,-6.5064,-6.4634,-6.4723,-6.5275,-6.2276,-5.8464,-5.4002,-5.3985,-5.3592,-5.3166,-5.574,-5.7937,-5.9843,-6.2549,-6.4005,-6.4623,-6.5941,-6.758,-6.8974,-6.8973,-7.0454,-7.2509,-7.544,-7.4903,-7.4133,-7.2418,-7.1946,-7.1388,-7.0243,-7.0678,-7.1543,-7.2442,-7.2817,-7.3629,-7.5313,-7.4438,0.0,-7.4139,-7.2168,-6.996,-6.776,-6.6797,-6.6118,-6.5645,-6.4853,-6.4155,-6.3601,0.0,0.0,-5.8361,-5.608,-5.4454,-5.3312,-5.2024,-5.1116,-5.0445,-4.891,-4.8841,-4.9773,-4.9536,-5.0365,-5.1993,-5.2667,-5.3315,-5.3946,-5.4235,-5.45,-5.4937,-5.5854,-5.707,-5.8494,-5.9979,-6.1199,-6.1998,-6.1704,-6.1374,-6.13,-6.2108,-6.1998,-6.1961,-6.3649,-6.4677,-6.5888,-6.8311,-6.9486,-7.044,-7.1762,-7.0866,-6.9249,-6.7533,-6.6553,-6.5853,-6.5526,-6.474,-6.4148,-6.4148,-6.216,-6.0391,-5.9667,0.0,-5.5201,-5.4049,0.0,0.0,0.0,-5.3862,-5.4988,0.0,0.0,0.0,0.0,0.0,0.0,-6.4009,-6.4327,0.0,-6.8502,-6.7221,-6.6552,-6.6455,-6.2185,-5.8245,-5.4742,-5.5054,-5.5414,-5.6005,-5.8382,-6.0551,-6.2612,-6.5249,-6.6506,-6.6802,-6.8274,-6.9441,-7.0294,-6.9817,-7.061,-7.1766,-7.4385,-7.3412,0.0,0.0,-7.1388,0.0,-7.1559,-7.1225,-7.1523,-7.3338,-7.2987,-7.3333,-7.5366,-7.411,-7.2995,-7.2685,0.0,0.0,0.0,-6.8145,-6.8069,-6.7992,-6.5994,-6.4823,-6.4659,-6.1076,-5.8356,-5.6557,-5.3368,-5.1729,-5.1597,-4.9655,-4.8697,-4.8677,-4.7764,-4.7988,-4.8973,-5.0087,-5.108,-5.2137,-5.3939,-5.4606,-5.473,-5.5472,-5.6219,-5.6914,-5.7149,-5.8657,-6.0503,-6.0666,-6.1636,-6.2658,-6.1777,-6.1043,-6.0639,-6.1374,-6.1557,-6.1887,-6.3613,-6.4677,-6.5888,-6.8311,-6.9596,-7.044,-7.1211,-7.1358,-7.0836,-6.9285,-6.8331,-6.7472,-6.6601,-6.5698,-6.5101,-6.4994,-6.3017,-6.1184,-6.0432,-5.7647,-5.5449,0.0,0.0,0.0,0.0,-5.42,-5.473,0.0,0.0,0.0,0.0,0.0,-6.6854,-6.9291,-6.936,-7.0475,-7.2851,-7.035,-6.8733,-6.7921,-6.2569,-5.959,-5.8787,-5.6794,-5.7265,-5.9655,-6.1273,-6.3457,-6.6059,-6.7842,-6.8909,-6.9696,-7.1092,-7.1247,-7.061,-7.0396,-6.9919,-6.937,0.0,0.0,-7.2582,-7.1742,-7.2005,-7.205,-7.1792,-7.2776,-7.3816,-7.4153,-7.4695,-7.532,-7.608,-7.5209,-7.4249,-7.3377,-7.2128,-7.0899,-6.9763,-6.8717,-6.7605,-6.6618,-6.5515,-6.416,-6.2506,-5.9812,-5.649,-5.239,-5.16,-5.0388,-4.8789,-4.8261,-4.7886,-4.7679,-4.821,-4.9004,-5.0087,-5.108,-5.217,-5.3247,-5.4166,-5.4606,-5.4765,-5.6071,-5.6737,-5.7185,-5.9665,-6.0575,-6.0793,-6.2668,-6.3071,-6.2548,-6.1117,-6.097,-6.1337,-6.152,-6.1153,-6.119,-6.3466,-6.4677,-6.5888,-6.8311,-7.044,-7.1982,-7.2165,-7.1762,-7.1191,-7.0799,-7.0047,-6.9279,-6.8393,-6.7535,-6.6593,-6.5273,-6.304,-6.1007,-5.9628,-5.7789,0.0,0.0,-5.4433,-5.4121,-5.3551,-5.4668,-5.5988,0.0,0.0,0.0,0.0,-6.5528,-6.7793,-7.0879,-7.007,-7.0653,-7.2791,-7.0842,-6.8506,-6.5803,-6.4356,-6.2427,-6.024,-6.1156,-6.2342,-6.3605,-6.4347,-6.6168,-6.8681,-7.016,-7.0861,-7.1092,-7.2467,-7.2909,-7.2515,-7.1424,-7.1131,-7.1227,-7.2279,-7.2142,-7.1917,-7.1401,-7.1776,-7.231,-7.2774,-7.3748,-7.4676,-7.5128,-7.5363,-7.5417,-7.5425,-7.4673,-7.3687,-7.2601,-7.2065,-7.126,-7.0034,-6.8693,-6.7391,-6.6294,-6.4321,-6.2409,-6.05,-5.7963,-5.443,-4.9957,-4.9055,-4.8175,-4.7274,-4.713,-4.7213,-4.7309,-4.8377,-4.9376,-5.0506,-5.181,-5.3271,-5.4655,-5.5757,-5.6199,-5.6361,-5.7927,-5.8736,-5.933,-6.1405,-6.2401,-6.2854,-6.3804,-6.3796,-6.3062,-6.1043,-6.0713,-6.1091,-6.1385,-6.1208,-6.1484,-6.398,-6.4971,-6.5962,-6.8752,-7.0991,-7.2496,-7.2496,-7.2165,-7.1872,-7.1872,-7.1211,-7.0513,-7.0073,-6.9003,-6.7622,-6.6022,-6.3724,-6.1564,-5.9979,-5.8106,0.0,-5.6219,-5.5914,-5.5637,-5.5674,-5.6387,-5.7207,-5.8101,0.0,0.0,-6.3427,-6.4871,-6.7112,-7.0195,-7.0188,-7.0813,-7.2235,-7.0577,-6.8779,-6.6846,-6.5867,-6.4948,-6.409,-6.4919,-6.6067,-6.7388,-6.8124,-6.9653,-7.1886,-7.2643,-7.3369,-7.4003,-7.3936,-7.3197,-7.1949,-7.0401,-6.9123,-6.803,-7.1154,-7.0791,-7.0791,-7.0916,-7.1053,-7.1678,-7.3596,-7.3881,-7.4262,-7.5507,-7.4955,-7.4349,-7.4041,-7.335,-7.2387,-7.1207,-7.1306,-7.0796,-6.9347,-6.7967,-6.675,-6.5703,-6.2748,-6.0247,-5.8384,-5.5468,-5.2243,-4.8528,-4.6852,-4.6296,-4.6952,-4.6722,-4.7038,-4.7849,-4.8841,-4.9773,-5.0735,-5.2646,-5.4363,-5.5945,-5.7599,-5.8279,-5.8461,-5.9993,-6.1006,-6.1741,-6.2805,-6.4067,-6.5161,-6.4572,-6.4377,-6.391,-6.155,-6.0886,-6.1098,-6.1395,-6.1812,-6.2656,-6.4906,-6.5791,-6.675,-6.9626,-7.147,-7.2614,-7.2724,-7.2686,-7.263,-7.263,-7.2002,-7.1468,-7.1321,-7.0073,-6.8531,-6.6769,-6.4471,-6.2316,-6.0639,0.0,-5.7344,-5.8027,-5.749,-5.737,-5.813,-5.8374,-5.8481,-5.8481,-6.0194,-6.164,0.0,-6.4015,-6.6018,-6.8605,-6.9837,-7.0809,-7.1597,-7.0345,-6.9632,-6.9246,-6.7706,-6.7635,-6.9069,-6.8663,-6.9484,-7.128,-7.1945,-7.3194,-7.4796,-7.4674,-7.5388,-7.6337,-7.4209,-7.1981,-6.9641,-6.7775,-6.5269,-6.2823,-6.9504,-6.8601,-6.8206,-6.9313,-6.9678,-7.0361,-7.1874,-7.1809,-7.2006,-7.3479,-7.3014,-7.2717,-7.3231,-7.2566,-7.1436,-6.985,-6.849,-6.7616,-6.7351,-6.5876,-6.4104,-6.2175,-6.0932,-5.8718,-5.5402,-5.2406,-4.9813,-4.777,-4.747,-4.7572,-4.8063,-4.804,-4.8694,-4.9931,-5.1005,-5.1525,-5.1809,-5.4295,-5.5524,-5.5973,-5.8203,-5.9096,-5.9256,-6.0797,-6.1484,-6.1887,-6.4127,-6.4918,-6.5068,-6.5543,-6.5522,-6.5041,-6.3236,-6.3161,-6.3651,-6.3013,-6.384,-6.5191,-6.6281,-6.8124,-7.0003,-7.1244,-7.2215,-7.3116,-7.3876,-7.3639,-7.3238,-7.3238,-7.276,-7.2129,-7.1431,-7.055,-6.9155,-6.688,-6.4746,-6.2715,-6.0651,0.0,-5.8356,-5.8115,-5.7959,-5.7981,-5.8201,-5.9342,-6.0142,-6.0142,-6.2426,-6.3949,-6.422,-6.5268,-6.6476,-6.7741,-6.9137,-7.0395,-7.159,-7.1669,-7.1354,-7.0593,-7.093,-7.1897,-7.3448,-7.4027,-7.4608,-7.5254,-7.5392,-7.5527,-7.5479,-7.4805,-7.4629,-7.4483,-7.0023,-6.7742,-6.6272,-6.2972,-6.0944,-5.9998,-6.8306,-6.7572,-6.7368,-6.7974,-6.8492,-6.9132,-7.0362,-7.066,-7.0978,-7.1297,-7.1059,-7.0617,-6.9864,-6.9451,-6.8416,-6.6384,-6.509,-6.3811,-6.2254,-6.2138,-6.1484,-6.001,-5.8172,-5.5786,-5.2906,-5.0551,-4.8928,-4.8165,-4.805,-4.8343,-4.8904,-4.8904,-4.9405,-5.0474,-5.1933,-5.2767,-5.3341,-5.5923,-5.754,-5.8472,-5.9941,-6.0537,-6.0646,-6.1825,-6.2548,-6.3185,-6.509,-6.6192,-6.6814,-6.6518,-6.636,-6.5879,-6.3765,-6.3388,-6.3764,-6.4124,-6.5158,-6.6407,-6.7237,-6.9313,-7.1312,-7.169,-7.2746,-7.3803,-7.4218,-7.4072,-7.3794,-7.3492,-7.3172,-7.2778,-7.2075,-7.0917,-6.9522,-6.7875,-6.5053,0.0,0.0,-6.0133,-5.9478,-5.9679,-6.0147,-6.0677,-6.1317,-6.1604,-6.2077,-6.2794,-6.3813,-6.4741,-6.5531,-6.5838,-6.6821,-6.8641,-7.0117,-7.1242,-7.1923,-7.2921,-7.3132,-7.2648,-7.3338,-7.4441,-7.6063,-7.641,-7.663,-7.6689,-7.6764,-7.6347,-7.5648,-7.4869,-7.4163,-7.3044,-6.6922,-6.3384,-6.1225,-5.6115,-5.3472,-5.2614,-6.6703,-6.6343,-6.6365,-6.6679,-6.7193,-6.7904,-6.8864,-6.9407,-6.9584,-6.9171,-6.8822,-6.8148,-6.6935,-6.6459,-6.5478,-6.35,-6.24,-6.084,-5.8544,-5.8826,-5.8696,-5.7847,-5.5238,-5.3078,-5.1488,-4.9859,-4.9128,-4.9293,-4.9349,-4.966,-5.0347,-5.0528,-5.1026,-5.1987,-5.3382,-5.4419,-5.5403,-5.8001,-5.9797,-6.1026,-6.2202,-6.264,-6.2719,-6.3185,-6.3796,-6.4559,-6.5905,-6.727,-6.8309,-6.7501,-6.7353,-6.7121,-6.4996,-6.4313,-6.4533,-6.5612,-6.6674,-6.7652,-6.8297,-7.0157,-7.1939,-7.2129,-7.3304,-7.4442,-7.4632,-7.4588,-7.4341,-7.3897,-7.3699,-7.3492,-7.2997,-7.1558,-7.0101,-6.8875,0.0,0.0,0.0,-6.177,-6.1466,-6.2089,-6.2762,-6.3562,-6.4668,-6.4509,-6.4698,-6.5603,-6.5877,-6.6286,-6.6924,-6.6863,-6.7768,-6.999,-7.1746,-7.2704,-7.2943,-7.45,-7.5125,-7.4833,-7.5558,-7.681,-7.8512,-7.8614,-7.8477,-7.8298,-7.8013,-7.7336,-7.6232,-7.4864,-7.3283,-7.0972,-6.3566,-5.8417,-5.434,-4.8222,-4.4819,-4.3506,-6.4333,-6.3862,-6.3789,-6.5032,-6.5796,-6.6416,-6.7114,-6.71,-6.7107,-6.7211,-6.6011,-6.5404,-6.6065,-6.4923,-6.3683,-6.286,-6.1379,-6.0078,-5.9168,-5.7176,-5.5688,-5.4948,-5.2706,-5.1688,-5.2198,-5.0747,-5.0342,-5.0986,-5.1775,-5.252,-5.3184,-5.3894,-5.5014,-5.6423,-5.6541,-5.7094,-5.8119,-6.0949,-6.2218,-6.2537,-6.4884,-6.5783,-6.5737,-6.5299,-6.5154,-6.5404,-6.6712,-6.7604,-6.8183,-6.8517,-6.9023,-6.9316,-6.8317,-6.801,-6.801,-6.8114,-6.8806,-6.9509,-6.9547,-7.0853,-7.2352,-7.3159,-7.4043,-7.4888,-7.5695,-7.5446,-7.5054,-7.4979,-7.4551,-7.4206,-7.4161,-7.2805,-7.111,-6.9495,0.0,0.0,-6.4481,-6.4571,-6.4942,-6.5313,-6.5427,-6.5766,-6.6632,-6.8025,-6.8631,-6.8032,-6.9775,-7.0247,-6.8793,-6.9165,-6.9961,-7.1159,-7.3571,-7.4926,-7.5084,-7.703,-7.7692,-7.695,-7.7891,-7.9584,-8.1925,-8.1779,-8.1664,-8.1483,-8.0261,-7.9143,-7.7995,-7.4727,-7.1464,-6.7813,-5.9199,-5.1812,-4.5394,-3.9484,-3.5558,-3.3823,-6.2889,-6.2363,-6.2198,-6.3122,-6.4089,-6.4831,-6.5062,-6.6101,-6.6675,-6.6268,-6.5687,-6.5128,-6.4553,-6.3933,-6.3181,-6.1941,-6.1249,-6.0183,-5.8496,-5.7569,-5.6099,-5.4049,-5.2632,-5.2255,-5.3004,-5.2516,-5.2555,-5.3334,-5.4116,-5.4617,-5.4899,-5.5645,-5.6347,-5.7007,-5.8825,-5.9808,-6.0259,-6.2673,-6.3967,-6.4491,-6.5407,-6.5919,-6.6052,-6.5858,-6.6134,-6.6701,-6.8091,-6.894,-6.9427,-6.9934,-6.9942,-6.9552,-6.8667,-6.8475,-6.8732,-6.9348,-7.0156,-7.0783,-7.0667,-7.1783,-7.3091,-7.3437,-7.4514,-7.5592,-7.5938,-7.5818,-7.5551,-7.5163,-7.4943,-7.4672,-7.4379,-7.335,-7.2305,-7.1485,0.0,-6.8481,-6.7782,-6.763,-6.7578,-6.7677,-6.8291,-6.8868,-6.934,-7.0526,-7.1256,-7.1143,-7.2394,-7.272,-7.1781,-7.1929,-7.2304,-7.2847,-7.4772,-7.5978,-7.6193,-7.845,-7.9417,-7.8992,-7.9796,-8.0961,-8.2482,-8.1851,-8.1614,-8.1702,-8.1166,-7.9992,-7.8404,-7.7044,-7.3387,-6.7511,-5.6327,-4.6369,-3.6933,-2.7511,-2.2222,-2.088,-6.1237,-6.0954,-6.1096,-6.2173,-6.3423,-6.4382,-6.4578,-6.6045,-6.688,-6.6136,-6.5628,-6.4952,-6.3971,-6.3429,-6.2651,-6.14,-6.1298,-6.0672,-5.9098,-5.8838,-5.7364,-5.4292,-5.3202,-5.3169,-5.4172,-5.3987,-5.4186,-5.4965,-5.5968,-5.6415,-5.6451,-5.7512,-5.8358,-5.9148,-6.1165,-6.241,-6.3156,-6.4708,-6.5912,-6.6633,-6.6633,-6.6899,-6.733,-6.7198,-6.7635,-6.851,-6.962,-7.0419,-7.0925,-7.1209,-7.0937,-7.0321,-6.9513,-6.9398,-6.9701,-7.0397,-7.1031,-7.1456,-7.134,-7.2469,-7.3658,-7.3514,-7.4745,-7.6015,-7.6015,-7.6015,-7.5848,-7.5446,-7.5604,-7.5692,-7.5323,-7.4524,-7.3801,-7.3323,-7.1811,-7.0663,-7.0497,-7.0469,-7.047,-7.0432,-7.1363,-7.2062,-7.2265,-7.345,-7.429,-7.4435,-7.5288,-7.548,-7.4832,-7.4476,-7.4476,-7.4966,-7.6443,-7.7432,-7.7858,-7.9546,-8.0534,-8.0792,-8.1204,-8.1875,-8.2763,-8.191,-8.1704,-8.2028,-8.1342,-8.0397,-7.9251,-7.8307,-7.4332,-6.753,-5.306,-4.0214,-2.8269,-1.4851,-0.8364,-0.7578,-5.8979,-5.9608,-6.0675,-6.2624,-6.4177,-6.5222,-6.5778,-6.7012,-6.7624,-6.688,-6.5493,-6.458,-6.458,-6.326,-6.2076,-6.1366,-6.1298,-6.1381,-6.1502,-6.0838,-5.9065,-5.5854,-5.4295,-5.4231,-5.5688,-5.5001,-5.5001,-5.5688,-5.7317,-5.8119,-5.8156,-5.9688,-6.1606,-6.3718,-6.3718,-6.4953,-6.6938,-6.741,-6.8106,-6.8908,-6.8836,-6.9332,-7.0061,-6.9511,-6.9841,-7.0718,-7.1251,-7.1925,-7.2563,-7.2323,-7.2206,-7.2091,-7.1426,-7.1334,-7.151,-7.1523,-7.1523,-7.1523,-7.1523,-7.2734,-7.3944,-7.3591,-7.4745,-7.6015,-7.6015,-7.6015,-7.6015,-7.6015,-7.6707,-7.7323,-7.7323,-7.6592,-7.5745,-7.4861,-7.4053,-7.3245,-7.236,-7.3157,-7.3812,-7.384,-7.4725,-7.5335,-7.5322,-7.6897,-7.7909,-7.7909,-7.8689,-7.8729,-7.7669,-7.6592,-7.6506,-7.7574,-7.8651,-7.9584,-8.0387,-8.0397,-8.107,-8.2278,-8.2086,-8.2435,-8.3264,-8.2386,-8.2454,-8.3077,-8.0844,-8.0381,-8.0986,-7.8051,-7.3957,-6.7618,-4.9254,-3.3463,-1.922,-0.2328,0.5642,0.5836,-5.8291,-5.8849,-5.9543,-6.0599,-6.2269,-6.3498,-6.366,-6.4738,-6.5493,-6.529,-6.4444,-6.3632,-6.3091,-6.2212,-6.1535,-6.1332,-6.1298,-6.1381,-6.1432,-6.0838,-6.0047,-5.9059,-5.7034,-5.6099,-5.6563,-5.6312,-5.6704,-5.7794,-5.8903,-5.9435,-5.9427,-6.2006,-6.3406,-6.3835,-6.6258,-6.7382,-6.7483,-6.8587,-6.9194,-6.9462,-6.9424,-7.0049,-7.101,-7.0832,-7.1292,-7.209,-7.2881,-7.3194,-7.333,-7.3793,-7.3591,-7.3097,-7.3142,-7.3315,-7.3488,-7.3626,-7.3679,-7.3639,-7.3483,-7.4304,-7.4896,-7.3899,-7.4938,-7.6169,-7.6015,-7.6476,-7.6899,-7.6899,-7.7553,-7.813,-7.813,-7.7938,-7.7515,-7.6852,-7.7006,-7.6967,-7.6293,-7.6457,-7.6919,-7.7545,-7.7446,-7.7544,-7.8128,-7.9337,-7.9742,-7.9001,-7.9105,-7.9067,-7.8767,-7.843,-7.843,-7.8874,-7.9172,-7.983,-8.0815,-8.1295,-8.1655,-8.1893,-8.1687,-8.1787,-8.2143,-8.1134,-8.085,-8.1181,-8.1037,-8.0645,-8.0086,-8.0321,-7.8044,-7.3429,-6.2633,-4.1103,-1.5129,-0.7724,0.3629,1.3008,-5.7702,-5.8173,-5.8719,-5.9886,-6.1077,-6.1989,-6.2448,-6.3262,-6.3734,-6.3734,-6.2821,-6.2009,-6.1535,-6.117,-6.0916,-6.0916,-6.205,-6.2821,-6.2868,-6.2867,-6.2542,-6.1931,-6.0715,-5.9438,-5.8092,-5.7774,-5.8238,-5.9515,-6.0339,-6.1089,-6.1726,-6.3841,-6.52,-6.5878,-6.8288,-6.9425,-6.9429,-6.997,-7.036,-7.0629,-6.9975,-7.0489,-7.1733,-7.1733,-7.2422,-7.3494,-7.403,-7.4305,-7.4514,-7.4668,-7.4245,-7.3728,-7.3929,-7.418,-7.452,-7.4985,-7.4861,-7.471,-7.5296,-7.5845,-7.6104,-7.5597,-7.6225,-7.7006,-7.7198,-7.766,-7.8045,-7.8045,-7.8699,-7.9238,-7.9238,-7.9246,-7.9131,-7.8776,-7.8837,-7.882,-7.8479,-7.8463,-7.8668,-7.921,-7.9291,-7.9502,-7.9986,-8.0914,-8.125,-8.0586,-8.0392,-8.0296,-8.0318,-8.0213,-8.0241,-8.0414,-8.0423,-8.0787,-8.1499,-8.1901,-8.2024,-8.1819,-8.1597,-8.1402,-8.1165,-8.0152,-7.9736,-7.9783,-7.9756,-7.9737,-7.9671,-8.045,-7.9661,-7.6875,-6.6856,-4.6778,-2.2645,-1.4383,-0.2296,0.7599,-5.7197,-5.7444,-5.8075,-6.0022,-6.0406,-6.0935,-6.2188,-6.2377,-6.2377,-6.2377,-6.1053,-6.0136,-6.0204,-6.0183,-6.0286,-6.0425,-6.3262,-6.5068,-6.5032,-6.5897,-6.5815,-6.4273,-6.4661,-6.3488,-6.0468,-5.9577,-5.9665,-6.0853,-6.1687,-6.2858,-6.4368,-6.5388,-6.6893,-6.8831,-6.9813,-7.0992,-7.2129,-7.1283,-7.1437,-7.2168,-7.0552,-7.0937,-7.2437,-7.2514,-7.3476,-7.4861,-7.4976,-7.5515,-7.5976,-7.5207,-7.4591,-7.4191,-7.4239,-7.4492,-7.4961,-7.5859,-7.5586,-7.5312,-7.6953,-7.7422,-7.7573,-7.8291,-7.8321,-7.8386,-7.9026,-7.9257,-7.9307,-7.9317,-7.9933,-8.054,-8.054,-8.0521,-8.05,-8.0554,-7.9919,-7.9447,-7.9481,-7.9541,-7.9571,-7.9648,-8.0435,-8.1015,-8.1094,-8.1836,-8.2304,-8.2304,-8.2148,-8.2031,-8.2031,-8.185,-8.1833,-8.2014,-8.2032,-8.2122,-8.2304,-8.2304,-8.2201,-8.197,-8.1882,-8.1376,-8.049,-7.967,-7.9202,-7.9003,-7.7929,-7.8148,-7.9384,-7.9206,-7.9457,-7.8724,-6.6233,-5.2397,-3.7952,-2.3595,-1.2899,-0.7761,-5.5729,-5.657,-5.7788,-5.9499,-6.0578,-6.1528,-6.2401,-6.2536,-6.2536,-6.2536,-6.1204,-6.0504,-6.1165,-6.0135,-5.991,-6.1143,-6.3571,-6.4852,-6.418,-6.5606,-6.6072,-6.5081,-6.4948,-6.4705,-6.4366,-6.2975,-6.2211,-6.2192,-6.3061,-6.3638,-6.3981,-6.6574,-6.7829,-6.7954,-6.9902,-7.1304,-7.2129,-7.1283,-7.1783,-7.3129,-7.2091,-7.2668,-7.4245,-7.4938,-7.5399,-7.5899,-7.7207,-7.74,-7.6976,-7.6784,-7.6322,-7.5848,-7.5988,-7.6209,-7.6601,-7.7617,-7.7812,-7.7851,-7.8867,-7.914,-7.9375,-8.0188,-8.0363,-8.0142,-7.9392,-7.9696,-8.0124,-8.0124,-8.0805,-8.1426,-8.1426,-8.1426,-8.148,-8.1638,-8.1514,-8.1458,-8.1602,-8.1061,-8.0927,-8.1591,-8.1279,-8.1289,-8.1953,-8.2187,-8.2304,-8.2304,-8.2265,-8.2226,-8.2226,-8.2182,-8.2203,-8.2248,-8.2228,-8.2238,-8.2304,-8.2304,-8.2201,-8.2009,-8.2521,-8.224,-8.1398,-8.1215,-8.0316,-7.8779,-7.8654,-7.8154,-7.7611,-7.8922,-8.0754,-8.243,-8.02,-6.5836,-4.6281,-4.4633,-3.4685,-2.5061,-5.7009,-5.7722,-5.8526,-5.9806,-6.0526,-6.0919,-6.098,-6.129,-6.1396,-6.1043,-6.0264,-6.0007,-6.0397,-6.0404,-6.135,-6.3711,-6.5053,-6.5731,-6.5694,-6.7221,-6.7875,-6.7469,-6.8178,-6.8299,-6.773,-6.7174,-6.5987,-6.4172,-6.4632,-6.5015,-6.5398,-6.7011,-6.7829,-6.808,-7.0046,-7.1168,-7.1591,-7.1552,-7.2283,-7.3437,-7.2552,-7.3206,-7.4822,-7.5668,-7.6245,-7.6784,-7.8054,-7.8207,-7.7861,-7.7861,-7.7669,-7.7526,-7.762,-7.7857,-7.8281,-7.9258,-7.9336,-7.9336,-8.0586,-8.0625,-8.0547,-8.1406,-8.1601,-8.1443,-8.0804,-8.1016,-8.129,-8.129,-8.168,-8.1984,-8.1984,-8.1984,-8.2026,-8.2124,-8.2115,-8.2182,-8.2301,-8.1914,-8.1797,-8.2265,-8.1914,-8.1797,-8.2265,-8.2304,-8.2304,-8.2304,-8.2304,-8.2304,-8.2304,-8.2304,-8.25,-8.289,-8.2903,-8.3126,-8.3554,-8.3554,-8.3389,-8.3048,-8.3008,-8.2528,-8.1703,-8.1558,-8.0585,-7.8999,-7.8953,-7.849,-7.794,-7.8903,-8.051,-8.2611,-8.3991,-7.5048,-6.1565,-6.2479,-5.5177,-4.6687,-5.8694,-5.9158,-5.9476,-6.0438,-6.058,-6.0427,-5.9905,-6.0392,-6.057,-6.0067,-6.0017,-6.011,-6.0352,-6.1697,-6.3628,-6.6344,-6.669,-6.7059,-6.7723,-6.8974,-6.9743,-6.9939,-7.1521,-7.1811,-7.0552,-7.1044,-6.9706,-6.632,-6.6167,-6.6436,-6.709,-6.709,-6.7475,-6.8244,-6.9937,-7.0783,-7.0937,-7.1668,-7.2552,-7.3437,-7.2706,-7.3322,-7.4822,-7.5976,-7.6784,-7.7438,-7.8554,-7.8861,-7.8707,-7.8707,-7.8738,-7.8738,-7.8776,-7.9038,-7.9465,-8.0428,-8.0312,-8.0234,-8.1875,-8.1758,-8.1406,-8.2109,-8.2304,-8.2304,-8.2304,-8.2304,-8.2304,-8.2304,-8.2304,-8.2304,-8.2304,-8.2304,-8.2304,-8.2304,-8.2304,-8.2304,-8.2304,-8.2304,-8.2304,-8.2304,-8.2304,-8.2304,-8.2304,-8.2304,-8.2304,-8.2304,-8.2304,-8.2304,-8.2304,-8.2304,-8.2617,-8.3359,-8.3515,-8.3945,-8.4687,-8.4844,-8.4726,-8.4427,-8.3757,-8.2913,-8.1915,-8.1687,-8.0862,-7.9576,-7.9186,-7.9037,-7.8903,-7.9001,-7.9971,-8.1599,-8.3264,-8.1169,-7.7059,-7.6181,-7.1866,-6.6624,-5.8096,-5.8804,-5.9716,-6.1178,-6.1436,-6.1623,-6.223,-6.2391,-6.2558,-6.2956,-6.3057,-6.3505,-6.4649,-6.5598,-6.6357,-6.6814,-6.7492,-6.7902,-6.8015,-6.8888,-6.9721,-7.0475,-7.118,-7.1773,-7.2265,-7.2847,-7.1475,-6.8052,-6.7321,-6.6974,-6.709,-6.709,-6.7167,-6.7359,-6.909,-7.0244,-7.0898,-7.1014,-7.2014,-7.3514,-7.336,-7.3899,-7.4938,-7.7284,-7.7784,-7.7592,-7.99,-8.0246,-7.9631,-7.9631,-7.9131,-7.8554,-7.8746,-7.8826,-7.9099,-8.0353,-8.0625,-8.082,-8.1992,-8.2226,-8.2148,-8.2265,-8.2304,-8.2304,-8.2304,-8.2304,-8.2304,-8.2304,-8.2304,-8.2304,-8.2304,-8.2304,-8.2304,-8.2304,-8.2304,-8.2304,-8.2304,-8.2304,-8.2304,-8.2304,-8.2304,-8.2304,-8.2304,-8.2304,-8.2304,-8.2304,-8.2304,-8.2304,-8.2304,-8.2304,-8.2344,-8.2461,-8.3203,-8.3672,-8.3789,-8.4531,-8.5038,-8.5321,-8.5225,-8.4328,-8.2745,-8.2685,-8.1843,-8.0406,-7.9648,-7.9236,-7.8992,-7.9204,-8.0182,-8.1708,-8.2937,-8.3605,-8.3663,-8.1716,-7.8328,-7.4779,-5.9539,-6.0491,-6.1459,-6.2937,-6.3177,-6.3119,-6.3009,-6.3798,-6.4294,-6.4056,-6.4925,-6.5683,-6.6256,-6.705,-6.7767,-6.822,-6.8558,-6.8747,-6.8747,-6.9815,-7.0611,-7.1028,-7.2444,-7.3207,-7.3092,-7.3812,-7.2822,-7.008,-6.9481,-6.8597,-6.737,-6.737,-6.737,-6.7408,-6.8663,-6.9587,-7.0244,-7.0244,-7.1206,-7.2745,-7.2245,-7.3129,-7.4899,-7.6476,-7.7438,-7.8246,-8.0362,-8.0862,-8.0516,-8.0516,-8.0285,-7.9977,-8.0054,-8.0169,-8.0357,-8.0922,-8.1255,-8.1523,-8.1992,-8.2226,-8.2304,-8.2304,-8.2304,-8.2304,-8.2304,-8.2304,-8.2304,-8.2304,-8.2304,-8.2304,-8.2304,-8.2304,-8.2304,-8.2304,-8.2304,-8.2304,-8.2304,-8.2304,-8.2304,-8.2304,-8.2304,-8.2304,-8.2304,-8.2304,-8.2304,-8.2304,-8.2304,-8.2304,-8.2304,-8.2304,-8.2539,-8.3008,-8.3867,-8.457,-8.5039,-8.5937,-8.6327,-8.6216,-8.6258,-8.5512,-8.4126,-8.3805,-8.3039,-8.2022,-8.1307,-8.0648,-8.0152,-8.0281,-8.0617,-8.1222,-8.2189,-8.3133,-8.376,-8.2523,-8.0883,-7.9286]}]]